<?xml version='1.0' encoding='UTF-8'?><gpx version="1.1" creator="JPX - https://github.com/jenetics/jpx" xmlns="http://www.topografix.com/GPX/1/1"><trk><trkseg><trkpt lat="42.70533184475016" lon="9.145716420787451"><ele>283.0</ele><time>2026-04-04T10:58:28Z</time></trkpt><trkpt lat="42.70525889764399" lon="9.145777848904608"><ele>283.0</ele><time>2026-04-04T10:58:29Z</time></trkpt><trkpt lat="42.705166737438816" lon="9.145795747258406"><ele>283.0</ele><time>2026-04-04T10:58:30Z</time></trkpt><trkpt lat="42.7050641465844" lon="9.145811687498563"><ele>283.0</ele><time>2026-04-04T10:58:31Z</time></trkpt><trkpt lat="42.70499028266239" lon="9.145820996647227"><ele>283.0</ele><time>2026-04-04T10:58:32Z</time></trkpt><trkpt lat="42.70489017774916" lon="9.145764454856653"><ele>282.3333333333333</ele><time>2026-04-04T10:58:34Z</time></trkpt><trkpt lat="42.70483041675839" lon="9.145725109802418"><ele>281.66666666666663</ele><time>2026-04-04T10:58:35Z</time></trkpt><trkpt lat="42.70476431162407" lon="9.145686903644517"><ele>281.0</ele><time>2026-04-04T10:58:36Z</time></trkpt><trkpt lat="42.704702575864935" lon="9.145651998476204"><ele>280.3333333333333</ele><time>2026-04-04T10:58:37Z</time></trkpt><trkpt lat="42.70456335029635" lon="9.145650190447562"><ele>279.6666666666667</ele><time>2026-04-04T10:58:39Z</time></trkpt><trkpt lat="42.70447015355581" lon="9.145692733512428"><ele>279.0</ele><time>2026-04-04T10:58:40Z</time></trkpt><trkpt lat="42.704392322152636" lon="9.145749778609813"><ele>279.0</ele><time>2026-04-04T10:58:41Z</time></trkpt><trkpt lat="42.70431228952006" lon="9.145813434011261"><ele>279.0</ele><time>2026-04-04T10:58:42Z</time></trkpt><trkpt lat="42.704238982489635" lon="9.145878621571738"><ele>279.0</ele><time>2026-04-04T10:58:43Z</time></trkpt><trkpt lat="42.70413556062279" lon="9.145971320917798"><ele>279.0</ele><time>2026-04-04T10:58:44Z</time></trkpt><trkpt lat="42.70404941166726" lon="9.146076956762956"><ele>279.0</ele><time>2026-04-04T10:58:45Z</time></trkpt><trkpt lat="42.70398799053258" lon="9.14618833632506"><ele>279.0</ele><time>2026-04-04T10:58:46Z</time></trkpt><trkpt lat="42.70394298845094" lon="9.146311994816855"><ele>279.0</ele><time>2026-04-04T10:58:47Z</time></trkpt><trkpt lat="42.70390569237515" lon="9.146443501232584"><ele>279.0</ele><time>2026-04-04T10:58:48Z</time></trkpt><trkpt lat="42.70387766923802" lon="9.146577013522467"><ele>279.0</ele><time>2026-04-04T10:58:49Z</time></trkpt><trkpt lat="42.703853535927344" lon="9.146705765885084"><ele>279.0</ele><time>2026-04-04T10:58:50Z</time></trkpt><trkpt lat="42.70383572574389" lon="9.146825845487836"><ele>279.8333333333333</ele><time>2026-04-04T10:58:51Z</time></trkpt><trkpt lat="42.70380411178686" lon="9.14693036637623"><ele>280.6666666666667</ele><time>2026-04-04T10:58:52Z</time></trkpt><trkpt lat="42.70378131274523" lon="9.147035555754295"><ele>281.5</ele><time>2026-04-04T10:58:53Z</time></trkpt><trkpt lat="42.703770522338715" lon="9.147146180982567"><ele>282.33333333333337</ele><time>2026-04-04T10:58:54Z</time></trkpt><trkpt lat="42.70376813519468" lon="9.147242531735364"><ele>283.1666666666667</ele><time>2026-04-04T10:58:55Z</time></trkpt><trkpt lat="42.70371577149729" lon="9.14734600039754"><ele>284.0</ele><time>2026-04-04T10:58:57Z</time></trkpt><trkpt lat="42.703647795001544" lon="9.147392988857542"><ele>284.83333333333337</ele><time>2026-04-04T10:58:58Z</time></trkpt><trkpt lat="42.70358259017002" lon="9.14741379882832"><ele>285.6666666666667</ele><time>2026-04-04T10:58:59Z</time></trkpt><trkpt lat="42.703506473463875" lon="9.147424870093904"><ele>286.5</ele><time>2026-04-04T10:59:00Z</time></trkpt><trkpt lat="42.70341503274196" lon="9.147448482768612"><ele>287.3333333333333</ele><time>2026-04-04T10:59:01Z</time></trkpt><trkpt lat="42.70333582643225" lon="9.147499254262126"><ele>288.16666666666663</ele><time>2026-04-04T10:59:02Z</time></trkpt><trkpt lat="42.70326782924198" lon="9.147577877878897"><ele>289.0</ele><time>2026-04-04T10:59:03Z</time></trkpt><trkpt lat="42.703202297566655" lon="9.147675608116689"><ele>285.4</ele><time>2026-04-04T10:59:04Z</time></trkpt><trkpt lat="42.70314595785204" lon="9.147785280322656"><ele>281.79999999999995</ele><time>2026-04-04T10:59:05Z</time></trkpt><trkpt lat="42.70308908258898" lon="9.14791937258979"><ele>278.20000000000005</ele><time>2026-04-04T10:59:06Z</time></trkpt><trkpt lat="42.70303409790682" lon="9.14806349984285"><ele>274.6</ele><time>2026-04-04T10:59:07Z</time></trkpt><trkpt lat="42.70299258124098" lon="9.148198777951572"><ele>271.0</ele><time>2026-04-04T10:59:08Z</time></trkpt><trkpt lat="42.702953563085025" lon="9.148320452151703"><ele>271.0</ele><time>2026-04-04T10:59:09Z</time></trkpt><trkpt lat="42.70291654436202" lon="9.148432089910715"><ele>271.0</ele><time>2026-04-04T10:59:10Z</time></trkpt><trkpt lat="42.702896640258224" lon="9.148547601648831"><ele>271.0</ele><time>2026-04-04T10:59:11Z</time></trkpt><trkpt lat="42.7028832491919" lon="9.148637235461655"><ele>271.0</ele><time>2026-04-04T10:59:12Z</time></trkpt><trkpt lat="42.70279853207611" lon="9.14875027380033"><ele>271.0</ele><time>2026-04-04T10:59:14Z</time></trkpt><trkpt lat="42.70271166976478" lon="9.148802964212107"><ele>266.5</ele><time>2026-04-04T10:59:15Z</time></trkpt><trkpt lat="42.70260702256232" lon="9.148828534539499"><ele>262.0</ele><time>2026-04-04T10:59:16Z</time></trkpt><trkpt lat="42.702493737499225" lon="9.148866473622821"><ele>257.5</ele><time>2026-04-04T10:59:17Z</time></trkpt><trkpt lat="42.70235277224331" lon="9.148934120642522"><ele>253.0</ele><time>2026-04-04T10:59:18Z</time></trkpt><trkpt lat="42.702216832874605" lon="9.148993157384478"><ele>252.99999999999997</ele><time>2026-04-04T10:59:19Z</time></trkpt><trkpt lat="42.70211631051715" lon="9.14903679459667"><ele>253.0</ele><time>2026-04-04T10:59:20Z</time></trkpt><trkpt lat="42.7020395436312" lon="9.149052922252718"><ele>253.0</ele><time>2026-04-04T10:59:21Z</time></trkpt><trkpt lat="42.70196192238433" lon="9.149039964174445"><ele>253.0</ele><time>2026-04-04T10:59:22Z</time></trkpt><trkpt lat="42.70186157804886" lon="9.14900084981462"><ele>252.99999999999997</ele><time>2026-04-04T10:59:23Z</time></trkpt><trkpt lat="42.70179578677294" lon="9.148968636607519"><ele>253.0</ele><time>2026-04-04T10:59:24Z</time></trkpt><trkpt lat="42.70176356221931" lon="9.14886194721821"><ele>252.8</ele><time>2026-04-04T10:59:26Z</time></trkpt><trkpt lat="42.70174068579957" lon="9.148761908609778"><ele>252.60000000000002</ele><time>2026-04-04T10:59:27Z</time></trkpt><trkpt lat="42.70170069232753" lon="9.148641407172285"><ele>252.39999999999998</ele><time>2026-04-04T10:59:29Z</time></trkpt><trkpt lat="42.70160471653806" lon="9.148598146861415"><ele>252.2</ele><time>2026-04-04T10:59:31Z</time></trkpt><trkpt lat="42.70148941722661" lon="9.148570015898168"><ele>252.0</ele><time>2026-04-04T10:59:33Z</time></trkpt><trkpt lat="42.70141520436609" lon="9.148553968970655"><ele>252.0</ele><time>2026-04-04T10:59:34Z</time></trkpt><trkpt lat="42.701339000599006" lon="9.148538889813628"><ele>252.0</ele><time>2026-04-04T10:59:35Z</time></trkpt><trkpt lat="42.70126960826633" lon="9.148529334303127"><ele>252.0</ele><time>2026-04-04T10:59:36Z</time></trkpt><trkpt lat="42.70116762413459" lon="9.148611570582313"><ele>252.0</ele><time>2026-04-04T10:59:38Z</time></trkpt><trkpt lat="42.70111759594345" lon="9.148730672645467"><ele>252.0</ele><time>2026-04-04T10:59:40Z</time></trkpt><trkpt lat="42.70110032061618" lon="9.14886740063038"><ele>252.0</ele><time>2026-04-04T10:59:42Z</time></trkpt><trkpt lat="42.70109016535866" lon="9.148960276435472"><ele>252.0</ele><time>2026-04-04T10:59:43Z</time></trkpt><trkpt lat="42.70103695601519" lon="9.149073875532054"><ele>252.0</ele><time>2026-04-04T10:59:45Z</time></trkpt><trkpt lat="42.700919424006464" lon="9.149144775154591"><ele>252.0</ele><time>2026-04-04T10:59:47Z</time></trkpt><trkpt lat="42.700835892732314" lon="9.14925401522263"><ele>252.0</ele><time>2026-04-04T10:59:49Z</time></trkpt><trkpt lat="42.70077633801095" lon="9.149295064585948"><ele>253.83333333333334</ele><time>2026-04-04T10:59:50Z</time></trkpt><trkpt lat="42.700705182340876" lon="9.149317831534146"><ele>255.66666666666669</ele><time>2026-04-04T10:59:51Z</time></trkpt><trkpt lat="42.70062822985155" lon="9.149338576198677"><ele>257.5</ele><time>2026-04-04T10:59:52Z</time></trkpt><trkpt lat="42.70055243061354" lon="9.149354042535922"><ele>259.33333333333337</ele><time>2026-04-04T10:59:53Z</time></trkpt><trkpt lat="42.70048034097115" lon="9.149353748057164"><ele>261.1666666666667</ele><time>2026-04-04T10:59:54Z</time></trkpt><trkpt lat="42.7003714171386" lon="9.149365601377292"><ele>263.0</ele><time>2026-04-04T10:59:56Z</time></trkpt><trkpt lat="42.70030880741217" lon="9.149416703124723"><ele>264.33333333333337</ele><time>2026-04-04T10:59:57Z</time></trkpt><trkpt lat="42.70024931999447" lon="9.149469734376067"><ele>265.6666666666667</ele><time>2026-04-04T10:59:58Z</time></trkpt><trkpt lat="42.70020436871272" lon="9.149530929763598"><ele>267.0</ele><time>2026-04-04T10:59:59Z</time></trkpt><trkpt lat="42.70016081979169" lon="9.14961600210111"><ele>268.3333333333333</ele><time>2026-04-04T11:00:00Z</time></trkpt><trkpt lat="42.70012503691992" lon="9.149687025360766"><ele>269.66666666666663</ele><time>2026-04-04T11:00:01Z</time></trkpt><trkpt lat="42.70002092009102" lon="9.149732379089471"><ele>271.0</ele><time>2026-04-04T11:00:03Z</time></trkpt><trkpt lat="42.69994685811169" lon="9.149610958985626"><ele>271.0</ele><time>2026-04-04T11:00:05Z</time></trkpt><trkpt lat="42.6999491142817" lon="9.149520648342472"><ele>271.0</ele><time>2026-04-04T11:00:06Z</time></trkpt><trkpt lat="42.699968485345195" lon="9.14943411438934"><ele>271.0</ele><time>2026-04-04T11:00:07Z</time></trkpt><trkpt lat="42.700008124218776" lon="9.149332861314242"><ele>271.0</ele><time>2026-04-04T11:00:08Z</time></trkpt><trkpt lat="42.70005894550516" lon="9.149177344681732"><ele>271.0</ele><time>2026-04-04T11:00:09Z</time></trkpt><trkpt lat="42.70007835824434" lon="9.14905862784036"><ele>271.0</ele><time>2026-04-04T11:00:10Z</time></trkpt><trkpt lat="42.70006446839904" lon="9.148952994960663"><ele>269.6</ele><time>2026-04-04T11:00:12Z</time></trkpt><trkpt lat="42.70002175226847" lon="9.148876574611037"><ele>268.20000000000005</ele><time>2026-04-04T11:00:13Z</time></trkpt><trkpt lat="42.69996693195957" lon="9.148812469230375"><ele>266.79999999999995</ele><time>2026-04-04T11:00:14Z</time></trkpt><trkpt lat="42.699879041526714" lon="9.148733293634043"><ele>265.4</ele><time>2026-04-04T11:00:15Z</time></trkpt><trkpt lat="42.69977555392539" lon="9.14863998024707"><ele>264.0</ele><time>2026-04-04T11:00:16Z</time></trkpt><trkpt lat="42.699676975396365" lon="9.148532956745298"><ele>264.0</ele><time>2026-04-04T11:00:17Z</time></trkpt><trkpt lat="42.6996125069538" lon="9.148459269985993"><ele>264.0</ele><time>2026-04-04T11:00:18Z</time></trkpt><trkpt lat="42.69955349739956" lon="9.14840205108123"><ele>264.0</ele><time>2026-04-04T11:00:19Z</time></trkpt><trkpt lat="42.69950063315334" lon="9.148346276396905"><ele>264.0</ele><time>2026-04-04T11:00:20Z</time></trkpt><trkpt lat="42.69945342744848" lon="9.148286377416373"><ele>264.0</ele><time>2026-04-04T11:00:21Z</time></trkpt><trkpt lat="42.6993979894768" lon="9.148222148546784"><ele>264.0</ele><time>2026-04-04T11:00:22Z</time></trkpt><trkpt lat="42.69932261462759" lon="9.148103305103405"><ele>264.8</ele><time>2026-04-04T11:00:24Z</time></trkpt><trkpt lat="42.69925554294731" lon="9.14801652388984"><ele>265.59999999999997</ele><time>2026-04-04T11:00:26Z</time></trkpt><trkpt lat="42.699150632697254" lon="9.148029104888906"><ele>266.4</ele><time>2026-04-04T11:00:28Z</time></trkpt><trkpt lat="42.69904414080069" lon="9.14801517011974"><ele>267.2</ele><time>2026-04-04T11:00:30Z</time></trkpt><trkpt lat="42.698925705655526" lon="9.148091471130751"><ele>268.0</ele><time>2026-04-04T11:00:32Z</time></trkpt><trkpt lat="42.698834799043006" lon="9.148154000182965"><ele>268.0</ele><time>2026-04-04T11:00:33Z</time></trkpt><trkpt lat="42.698742863340954" lon="9.148193241018822"><ele>268.0</ele><time>2026-04-04T11:00:34Z</time></trkpt><trkpt lat="42.698649853621035" lon="9.148213180696814"><ele>268.0</ele><time>2026-04-04T11:00:35Z</time></trkpt><trkpt lat="42.698568430673205" lon="9.14821774704085"><ele>268.0</ele><time>2026-04-04T11:00:36Z</time></trkpt><trkpt lat="42.698472306277374" lon="9.148223995252646"><ele>268.0</ele><time>2026-04-04T11:00:37Z</time></trkpt><trkpt lat="42.69839536512024" lon="9.148234275379568"><ele>268.0</ele><time>2026-04-04T11:00:38Z</time></trkpt><trkpt lat="42.69831250809324" lon="9.148255835355132"><ele>271.0</ele><time>2026-04-04T11:00:39Z</time></trkpt><trkpt lat="42.698235533046194" lon="9.148272810960876"><ele>274.0</ele><time>2026-04-04T11:00:40Z</time></trkpt><trkpt lat="42.698167765107705" lon="9.148297555621577"><ele>277.0</ele><time>2026-04-04T11:00:41Z</time></trkpt><trkpt lat="42.69811535513776" lon="9.14835361166108"><ele>280.0</ele><time>2026-04-04T11:00:42Z</time></trkpt><trkpt lat="42.698073433922865" lon="9.148439163069988"><ele>283.0</ele><time>2026-04-04T11:00:43Z</time></trkpt><trkpt lat="42.69804739711768" lon="9.148549723993664"><ele>286.0</ele><time>2026-04-04T11:00:44Z</time></trkpt><trkpt lat="42.69803569279563" lon="9.148661548923979"><ele>286.0</ele><time>2026-04-04T11:00:45Z</time></trkpt><trkpt lat="42.69802520281257" lon="9.148780695887917"><ele>286.0</ele><time>2026-04-04T11:00:46Z</time></trkpt><trkpt lat="42.698016038522866" lon="9.148908756065984"><ele>286.0</ele><time>2026-04-04T11:00:47Z</time></trkpt><trkpt lat="42.6980187143567" lon="9.149034703883054"><ele>286.0</ele><time>2026-04-04T11:00:48Z</time></trkpt><trkpt lat="42.69801012689396" lon="9.149155888287178"><ele>286.0</ele><time>2026-04-04T11:00:49Z</time></trkpt><trkpt lat="42.697986692756146" lon="9.149269073457901"><ele>288.40000000000003</ele><time>2026-04-04T11:00:50Z</time></trkpt><trkpt lat="42.69796348442645" lon="9.149383655946195"><ele>290.8</ele><time>2026-04-04T11:00:51Z</time></trkpt><trkpt lat="42.69795736943255" lon="9.149518293143164"><ele>293.20000000000005</ele><time>2026-04-04T11:00:52Z</time></trkpt><trkpt lat="42.69795423107331" lon="9.149658956988054"><ele>295.6</ele><time>2026-04-04T11:00:53Z</time></trkpt><trkpt lat="42.69794933059149" lon="9.149757651538474"><ele>298.0</ele><time>2026-04-04T11:00:54Z</time></trkpt><trkpt lat="42.697925324103025" lon="9.149892644792413"><ele>298.3333333333333</ele><time>2026-04-04T11:00:56Z</time></trkpt><trkpt lat="42.69787184367349" lon="9.149961196537225"><ele>298.66666666666663</ele><time>2026-04-04T11:01:00Z</time></trkpt><trkpt lat="42.69778420222129" lon="9.150025077085969"><ele>299.0</ele><time>2026-04-04T11:01:01Z</time></trkpt><trkpt lat="42.69767993901235" lon="9.150072648040057"><ele>299.3333333333333</ele><time>2026-04-04T11:01:02Z</time></trkpt><trkpt lat="42.69761354733851" lon="9.150108948632306"><ele>299.6666666666667</ele><time>2026-04-04T11:01:03Z</time></trkpt><trkpt lat="42.69753614805026" lon="9.150182042650597"><ele>300.0</ele><time>2026-04-04T11:01:05Z</time></trkpt><trkpt lat="42.697489344482236" lon="9.150245639267261"><ele>300.0</ele><time>2026-04-04T11:01:06Z</time></trkpt><trkpt lat="42.69743841518302" lon="9.150310529010756"><ele>300.0</ele><time>2026-04-04T11:01:07Z</time></trkpt><trkpt lat="42.69737163258088" lon="9.150366850434898"><ele>300.0</ele><time>2026-04-04T11:01:08Z</time></trkpt><trkpt lat="42.6972908902693" lon="9.150402472047183"><ele>300.0</ele><time>2026-04-04T11:01:09Z</time></trkpt><trkpt lat="42.697215118554986" lon="9.150429982086866"><ele>300.0</ele><time>2026-04-04T11:01:10Z</time></trkpt><trkpt lat="42.69713460652284" lon="9.150450262322199"><ele>300.0</ele><time>2026-04-04T11:01:11Z</time></trkpt><trkpt lat="42.69706983591138" lon="9.15045213869624"><ele>300.0</ele><time>2026-04-04T11:01:12Z</time></trkpt><trkpt lat="42.696979883631975" lon="9.15042018840104"><ele>300.0</ele><time>2026-04-04T11:01:14Z</time></trkpt><trkpt lat="42.696859978952666" lon="9.150340178871751"><ele>300.0</ele><time>2026-04-04T11:01:16Z</time></trkpt><trkpt lat="42.69678098491989" lon="9.15031710466584"><ele>300.0</ele><time>2026-04-04T11:01:17Z</time></trkpt><trkpt lat="42.69669204098523" lon="9.150311567089199"><ele>300.0</ele><time>2026-04-04T11:01:18.001Z</time></trkpt><trkpt lat="42.69660273544581" lon="9.150328297858534"><ele>300.5</ele><time>2026-04-04T11:01:19.001Z</time></trkpt><trkpt lat="42.696519412668785" lon="9.150354834377719"><ele>301.0</ele><time>2026-04-04T11:01:20.001Z</time></trkpt><trkpt lat="42.69644677717032" lon="9.150356708612948"><ele>301.5</ele><time>2026-04-04T11:01:21.001Z</time></trkpt><trkpt lat="42.696376405127964" lon="9.150331421290932"><ele>302.0</ele><time>2026-04-04T11:01:22.001Z</time></trkpt><trkpt lat="42.69631132518615" lon="9.150281743491334"><ele>302.5</ele><time>2026-04-04T11:01:23.001Z</time></trkpt><trkpt lat="42.69625778129879" lon="9.150209145207562"><ele>303.0</ele><time>2026-04-04T11:01:24.001Z</time></trkpt><trkpt lat="42.69621111274308" lon="9.150121028440386"><ele>303.0</ele><time>2026-04-04T11:01:25.001Z</time></trkpt><trkpt lat="42.69615866725009" lon="9.150035762231289"><ele>303.0</ele><time>2026-04-04T11:01:26.001Z</time></trkpt><trkpt lat="42.696091999698794" lon="9.149932999546367"><ele>303.0</ele><time>2026-04-04T11:01:28.001Z</time></trkpt><trkpt lat="42.695997459205586" lon="9.149801325727049"><ele>303.0</ele><time>2026-04-04T11:01:30.001Z</time></trkpt><trkpt lat="42.69593534237256" lon="9.149721980458356"><ele>303.0</ele><time>2026-04-04T11:01:32.001Z</time></trkpt><trkpt lat="42.69587421531883" lon="9.149668522322948"><ele>304.0</ele><time>2026-04-04T11:01:34.001Z</time></trkpt><trkpt lat="42.69579521840379" lon="9.149578767981374"><ele>305.0</ele><time>2026-04-04T11:01:36.001Z</time></trkpt><trkpt lat="42.695714248605036" lon="9.149511297802475"><ele>306.0</ele><time>2026-04-04T11:01:38.001Z</time></trkpt><trkpt lat="42.69563151581026" lon="9.149481662148107"><ele>307.0</ele><time>2026-04-04T11:01:39.001Z</time></trkpt><trkpt lat="42.6955639332719" lon="9.149438733915757"><ele>308.0</ele><time>2026-04-04T11:01:40.001Z</time></trkpt><trkpt lat="42.695510121654635" lon="9.149384278054129"><ele>309.0</ele><time>2026-04-04T11:01:41.001Z</time></trkpt><trkpt lat="42.69544137980074" lon="9.149349984547086"><ele>309.0</ele><time>2026-04-04T11:01:42.001Z</time></trkpt><trkpt lat="42.695368776569474" lon="9.149323321449488"><ele>309.0</ele><time>2026-04-04T11:01:43.001Z</time></trkpt><trkpt lat="42.695291177900536" lon="9.149274982472324"><ele>309.0</ele><time>2026-04-04T11:01:44.001Z</time></trkpt><trkpt lat="42.695222456210026" lon="9.14921504185377"><ele>309.0</ele><time>2026-04-04T11:01:45.001Z</time></trkpt><trkpt lat="42.695154757229574" lon="9.149151029847"><ele>309.0</ele><time>2026-04-04T11:01:46.001Z</time></trkpt><trkpt lat="42.695098678486204" lon="9.149079277352849"><ele>309.0</ele><time>2026-04-04T11:01:47.001Z</time></trkpt><trkpt lat="42.695049466758256" lon="9.14900263981358"><ele>309.8</ele><time>2026-04-04T11:01:48.001Z</time></trkpt><trkpt lat="42.69492623867418" lon="9.148953573428843"><ele>310.59999999999997</ele><time>2026-04-04T11:01:50.001Z</time></trkpt><trkpt lat="42.69484846793322" lon="9.1489838431266"><ele>311.4</ele><time>2026-04-04T11:01:51.001Z</time></trkpt><trkpt lat="42.694756147398074" lon="9.14903222957599"><ele>312.2</ele><time>2026-04-04T11:01:52.001Z</time></trkpt><trkpt lat="42.69468249398798" lon="9.149087780147182"><ele>313.0</ele><time>2026-04-04T11:01:53Z</time></trkpt><trkpt lat="42.69461448265752" lon="9.149117596335353"><ele>314.8</ele><time>2026-04-04T11:01:54Z</time></trkpt><trkpt lat="42.694530107403466" lon="9.149112576500144"><ele>316.6</ele><time>2026-04-04T11:01:55Z</time></trkpt><trkpt lat="42.69442889682432" lon="9.14908151256646"><ele>318.40000000000003</ele><time>2026-04-04T11:01:56Z</time></trkpt><trkpt lat="42.694311680070626" lon="9.149012940407136"><ele>320.20000000000005</ele><time>2026-04-04T11:01:57Z</time></trkpt><trkpt lat="42.69421893511629" lon="9.148959354910664"><ele>322.0</ele><time>2026-04-04T11:01:58Z</time></trkpt><trkpt lat="42.6941493316903" lon="9.148924816473285"><ele>322.66666666666663</ele><time>2026-04-04T11:01:59Z</time></trkpt><trkpt lat="42.69408467358974" lon="9.148870951765927"><ele>323.3333333333333</ele><time>2026-04-04T11:02:00Z</time></trkpt><trkpt lat="42.694036300381455" lon="9.148796836133473"><ele>324.0</ele><time>2026-04-04T11:02:01Z</time></trkpt><trkpt lat="42.69397723619516" lon="9.148719532737875"><ele>324.6666666666667</ele><time>2026-04-04T11:02:02Z</time></trkpt><trkpt lat="42.69390968305381" lon="9.148659558295392"><ele>325.33333333333337</ele><time>2026-04-04T11:02:03Z</time></trkpt><trkpt lat="42.69378517173297" lon="9.148604123260196"><ele>326.0</ele><time>2026-04-04T11:02:05Z</time></trkpt><trkpt lat="42.693717810579194" lon="9.148552762580453"><ele>326.0</ele><time>2026-04-04T11:02:06Z</time></trkpt><trkpt lat="42.6936440535053" lon="9.14847735607743"><ele>326.0</ele><time>2026-04-04T11:02:07Z</time></trkpt><trkpt lat="42.693556294969554" lon="9.148439593669961"><ele>326.0</ele><time>2026-04-04T11:02:08Z</time></trkpt><trkpt lat="42.69347442367335" lon="9.148393573129466"><ele>326.0</ele><time>2026-04-04T11:02:09Z</time></trkpt><trkpt lat="42.693415689769154" lon="9.148348887588872"><ele>326.0</ele><time>2026-04-04T11:02:11Z</time></trkpt><trkpt lat="42.693333514896665" lon="9.148284963497602"><ele>326.0</ele><time>2026-04-04T11:02:13Z</time></trkpt><trkpt lat="42.693231838129826" lon="9.148225311602394"><ele>327.25</ele><time>2026-04-04T11:02:15Z</time></trkpt><trkpt lat="42.69320354755564" lon="9.14813604293448"><ele>328.5</ele><time>2026-04-04T11:02:16Z</time></trkpt><trkpt lat="42.69318394297984" lon="9.148001732501843"><ele>329.75</ele><time>2026-04-04T11:02:17Z</time></trkpt><trkpt lat="42.69316878083603" lon="9.147803090902217"><ele>331.0</ele><time>2026-04-04T11:02:18Z</time></trkpt><trkpt lat="42.69315646315167" lon="9.147591075272235"><ele>331.0</ele><time>2026-04-04T11:02:19Z</time></trkpt><trkpt lat="42.693132891139754" lon="9.14743097681063"><ele>331.0</ele><time>2026-04-04T11:02:20Z</time></trkpt><trkpt lat="42.69312109250161" lon="9.14733496380787"><ele>331.0</ele><time>2026-04-04T11:02:21Z</time></trkpt><trkpt lat="42.69311102531161" lon="9.147180842537075"><ele>331.0</ele><time>2026-04-04T11:02:23Z</time></trkpt><trkpt lat="42.693125648529225" lon="9.147090562631762"><ele>331.0</ele><time>2026-04-04T11:02:24Z</time></trkpt><trkpt lat="42.693114059521236" lon="9.1469177291343"><ele>331.8</ele><time>2026-04-04T11:02:26Z</time></trkpt><trkpt lat="42.6931035308473" lon="9.14680778308822"><ele>332.6</ele><time>2026-04-04T11:02:27Z</time></trkpt><trkpt lat="42.69311005228479" lon="9.146687343605164"><ele>333.4</ele><time>2026-04-04T11:02:28Z</time></trkpt><trkpt lat="42.69312320075371" lon="9.146545348734525"><ele>334.2</ele><time>2026-04-04T11:02:29Z</time></trkpt><trkpt lat="42.693119475998465" lon="9.146420188731991"><ele>335.0</ele><time>2026-04-04T11:02:30Z</time></trkpt><trkpt lat="42.69310033757591" lon="9.146291315374064"><ele>336.0</ele><time>2026-04-04T11:02:31Z</time></trkpt><trkpt lat="42.69306174474787" lon="9.146152961277934"><ele>337.0</ele><time>2026-04-04T11:02:32Z</time></trkpt><trkpt lat="42.693006141631365" lon="9.145996577555403"><ele>338.0</ele><time>2026-04-04T11:02:33Z</time></trkpt><trkpt lat="42.69294637758451" lon="9.145848253164914"><ele>339.0</ele><time>2026-04-04T11:02:34Z</time></trkpt><trkpt lat="42.69290407333571" lon="9.145709551261946"><ele>339.0</ele><time>2026-04-04T11:02:35Z</time></trkpt><trkpt lat="42.69287493111118" lon="9.14559432284625"><ele>339.0</ele><time>2026-04-04T11:02:36Z</time></trkpt><trkpt lat="42.69285475824088" lon="9.145494306184265"><ele>339.0</ele><time>2026-04-04T11:02:37Z</time></trkpt><trkpt lat="42.69283487932082" lon="9.145370876629585"><ele>339.0</ele><time>2026-04-04T11:02:38Z</time></trkpt><trkpt lat="42.692828995171666" lon="9.145244722023802"><ele>339.0</ele><time>2026-04-04T11:02:39Z</time></trkpt><trkpt lat="42.69280986594048" lon="9.145107922488137"><ele>339.0</ele><time>2026-04-04T11:02:40Z</time></trkpt><trkpt lat="42.692804194881624" lon="9.144988826542535"><ele>339.0</ele><time>2026-04-04T11:02:41Z</time></trkpt><trkpt lat="42.69280214353677" lon="9.144874126958895"><ele>339.0</ele><time>2026-04-04T11:02:42Z</time></trkpt><trkpt lat="42.692786515189226" lon="9.144747356761183"><ele>339.0</ele><time>2026-04-04T11:02:43Z</time></trkpt><trkpt lat="42.69274879922193" lon="9.144609349394543"><ele>339.0</ele><time>2026-04-04T11:02:44Z</time></trkpt><trkpt lat="42.692712833976955" lon="9.144480979309463"><ele>339.5</ele><time>2026-04-04T11:02:45Z</time></trkpt><trkpt lat="42.69269204064524" lon="9.144375200871105"><ele>340.0</ele><time>2026-04-04T11:02:46Z</time></trkpt><trkpt lat="42.692670634720926" lon="9.14426510170469"><ele>340.5</ele><time>2026-04-04T11:02:47Z</time></trkpt><trkpt lat="42.692638113124254" lon="9.144148484615643"><ele>341.0</ele><time>2026-04-04T11:02:48Z</time></trkpt><trkpt lat="42.69260876071505" lon="9.144039710065456"><ele>341.5</ele><time>2026-04-04T11:02:49Z</time></trkpt><trkpt lat="42.692594917330915" lon="9.143936961897598"><ele>342.0</ele><time>2026-04-04T11:02:50Z</time></trkpt><trkpt lat="42.692582486911036" lon="9.143834539379078"><ele>342.0</ele><time>2026-04-04T11:02:51Z</time></trkpt><trkpt lat="42.692562529738595" lon="9.143723806491874"><ele>342.0</ele><time>2026-04-04T11:02:52Z</time></trkpt><trkpt lat="42.692532794818746" lon="9.143611352899951"><ele>342.0</ele><time>2026-04-04T11:02:53Z</time></trkpt><trkpt lat="42.69250388798491" lon="9.143491475882843"><ele>342.0</ele><time>2026-04-04T11:02:54Z</time></trkpt><trkpt lat="42.692491453735364" lon="9.143362553015766"><ele>342.0</ele><time>2026-04-04T11:02:55Z</time></trkpt><trkpt lat="42.69248498078195" lon="9.143275958772485"><ele>342.0</ele><time>2026-04-04T11:02:56Z</time></trkpt><trkpt lat="42.69246470300932" lon="9.143178968574924"><ele>342.0</ele><time>2026-04-04T11:02:57Z</time></trkpt><trkpt lat="42.692442355422855" lon="9.143086582628701"><ele>342.0</ele><time>2026-04-04T11:02:58Z</time></trkpt><trkpt lat="42.69242708977448" lon="9.143001270699745"><ele>342.0</ele><time>2026-04-04T11:02:59Z</time></trkpt><trkpt lat="42.692423039033685" lon="9.142914063346717"><ele>342.0</ele><time>2026-04-04T11:03:00Z</time></trkpt><trkpt lat="42.69241869987137" lon="9.142824511085548"><ele>342.0</ele><time>2026-04-04T11:03:01Z</time></trkpt><trkpt lat="42.692393265665366" lon="9.142710025846274"><ele>342.0</ele><time>2026-04-04T11:03:02Z</time></trkpt><trkpt lat="42.69236971380423" lon="9.142581695935531"><ele>342.0</ele><time>2026-04-04T11:03:03Z</time></trkpt><trkpt lat="42.69233673850624" lon="9.142432584817634"><ele>342.0</ele><time>2026-04-04T11:03:04Z</time></trkpt><trkpt lat="42.692311484142294" lon="9.142310108993454"><ele>342.0</ele><time>2026-04-04T11:03:05Z</time></trkpt><trkpt lat="42.69229283343505" lon="9.14221908003772"><ele>342.0</ele><time>2026-04-04T11:03:06Z</time></trkpt><trkpt lat="42.69225940060722" lon="9.142048331864139"><ele>342.0</ele><time>2026-04-04T11:03:08Z</time></trkpt><trkpt lat="42.69223549659783" lon="9.14194607659079"><ele>343.1666666666667</ele><time>2026-04-04T11:03:09Z</time></trkpt><trkpt lat="42.69219216116579" lon="9.141855586940206"><ele>344.3333333333333</ele><time>2026-04-04T11:03:10Z</time></trkpt><trkpt lat="42.69213299129626" lon="9.141766385570818"><ele>345.5</ele><time>2026-04-04T11:03:11Z</time></trkpt><trkpt lat="42.692083656986576" lon="9.141668521184325"><ele>346.66666666666663</ele><time>2026-04-04T11:03:12Z</time></trkpt><trkpt lat="42.69204857649331" lon="9.141551322147508"><ele>347.8333333333333</ele><time>2026-04-04T11:03:13Z</time></trkpt><trkpt lat="42.69200332411267" lon="9.141432538886104"><ele>349.0</ele><time>2026-04-04T11:03:14Z</time></trkpt><trkpt lat="42.6919506066248" lon="9.1413045164046"><ele>348.0</ele><time>2026-04-04T11:03:15Z</time></trkpt><trkpt lat="42.691905684421464" lon="9.141192839222155"><ele>347.0</ele><time>2026-04-04T11:03:16Z</time></trkpt><trkpt lat="42.691852149196976" lon="9.14108750758454"><ele>346.0</ele><time>2026-04-04T11:03:17Z</time></trkpt><trkpt lat="42.691782735207475" lon="9.140960331631232"><ele>345.0</ele><time>2026-04-04T11:03:18Z</time></trkpt><trkpt lat="42.69171652849551" lon="9.140851851095517"><ele>344.0</ele><time>2026-04-04T11:03:19Z</time></trkpt><trkpt lat="42.691654969752896" lon="9.1407611765775"><ele>344.79999999999995</ele><time>2026-04-04T11:03:20Z</time></trkpt><trkpt lat="42.691601174855734" lon="9.140689642197174"><ele>345.59999999999997</ele><time>2026-04-04T11:03:21Z</time></trkpt><trkpt lat="42.69156203576106" lon="9.140601189349645"><ele>346.4</ele><time>2026-04-04T11:03:22Z</time></trkpt><trkpt lat="42.69150533629695" lon="9.140460508727461"><ele>347.2</ele><time>2026-04-04T11:03:24Z</time></trkpt><trkpt lat="42.69143931683182" lon="9.140323160131656"><ele>348.0</ele><time>2026-04-04T11:03:26Z</time></trkpt><trkpt lat="42.69138153949139" lon="9.140214569543662"><ele>348.0</ele><time>2026-04-04T11:03:28Z</time></trkpt><trkpt lat="42.6913057896683" lon="9.140081805657545"><ele>348.0</ele><time>2026-04-04T11:03:30Z</time></trkpt><trkpt lat="42.69127177287831" lon="9.140006321081795"><ele>348.0</ele><time>2026-04-04T11:03:31Z</time></trkpt><trkpt lat="42.69119994033879" lon="9.13989648802482"><ele>348.0</ele><time>2026-04-04T11:03:33Z</time></trkpt><trkpt lat="42.69113738160192" lon="9.13980009575719"><ele>348.0</ele><time>2026-04-04T11:03:35Z</time></trkpt><trkpt lat="42.69105038302217" lon="9.139711112279496"><ele>346.4</ele><time>2026-04-04T11:03:37Z</time></trkpt><trkpt lat="42.69095789687183" lon="9.139710543181511"><ele>344.79999999999995</ele><time>2026-04-04T11:03:39Z</time></trkpt><trkpt lat="42.69087364106077" lon="9.139710738074283"><ele>343.2</ele><time>2026-04-04T11:03:41Z</time></trkpt><trkpt lat="42.69077639443655" lon="9.139664211410668"><ele>341.6</ele><time>2026-04-04T11:03:43Z</time></trkpt><trkpt lat="42.69068736712162" lon="9.13962948364611"><ele>340.0</ele><time>2026-04-04T11:03:45Z</time></trkpt><trkpt lat="42.690573452409275" lon="9.139572041681914"><ele>340.0</ele><time>2026-04-04T11:03:47Z</time></trkpt><trkpt lat="42.69048529687722" lon="9.139546128559859"><ele>340.0</ele><time>2026-04-04T11:03:48Z</time></trkpt><trkpt lat="42.69041711619216" lon="9.139519361985109"><ele>340.0</ele><time>2026-04-04T11:03:49Z</time></trkpt><trkpt lat="42.690348048561546" lon="9.139471364562006"><ele>340.0</ele><time>2026-04-04T11:03:50Z</time></trkpt><trkpt lat="42.69028300768174" lon="9.139418090870812"><ele>340.0</ele><time>2026-04-04T11:03:51Z</time></trkpt><trkpt lat="42.69021545217131" lon="9.139381143776717"><ele>340.0</ele><time>2026-04-04T11:03:52Z</time></trkpt><trkpt lat="42.690138377564026" lon="9.139368276512249"><ele>339.5</ele><time>2026-04-04T11:03:53Z</time></trkpt><trkpt lat="42.69006597073333" lon="9.139385340166063"><ele>339.0</ele><time>2026-04-04T11:03:54Z</time></trkpt><trkpt lat="42.689996989189936" lon="9.139412894787524"><ele>338.5</ele><time>2026-04-04T11:03:56Z</time></trkpt><trkpt lat="42.68992464769451" lon="9.139478177290991"><ele>338.0</ele><time>2026-04-04T11:03:58Z</time></trkpt><trkpt lat="42.689883213097694" lon="9.139552417338757"><ele>337.5</ele><time>2026-04-04T11:03:59Z</time></trkpt><trkpt lat="42.68983037481571" lon="9.139647494041059"><ele>337.0</ele><time>2026-04-04T11:04:00Z</time></trkpt><trkpt lat="42.68977495143293" lon="9.139733911354485"><ele>337.0</ele><time>2026-04-04T11:04:01Z</time></trkpt><trkpt lat="42.68972291105816" lon="9.139806481412576"><ele>337.0</ele><time>2026-04-04T11:04:02Z</time></trkpt><trkpt lat="42.689682634829296" lon="9.139874902874807"><ele>337.0</ele><time>2026-04-04T11:04:03Z</time></trkpt><trkpt lat="42.68962376659305" lon="9.139945123175128"><ele>337.0</ele><time>2026-04-04T11:04:04Z</time></trkpt><trkpt lat="42.68956208822455" lon="9.140016647451107"><ele>337.0</ele><time>2026-04-04T11:04:05Z</time></trkpt><trkpt lat="42.68949055796517" lon="9.140078291587772"><ele>337.0</ele><time>2026-04-04T11:04:06Z</time></trkpt><trkpt lat="42.689427418457186" lon="9.1401096880122"><ele>335.8</ele><time>2026-04-04T11:04:07Z</time></trkpt><trkpt lat="42.68930917086492" lon="9.140145736312926"><ele>334.6</ele><time>2026-04-04T11:04:09Z</time></trkpt><trkpt lat="42.6892504309978" lon="9.140181486498111"><ele>333.40000000000003</ele><time>2026-04-04T11:04:12Z</time></trkpt><trkpt lat="42.68917279920883" lon="9.140179356707185"><ele>332.20000000000005</ele><time>2026-04-04T11:09:15Z</time></trkpt><trkpt lat="42.68904938985953" lon="9.140144016452993"><ele>331.0</ele><time>2026-04-04T11:09:17Z</time></trkpt><trkpt lat="42.688976484236235" lon="9.140114335765295"><ele>331.0</ele><time>2026-04-04T11:09:18Z</time></trkpt><trkpt lat="42.688897400854856" lon="9.140073658710042"><ele>331.0</ele><time>2026-04-04T11:09:19Z</time></trkpt><trkpt lat="42.68883380252826" lon="9.139957935577538"><ele>331.0</ele><time>2026-04-04T11:09:20Z</time></trkpt><trkpt lat="42.68872181825938" lon="9.139958236023494"><ele>331.0</ele><time>2026-04-04T11:09:21Z</time></trkpt><trkpt lat="42.688631543536445" lon="9.13989991340995"><ele>331.0</ele><time>2026-04-04T11:09:22Z</time></trkpt><trkpt lat="42.6885464731588" lon="9.139856524357874"><ele>331.3333333333333</ele><time>2026-04-04T11:09:23Z</time></trkpt><trkpt lat="42.688479001266" lon="9.139815415584733"><ele>331.66666666666663</ele><time>2026-04-04T11:09:24Z</time></trkpt><trkpt lat="42.68841804982085" lon="9.13977392111631"><ele>332.0</ele><time>2026-04-04T11:09:25Z</time></trkpt><trkpt lat="42.688324012369726" lon="9.139709618172219"><ele>332.3333333333333</ele><time>2026-04-04T11:09:27Z</time></trkpt><trkpt lat="42.6882585102529" lon="9.139696022562553"><ele>332.6666666666667</ele><time>2026-04-04T11:09:31Z</time></trkpt><trkpt lat="42.68818309057701" lon="9.13965485992404"><ele>333.0</ele><time>2026-04-04T11:09:33Z</time></trkpt><trkpt lat="42.688106758545544" lon="9.139641488324745"><ele>333.0</ele><time>2026-04-04T11:09:34Z</time></trkpt><trkpt lat="42.68801850365086" lon="9.139615238643216"><ele>333.0</ele><time>2026-04-04T11:09:36Z</time></trkpt><trkpt lat="42.68794723124304" lon="9.139538497961574"><ele>333.0</ele><time>2026-04-04T11:09:38Z</time></trkpt><trkpt lat="42.68788084540644" lon="9.139497082792634"><ele>333.0</ele><time>2026-04-04T11:09:39Z</time></trkpt><trkpt lat="42.68779698812416" lon="9.13943796846652"><ele>333.0</ele><time>2026-04-04T11:09:40Z</time></trkpt><trkpt lat="42.68771324786021" lon="9.139375700745026"><ele>333.0</ele><time>2026-04-04T11:09:41Z</time></trkpt><trkpt lat="42.687625981682785" lon="9.139315461270597"><ele>333.6666666666667</ele><time>2026-04-04T11:09:43Z</time></trkpt><trkpt lat="42.687551047990326" lon="9.139226123649564"><ele>334.3333333333333</ele><time>2026-04-04T11:09:45Z</time></trkpt><trkpt lat="42.68750348957783" lon="9.139155221041044"><ele>335.0</ele><time>2026-04-04T11:09:46Z</time></trkpt><trkpt lat="42.687448590101326" lon="9.139085156348722"><ele>335.66666666666663</ele><time>2026-04-04T11:09:47Z</time></trkpt><trkpt lat="42.68740098203403" lon="9.139018830734475"><ele>336.3333333333333</ele><time>2026-04-04T11:09:48Z</time></trkpt><trkpt lat="42.68734946187258" lon="9.138945362503115"><ele>337.0</ele><time>2026-04-04T11:09:49Z</time></trkpt><trkpt lat="42.68726555977573" lon="9.138810836175896"><ele>337.0</ele><time>2026-04-04T11:09:50Z</time></trkpt><trkpt lat="42.687182742518594" lon="9.13869205946241"><ele>337.0</ele><time>2026-04-04T11:09:51Z</time></trkpt><trkpt lat="42.687150165638485" lon="9.138600287579846"><ele>337.0</ele><time>2026-04-04T11:09:52Z</time></trkpt><trkpt lat="42.68705811689807" lon="9.138449289771215"><ele>337.0</ele><time>2026-04-04T11:09:54Z</time></trkpt><trkpt lat="42.68699817409853" lon="9.13835449433554"><ele>337.0</ele><time>2026-04-04T11:09:55Z</time></trkpt><trkpt lat="42.68694254458527" lon="9.138255852372925"><ele>337.20000000000005</ele><time>2026-04-04T11:09:56Z</time></trkpt><trkpt lat="42.686873394602344" lon="9.138159369756885"><ele>337.4</ele><time>2026-04-04T11:09:57Z</time></trkpt><trkpt lat="42.68679108807498" lon="9.138071144266172"><ele>337.6</ele><time>2026-04-04T11:09:58Z</time></trkpt><trkpt lat="42.686702294260556" lon="9.138008703393382"><ele>337.79999999999995</ele><time>2026-04-04T11:09:59Z</time></trkpt><trkpt lat="42.68661232222432" lon="9.137960507547046"><ele>338.0</ele><time>2026-04-04T11:10:00Z</time></trkpt><trkpt lat="42.686514814277565" lon="9.137893413613122"><ele>338.0</ele><time>2026-04-04T11:10:01Z</time></trkpt><trkpt lat="42.6864426108009" lon="9.137849241917024"><ele>338.0</ele><time>2026-04-04T11:10:02Z</time></trkpt><trkpt lat="42.68638510457097" lon="9.137805714044347"><ele>338.0</ele><time>2026-04-04T11:10:03Z</time></trkpt><trkpt lat="42.68632594727027" lon="9.137746510544723"><ele>338.0</ele><time>2026-04-04T11:10:04Z</time></trkpt><trkpt lat="42.68623971788939" lon="9.137730939458685"><ele>338.0</ele><time>2026-04-04T11:10:05Z</time></trkpt><trkpt lat="42.68617888488497" lon="9.13766631822875"><ele>338.0</ele><time>2026-04-04T11:10:06Z</time></trkpt><trkpt lat="42.68611550782039" lon="9.137606851483076"><ele>337.14285714285717</ele><time>2026-04-04T11:10:07Z</time></trkpt><trkpt lat="42.68605233222004" lon="9.137539197386184"><ele>336.2857142857143</ele><time>2026-04-04T11:10:08Z</time></trkpt><trkpt lat="42.6859950378481" lon="9.137465913909939"><ele>335.42857142857144</ele><time>2026-04-04T11:10:09Z</time></trkpt><trkpt lat="42.68593964344547" lon="9.13740757794964"><ele>334.57142857142856</ele><time>2026-04-04T11:10:10Z</time></trkpt><trkpt lat="42.68587983040774" lon="9.13735631249891"><ele>333.7142857142857</ele><time>2026-04-04T11:10:11Z</time></trkpt><trkpt lat="42.68581990679" lon="9.137305848850607"><ele>332.85714285714283</ele><time>2026-04-04T11:10:12Z</time></trkpt><trkpt lat="42.68575439038565" lon="9.137270377383105"><ele>332.0</ele><time>2026-04-04T11:10:13Z</time></trkpt><trkpt lat="42.685682256302904" lon="9.137251592818892"><ele>332.0</ele><time>2026-04-04T11:10:14Z</time></trkpt><trkpt lat="42.68560492911868" lon="9.137237582749785"><ele>332.0</ele><time>2026-04-04T11:10:15Z</time></trkpt><trkpt lat="42.6855339621892" lon="9.137228854250973"><ele>332.0</ele><time>2026-04-04T11:10:16Z</time></trkpt><trkpt lat="42.68541685835376" lon="9.13717193707708"><ele>332.0</ele><time>2026-04-04T11:10:18Z</time></trkpt><trkpt lat="42.68536625835938" lon="9.137106531077777"><ele>332.0</ele><time>2026-04-04T11:10:19Z</time></trkpt><trkpt lat="42.68530439182397" lon="9.137018099942388"><ele>332.0</ele><time>2026-04-04T11:10:20Z</time></trkpt><trkpt lat="42.68524547898116" lon="9.136922709848655"><ele>327.0</ele><time>2026-04-04T11:10:21Z</time></trkpt><trkpt lat="42.685204923884434" lon="9.13685256033008"><ele>322.0</ele><time>2026-04-04T11:10:22Z</time></trkpt><trkpt lat="42.685163544389965" lon="9.136742778880537"><ele>317.0</ele><time>2026-04-04T11:10:24Z</time></trkpt><trkpt lat="42.68520181751229" lon="9.136558148026952"><ele>312.0</ele><time>2026-04-04T11:10:26Z</time></trkpt><trkpt lat="42.68522009131732" lon="9.136426665148274"><ele>307.0</ele><time>2026-04-04T11:10:27Z</time></trkpt><trkpt lat="42.685233188438666" lon="9.136282880570684"><ele>306.6</ele><time>2026-04-04T11:10:28Z</time></trkpt><trkpt lat="42.68524445701231" lon="9.136137332822917"><ele>306.2</ele><time>2026-04-04T11:10:29Z</time></trkpt><trkpt lat="42.68525025023979" lon="9.136011334722118"><ele>305.8</ele><time>2026-04-04T11:10:30Z</time></trkpt><trkpt lat="42.68525622648562" lon="9.13589215647798"><ele>305.4</ele><time>2026-04-04T11:10:31Z</time></trkpt><trkpt lat="42.68526236877008" lon="9.135770378017646"><ele>305.0</ele><time>2026-04-04T11:10:32Z</time></trkpt><trkpt lat="42.685276829335905" lon="9.135639842060066"><ele>308.5</ele><time>2026-04-04T11:10:33Z</time></trkpt><trkpt lat="42.68529334894372" lon="9.13551420070621"><ele>312.0</ele><time>2026-04-04T11:10:34Z</time></trkpt><trkpt lat="42.68531555873688" lon="9.13540465040513"><ele>315.5</ele><time>2026-04-04T11:10:35Z</time></trkpt><trkpt lat="42.68534667930299" lon="9.135303392356553"><ele>319.0</ele><time>2026-04-04T11:10:36Z</time></trkpt><trkpt lat="42.68538294585066" lon="9.135193743934549"><ele>322.5</ele><time>2026-04-04T11:10:37Z</time></trkpt><trkpt lat="42.68542236142441" lon="9.135091952678819"><ele>326.0</ele><time>2026-04-04T11:10:38Z</time></trkpt><trkpt lat="42.68543648446082" lon="9.134983537703464"><ele>326.0</ele><time>2026-04-04T11:10:40Z</time></trkpt><trkpt lat="42.68538167469934" lon="9.134893904148003"><ele>326.0</ele><time>2026-04-04T11:10:42Z</time></trkpt><trkpt lat="42.685314829569606" lon="9.134880858600699"><ele>326.0</ele><time>2026-04-04T11:10:44Z</time></trkpt><trkpt lat="42.685206846377795" lon="9.134977598861461"><ele>326.0</ele><time>2026-04-04T11:10:47Z</time></trkpt><trkpt lat="42.685151542646445" lon="9.135051925074217"><ele>326.0</ele><time>2026-04-04T11:10:48Z</time></trkpt><trkpt lat="42.685009820109535" lon="9.135150823802318"><ele>323.0</ele><time>2026-04-04T11:10:49Z</time></trkpt><trkpt lat="42.68488455542535" lon="9.13531048100654"><ele>320.0</ele><time>2026-04-04T11:10:50Z</time></trkpt><trkpt lat="42.684808329243566" lon="9.13539825006278"><ele>317.0</ele><time>2026-04-04T11:10:51Z</time></trkpt><trkpt lat="42.684720326025385" lon="9.13548263374021"><ele>314.0</ele><time>2026-04-04T11:10:53Z</time></trkpt><trkpt lat="42.68461519925205" lon="9.13553348161802"><ele>314.0</ele><time>2026-04-04T11:10:55Z</time></trkpt><trkpt lat="42.68451834393727" lon="9.13549006686929"><ele>314.0</ele><time>2026-04-04T11:10:57Z</time></trkpt><trkpt lat="42.68439217905517" lon="9.135461926428443"><ele>314.0</ele><time>2026-04-04T11:10:58Z</time></trkpt><trkpt lat="42.6842966873835" lon="9.135446010679455"><ele>314.0</ele><time>2026-04-04T11:10:59Z</time></trkpt><trkpt lat="42.684212812319906" lon="9.135438415483446"><ele>314.0</ele><time>2026-04-04T11:11:00Z</time></trkpt><trkpt lat="42.68414786749035" lon="9.135430802661954"><ele>314.1666666666667</ele><time>2026-04-04T11:11:01Z</time></trkpt><trkpt lat="42.684027078367755" lon="9.135408911417802"><ele>314.33333333333337</ele><time>2026-04-04T11:11:03Z</time></trkpt><trkpt lat="42.68396669948106" lon="9.135373895087946"><ele>314.5</ele><time>2026-04-04T11:11:04Z</time></trkpt><trkpt lat="42.68389424238742" lon="9.135344637538108"><ele>314.6666666666667</ele><time>2026-04-04T11:11:05Z</time></trkpt><trkpt lat="42.68382594529226" lon="9.135306713893497"><ele>314.8333333333333</ele><time>2026-04-04T11:11:06Z</time></trkpt><trkpt lat="42.683733085565" lon="9.135243554328257"><ele>315.0</ele><time>2026-04-04T11:11:07Z</time></trkpt><trkpt lat="42.68360321214413" lon="9.135138159299993"><ele>315.6</ele><time>2026-04-04T11:11:08Z</time></trkpt><trkpt lat="42.68351336459232" lon="9.13505188252005"><ele>316.2</ele><time>2026-04-04T11:11:09Z</time></trkpt><trkpt lat="42.68343268053039" lon="9.13497095484683"><ele>316.8</ele><time>2026-04-04T11:11:10Z</time></trkpt><trkpt lat="42.6833699821786" lon="9.134901140276757"><ele>317.4</ele><time>2026-04-04T11:11:11Z</time></trkpt><trkpt lat="42.68330344868193" lon="9.134803946010251"><ele>318.0</ele><time>2026-04-04T11:11:12Z</time></trkpt><trkpt lat="42.68325244085239" lon="9.134698766032942"><ele>318.0</ele><time>2026-04-04T11:11:13Z</time></trkpt><trkpt lat="42.68320490781163" lon="9.134584604181867"><ele>318.0</ele><time>2026-04-04T11:11:14Z</time></trkpt><trkpt lat="42.683159674716855" lon="9.134483177412474"><ele>318.0</ele><time>2026-04-04T11:11:15Z</time></trkpt><trkpt lat="42.683109708850175" lon="9.134373571721634"><ele>318.0</ele><time>2026-04-04T11:11:16Z</time></trkpt><trkpt lat="42.68306410222121" lon="9.134246225697998"><ele>318.0</ele><time>2026-04-04T11:11:17Z</time></trkpt><trkpt lat="42.68300215327196" lon="9.134110489229977"><ele>318.2</ele><time>2026-04-04T11:11:18Z</time></trkpt><trkpt lat="42.68293797909245" lon="9.133966844177243"><ele>318.4</ele><time>2026-04-04T11:11:19Z</time></trkpt><trkpt lat="42.68289072995764" lon="9.133858919236527"><ele>318.59999999999997</ele><time>2026-04-04T11:11:20Z</time></trkpt><trkpt lat="42.68283688910412" lon="9.13374686517513"><ele>318.8</ele><time>2026-04-04T11:11:21Z</time></trkpt><trkpt lat="42.682760456560544" lon="9.13364071208857"><ele>319.0</ele><time>2026-04-04T11:11:22Z</time></trkpt><trkpt lat="42.682660165388015" lon="9.133531633283498"><ele>319.0</ele><time>2026-04-04T11:11:23Z</time></trkpt><trkpt lat="42.68257756519247" lon="9.133453537931674"><ele>319.0</ele><time>2026-04-04T11:11:24Z</time></trkpt><trkpt lat="42.682466422523646" lon="9.133448168611016"><ele>319.0</ele><time>2026-04-04T11:11:26Z</time></trkpt><trkpt lat="42.68240839482963" lon="9.13349009985372"><ele>319.0</ele><time>2026-04-04T11:11:27Z</time></trkpt><trkpt lat="42.68236161103576" lon="9.133564532885162"><ele>319.0</ele><time>2026-04-04T11:11:29Z</time></trkpt><trkpt lat="42.682306236768426" lon="9.133643936338547"><ele>319.0</ele><time>2026-04-04T11:11:36Z</time></trkpt><trkpt lat="42.68223438660484" lon="9.133746294396312"><ele>319.0</ele><time>2026-04-04T11:11:38Z</time></trkpt><trkpt lat="42.68210678175032" lon="9.133794980019239"><ele>319.0</ele><time>2026-04-04T11:11:40Z</time></trkpt><trkpt lat="42.68205693537573" lon="9.133854288385718"><ele>319.0</ele><time>2026-04-04T11:11:41Z</time></trkpt><trkpt lat="42.681983617461135" lon="9.133941523679932"><ele>319.0</ele><time>2026-04-04T11:11:42Z</time></trkpt><trkpt lat="42.68188357720358" lon="9.134056287381483"><ele>319.0</ele><time>2026-04-04T11:11:43Z</time></trkpt><trkpt lat="42.68180759521183" lon="9.1341495866172"><ele>319.16666666666663</ele><time>2026-04-04T11:11:44Z</time></trkpt><trkpt lat="42.68174970647014" lon="9.134239776566648"><ele>319.3333333333333</ele><time>2026-04-04T11:11:45Z</time></trkpt><trkpt lat="42.681692922037854" lon="9.134319988109443"><ele>319.5</ele><time>2026-04-04T11:11:46Z</time></trkpt><trkpt lat="42.6816352215496" lon="9.134398413008627"><ele>319.6666666666667</ele><time>2026-04-04T11:11:47Z</time></trkpt><trkpt lat="42.6815808620918" lon="9.13445877750975"><ele>319.83333333333337</ele><time>2026-04-04T11:11:48Z</time></trkpt><trkpt lat="42.68152504563137" lon="9.134507167135528"><ele>320.0</ele><time>2026-04-04T11:11:49Z</time></trkpt><trkpt lat="42.681461245721415" lon="9.134522378952196"><ele>320.0</ele><time>2026-04-04T11:11:50Z</time></trkpt><trkpt lat="42.681388780379976" lon="9.134518994189724"><ele>320.0</ele><time>2026-04-04T11:11:51Z</time></trkpt><trkpt lat="42.681299957459245" lon="9.134517121475701"><ele>320.0</ele><time>2026-04-04T11:11:52Z</time></trkpt><trkpt lat="42.68120928393611" lon="9.134515258051753"><ele>320.0</ele><time>2026-04-04T11:11:53Z</time></trkpt><trkpt lat="42.68112144273365" lon="9.134519813283058"><ele>320.0</ele><time>2026-04-04T11:11:54Z</time></trkpt><trkpt lat="42.681036222521286" lon="9.134513878253662"><ele>320.0</ele><time>2026-04-04T11:11:55Z</time></trkpt><trkpt lat="42.680956382786256" lon="9.134515571568384"><ele>320.5</ele><time>2026-04-04T11:11:56Z</time></trkpt><trkpt lat="42.68088280933716" lon="9.134490648490805"><ele>321.0</ele><time>2026-04-04T11:11:57Z</time></trkpt><trkpt lat="42.680808234121336" lon="9.134471697124852"><ele>321.5</ele><time>2026-04-04T11:11:58Z</time></trkpt><trkpt lat="42.68073409917886" lon="9.134504177009836"><ele>322.0</ele><time>2026-04-04T11:11:59Z</time></trkpt><trkpt lat="42.6806766885068" lon="9.134557112927878"><ele>322.5</ele><time>2026-04-04T11:12:00Z</time></trkpt><trkpt lat="42.680618350622076" lon="9.134622080176879"><ele>323.0</ele><time>2026-04-04T11:12:01Z</time></trkpt><trkpt lat="42.68055474057162" lon="9.134686404190528"><ele>323.0</ele><time>2026-04-04T11:12:02Z</time></trkpt><trkpt lat="42.68049870702971" lon="9.134849791943957"><ele>323.0</ele><time>2026-04-04T11:12:04Z</time></trkpt><trkpt lat="42.68046973104095" lon="9.134956414491018"><ele>323.0</ele><time>2026-04-04T11:12:05Z</time></trkpt><trkpt lat="42.68042616183963" lon="9.135055753857326"><ele>323.0</ele><time>2026-04-04T11:12:06Z</time></trkpt><trkpt lat="42.68037333582664" lon="9.135171877048952"><ele>323.0</ele><time>2026-04-04T11:12:07Z</time></trkpt><trkpt lat="42.68031128782079" lon="9.135305174462527"><ele>319.25</ele><time>2026-04-04T11:12:08Z</time></trkpt><trkpt lat="42.68022000552525" lon="9.135485677871756"><ele>315.5</ele><time>2026-04-04T11:12:09Z</time></trkpt><trkpt lat="42.68013600288637" lon="9.135654400056927"><ele>311.75</ele><time>2026-04-04T11:12:10Z</time></trkpt><trkpt lat="42.68008503615315" lon="9.13576534383348"><ele>308.0</ele><time>2026-04-04T11:12:11Z</time></trkpt><trkpt lat="42.68003410971986" lon="9.135850770635127"><ele>308.0</ele><time>2026-04-04T11:12:12Z</time></trkpt><trkpt lat="42.67998348564726" lon="9.135928414090017"><ele>308.0</ele><time>2026-04-04T11:12:13Z</time></trkpt><trkpt lat="42.67993377844601" lon="9.13600447092824"><ele>308.0</ele><time>2026-04-04T11:12:14Z</time></trkpt><trkpt lat="42.67987901256471" lon="9.136106467021607"><ele>308.0</ele><time>2026-04-04T11:12:15Z</time></trkpt><trkpt lat="42.67982819622903" lon="9.136230334322805"><ele>308.0</ele><time>2026-04-04T11:12:16Z</time></trkpt><trkpt lat="42.67976727977309" lon="9.136321227913111"><ele>308.0</ele><time>2026-04-04T11:12:17Z</time></trkpt><trkpt lat="42.67971304620058" lon="9.136410172894887"><ele>308.0</ele><time>2026-04-04T11:12:18Z</time></trkpt><trkpt lat="42.67967277926506" lon="9.136490368500647"><ele>308.0</ele><time>2026-04-04T11:12:19Z</time></trkpt><trkpt lat="42.6796408418844" lon="9.13658209139177"><ele>308.0</ele><time>2026-04-04T11:12:20Z</time></trkpt><trkpt lat="42.679621116152276" lon="9.136674871506443"><ele>308.0</ele><time>2026-04-04T11:12:21Z</time></trkpt><trkpt lat="42.67959270195293" lon="9.13677166124826"><ele>308.0</ele><time>2026-04-04T11:12:22Z</time></trkpt><trkpt lat="42.67955447862844" lon="9.136889169722856"><ele>308.0</ele><time>2026-04-04T11:12:23Z</time></trkpt><trkpt lat="42.679508826656004" lon="9.136993878413666"><ele>306.6</ele><time>2026-04-04T11:12:24Z</time></trkpt><trkpt lat="42.67945485805676" lon="9.137097642473817"><ele>305.20000000000005</ele><time>2026-04-04T11:12:25Z</time></trkpt><trkpt lat="42.67938395379707" lon="9.137229426342785"><ele>303.8</ele><time>2026-04-04T11:12:26Z</time></trkpt><trkpt lat="42.6793116317083" lon="9.137301770459707"><ele>302.40000000000003</ele><time>2026-04-04T11:12:27Z</time></trkpt><trkpt lat="42.67923426531741" lon="9.137423020472996"><ele>301.0</ele><time>2026-04-04T11:12:29Z</time></trkpt><trkpt lat="42.679191881798594" lon="9.137494936459317"><ele>304.2</ele><time>2026-04-04T11:12:30Z</time></trkpt><trkpt lat="42.67911431429763" lon="9.137624998075022"><ele>307.40000000000003</ele><time>2026-04-04T11:12:32Z</time></trkpt><trkpt lat="42.67906725410765" lon="9.137696176739249"><ele>310.6</ele><time>2026-04-04T11:12:33Z</time></trkpt><trkpt lat="42.679011689361964" lon="9.137777745968991"><ele>313.8</ele><time>2026-04-04T11:12:34Z</time></trkpt><trkpt lat="42.67893750757257" lon="9.137863487004616"><ele>317.0</ele><time>2026-04-04T11:12:35Z</time></trkpt><trkpt lat="42.67886562475415" lon="9.137909468393364"><ele>317.0</ele><time>2026-04-04T11:12:36Z</time></trkpt><trkpt lat="42.67878777675242" lon="9.137961113682557"><ele>317.0</ele><time>2026-04-04T11:12:37Z</time></trkpt><trkpt lat="42.67869707424214" lon="9.138015079149705"><ele>317.0</ele><time>2026-04-04T11:12:38Z</time></trkpt><trkpt lat="42.67859711551163" lon="9.138067144847339"><ele>317.0</ele><time>2026-04-04T11:12:39Z</time></trkpt><trkpt lat="42.67848543341906" lon="9.138128673231892"><ele>317.0</ele><time>2026-04-04T11:12:40Z</time></trkpt><trkpt lat="42.678397742248315" lon="9.13819309220798"><ele>317.2</ele><time>2026-04-04T11:12:41Z</time></trkpt><trkpt lat="42.678313131947675" lon="9.138247651641393"><ele>317.4</ele><time>2026-04-04T11:12:42Z</time></trkpt><trkpt lat="42.67822322927135" lon="9.138298730522623"><ele>317.6</ele><time>2026-04-04T11:12:43Z</time></trkpt><trkpt lat="42.67812680718148" lon="9.138363543477242"><ele>317.8</ele><time>2026-04-04T11:12:44Z</time></trkpt><trkpt lat="42.67804725202285" lon="9.138424017580652"><ele>318.0</ele><time>2026-04-04T11:12:45Z</time></trkpt><trkpt lat="42.67797944063197" lon="9.13847696663283"><ele>318.0</ele><time>2026-04-04T11:12:46Z</time></trkpt><trkpt lat="42.677910522342216" lon="9.138538768449079"><ele>318.0</ele><time>2026-04-04T11:12:47Z</time></trkpt><trkpt lat="42.677838712274045" lon="9.13861336844372"><ele>318.0</ele><time>2026-04-04T11:12:48Z</time></trkpt><trkpt lat="42.677771643673466" lon="9.138691211376221"><ele>318.0</ele><time>2026-04-04T11:12:49Z</time></trkpt><trkpt lat="42.67774449357138" lon="9.138790184669997"><ele>318.0</ele><time>2026-04-04T11:12:50Z</time></trkpt><trkpt lat="42.677676160674736" lon="9.138830541684118"><ele>318.0</ele><time>2026-04-04T11:12:51Z</time></trkpt><trkpt lat="42.67758802867702" lon="9.138865340698217"><ele>318.0</ele><time>2026-04-04T11:12:52Z</time></trkpt><trkpt lat="42.67748922150245" lon="9.138897354524607"><ele>318.0</ele><time>2026-04-04T11:12:53Z</time></trkpt><trkpt lat="42.6773729344485" lon="9.138946140474655"><ele>318.0</ele><time>2026-04-04T11:12:54Z</time></trkpt><trkpt lat="42.677225115765744" lon="9.139024205830015"><ele>318.0</ele><time>2026-04-04T11:12:55Z</time></trkpt><trkpt lat="42.67710033555525" lon="9.13909489751818"><ele>318.0</ele><time>2026-04-04T11:12:56Z</time></trkpt><trkpt lat="42.67699800098349" lon="9.139154809837946"><ele>318.0</ele><time>2026-04-04T11:12:57Z</time></trkpt><trkpt lat="42.67689356114926" lon="9.139208883509287"><ele>318.0</ele><time>2026-04-04T11:12:58Z</time></trkpt><trkpt lat="42.67680470709128" lon="9.139248266260564"><ele>318.0</ele><time>2026-04-04T11:12:59Z</time></trkpt><trkpt lat="42.67672094641856" lon="9.13928526046502"><ele>318.0</ele><time>2026-04-04T11:13:00Z</time></trkpt><trkpt lat="42.67663858660001" lon="9.13932957108809"><ele>318.6666666666667</ele><time>2026-04-04T11:13:01Z</time></trkpt><trkpt lat="42.67655903907862" lon="9.13936997094131"><ele>319.3333333333333</ele><time>2026-04-04T11:13:02Z</time></trkpt><trkpt lat="42.67647748847595" lon="9.139399054271534"><ele>320.0</ele><time>2026-04-04T11:13:03Z</time></trkpt><trkpt lat="42.67640870441896" lon="9.139433203674137"><ele>320.66666666666663</ele><time>2026-04-04T11:13:04Z</time></trkpt><trkpt lat="42.67633500639394" lon="9.139474156530293"><ele>321.3333333333333</ele><time>2026-04-04T11:13:05Z</time></trkpt><trkpt lat="42.6762588528093" lon="9.139504175482006"><ele>322.0</ele><time>2026-04-04T11:13:06Z</time></trkpt><trkpt lat="42.6761820527059" lon="9.139524265492756"><ele>322.0</ele><time>2026-04-04T11:13:07Z</time></trkpt><trkpt lat="42.676117301229134" lon="9.13954870142481"><ele>322.0</ele><time>2026-04-04T11:13:08Z</time></trkpt><trkpt lat="42.67606654753335" lon="9.139603147188746"><ele>322.0</ele><time>2026-04-04T11:13:09Z</time></trkpt><trkpt lat="42.67602180537506" lon="9.13968908824318"><ele>322.0</ele><time>2026-04-04T11:13:10Z</time></trkpt><trkpt lat="42.67597737502163" lon="9.139798980725477"><ele>322.0</ele><time>2026-04-04T11:13:11Z</time></trkpt><trkpt lat="42.67593442032399" lon="9.139907925333157"><ele>322.0</ele><time>2026-04-04T11:13:12Z</time></trkpt><trkpt lat="42.67590874973544" lon="9.140018526774911"><ele>321.8</ele><time>2026-04-04T11:13:13Z</time></trkpt><trkpt lat="42.675889025159734" lon="9.14013314979321"><ele>321.6</ele><time>2026-04-04T11:13:15Z</time></trkpt><trkpt lat="42.67583436745209" lon="9.140216486803709"><ele>321.40000000000003</ele><time>2026-04-04T11:13:17Z</time></trkpt><trkpt lat="42.67577567660727" lon="9.140348878586739"><ele>321.20000000000005</ele><time>2026-04-04T11:13:19Z</time></trkpt><trkpt lat="42.675789703197864" lon="9.14049376368407"><ele>321.0</ele><time>2026-04-04T11:13:21Z</time></trkpt><trkpt lat="42.675792322296786" lon="9.140582146418836"><ele>321.0</ele><time>2026-04-04T11:13:22Z</time></trkpt><trkpt lat="42.6757802849597" lon="9.140689162284923"><ele>321.0</ele><time>2026-04-04T11:13:24Z</time></trkpt><trkpt lat="42.67578280758596" lon="9.14079216399491"><ele>321.0</ele><time>2026-04-04T11:13:26Z</time></trkpt><trkpt lat="42.675790747011824" lon="9.140881527750237"><ele>321.0</ele><time>2026-04-04T11:13:27Z</time></trkpt><trkpt lat="42.67580706403802" lon="9.141001069376708"><ele>321.0</ele><time>2026-04-04T11:13:28Z</time></trkpt><trkpt lat="42.67583498569479" lon="9.141120680042231"><ele>321.0</ele><time>2026-04-04T11:13:29Z</time></trkpt><trkpt lat="42.67586162738849" lon="9.141229737393314"><ele>321.20000000000005</ele><time>2026-04-04T11:13:30Z</time></trkpt><trkpt lat="42.67586922001788" lon="9.141331877227866"><ele>321.40000000000003</ele><time>2026-04-04T11:13:31Z</time></trkpt><trkpt lat="42.675863991146215" lon="9.14145531748069"><ele>321.6</ele><time>2026-04-04T11:13:32Z</time></trkpt><trkpt lat="42.67587548692647" lon="9.141588031580142"><ele>321.8</ele><time>2026-04-04T11:13:33Z</time></trkpt><trkpt lat="42.67590125840622" lon="9.141730890861982"><ele>322.0</ele><time>2026-04-04T11:13:34Z</time></trkpt><trkpt lat="42.67593460380481" lon="9.141864155723205"><ele>320.8333333333333</ele><time>2026-04-04T11:13:35Z</time></trkpt><trkpt lat="42.67596172643197" lon="9.141970782597332"><ele>319.66666666666663</ele><time>2026-04-04T11:13:36Z</time></trkpt><trkpt lat="42.67601390117055" lon="9.142098257474137"><ele>318.5</ele><time>2026-04-04T11:13:38Z</time></trkpt><trkpt lat="42.67605487583863" lon="9.142179728812827"><ele>317.3333333333333</ele><time>2026-04-04T11:13:39Z</time></trkpt><trkpt lat="42.67609979580322" lon="9.142293056083895"><ele>316.1666666666667</ele><time>2026-04-04T11:13:40Z</time></trkpt><trkpt lat="42.676126274432455" lon="9.142388161366966"><ele>315.0</ele><time>2026-04-04T11:13:41Z</time></trkpt><trkpt lat="42.6761362499406" lon="9.142529437273105"><ele>313.4</ele><time>2026-04-04T11:13:43Z</time></trkpt><trkpt lat="42.676116571681696" lon="9.142616455660251"><ele>311.8</ele><time>2026-04-04T11:13:44Z</time></trkpt><trkpt lat="42.67609156299286" lon="9.142774759613339"><ele>310.2</ele><time>2026-04-04T11:13:46Z</time></trkpt><trkpt lat="42.67608527381592" lon="9.14295257692187"><ele>308.6</ele><time>2026-04-04T11:13:48Z</time></trkpt><trkpt lat="42.676057684291564" lon="9.14303592644606"><ele>307.0</ele><time>2026-04-04T11:13:49Z</time></trkpt><trkpt lat="42.676015247784626" lon="9.143110770422755"><ele>307.0</ele><time>2026-04-04T11:13:50Z</time></trkpt><trkpt lat="42.675909576160095" lon="9.143188733898722"><ele>307.0</ele><time>2026-04-04T11:13:52Z</time></trkpt><trkpt lat="42.67584535924185" lon="9.143198745849633"><ele>307.0</ele><time>2026-04-04T11:13:53Z</time></trkpt><trkpt lat="42.6757724959097" lon="9.14322142314764"><ele>307.0</ele><time>2026-04-04T11:13:56Z</time></trkpt><trkpt lat="42.675685040249874" lon="9.143189157026542"><ele>307.0</ele><time>2026-04-04T11:13:59Z</time></trkpt><trkpt lat="42.67557990862079" lon="9.143071978495392"><ele>307.0</ele><time>2026-04-04T11:14:01Z</time></trkpt><trkpt lat="42.67550806153468" lon="9.14299072399294"><ele>307.0</ele><time>2026-04-04T11:14:02Z</time></trkpt><trkpt lat="42.67542518108475" lon="9.14291736931054"><ele>307.0</ele><time>2026-04-04T11:14:03Z</time></trkpt><trkpt lat="42.675337553544665" lon="9.142873870004367"><ele>307.0</ele><time>2026-04-04T11:14:04Z</time></trkpt><trkpt lat="42.67526162671514" lon="9.142824735127686"><ele>307.0</ele><time>2026-04-04T11:14:05Z</time></trkpt><trkpt lat="42.67518779891905" lon="9.142753557906419"><ele>306.0</ele><time>2026-04-04T11:14:06Z</time></trkpt><trkpt lat="42.6750991467027" lon="9.142663658388127"><ele>305.0</ele><time>2026-04-04T11:14:07Z</time></trkpt><trkpt lat="42.675009542468885" lon="9.142571420517555"><ele>304.0</ele><time>2026-04-04T11:14:08Z</time></trkpt><trkpt lat="42.67493160840674" lon="9.14249629546751"><ele>303.0</ele><time>2026-04-04T11:14:09Z</time></trkpt><trkpt lat="42.67485876480912" lon="9.142418821050017"><ele>302.0</ele><time>2026-04-04T11:14:10Z</time></trkpt><trkpt lat="42.674792199167115" lon="9.142340715825096"><ele>301.5</ele><time>2026-04-04T11:14:11Z</time></trkpt><trkpt lat="42.67474472029513" lon="9.14226665282279"><ele>301.0</ele><time>2026-04-04T11:14:12Z</time></trkpt><trkpt lat="42.67469699881468" lon="9.142197297303309"><ele>300.5</ele><time>2026-04-04T11:14:13Z</time></trkpt><trkpt lat="42.67462025992994" lon="9.142119413603153"><ele>300.0</ele><time>2026-04-04T11:14:15Z</time></trkpt><trkpt lat="42.67452730174994" lon="9.142054458557963"><ele>299.5</ele><time>2026-04-04T11:14:17Z</time></trkpt><trkpt lat="42.674486395719455" lon="9.141933398963712"><ele>299.0</ele><time>2026-04-04T11:14:19Z</time></trkpt><trkpt lat="42.67438067488737" lon="9.141888325967836"><ele>298.2</ele><time>2026-04-04T11:14:21Z</time></trkpt><trkpt lat="42.674293783892416" lon="9.141915330939336"><ele>297.4</ele><time>2026-04-04T11:14:22Z</time></trkpt><trkpt lat="42.67421074212078" lon="9.141955464453071"><ele>296.6</ele><time>2026-04-04T11:14:23Z</time></trkpt><trkpt lat="42.67413890707096" lon="9.142023262872806"><ele>295.8</ele><time>2026-04-04T11:14:24Z</time></trkpt><trkpt lat="42.67408262914552" lon="9.142077929224698"><ele>295.0</ele><time>2026-04-04T11:14:25Z</time></trkpt><trkpt lat="42.67395360162495" lon="9.142195601102866"><ele>295.0</ele><time>2026-04-04T11:14:27Z</time></trkpt><trkpt lat="42.67387839910334" lon="9.142287913465832"><ele>295.0</ele><time>2026-04-04T11:14:28Z</time></trkpt><trkpt lat="42.67386186303065" lon="9.142398738747067"><ele>295.0</ele><time>2026-04-04T11:14:29Z</time></trkpt><trkpt lat="42.6738323185827" lon="9.142483387115993"><ele>295.0</ele><time>2026-04-04T11:14:30Z</time></trkpt><trkpt lat="42.673783929742434" lon="9.142544288122965"><ele>295.0</ele><time>2026-04-04T11:14:31Z</time></trkpt><trkpt lat="42.673715922157214" lon="9.142619826014599"><ele>295.0</ele><time>2026-04-04T11:14:32Z</time></trkpt><trkpt lat="42.67362692260648" lon="9.142685900103233"><ele>295.0</ele><time>2026-04-04T11:14:33Z</time></trkpt><trkpt lat="42.67356906689136" lon="9.142806879986797"><ele>295.0</ele><time>2026-04-04T11:14:34Z</time></trkpt><trkpt lat="42.67351533603315" lon="9.142890025050786"><ele>295.0</ele><time>2026-04-04T11:14:35Z</time></trkpt><trkpt lat="42.6734171697788" lon="9.14297742377635"><ele>295.0</ele><time>2026-04-04T11:14:37Z</time></trkpt><trkpt lat="42.673353322055405" lon="9.142977271303558"><ele>295.0</ele><time>2026-04-04T11:14:38Z</time></trkpt><trkpt lat="42.673273216472424" lon="9.142957194604872"><ele>295.0</ele><time>2026-04-04T11:14:39Z</time></trkpt><trkpt lat="42.673189904483195" lon="9.142905062230698"><ele>295.0</ele><time>2026-04-04T11:14:40Z</time></trkpt><trkpt lat="42.67312460053986" lon="9.142812621126772"><ele>295.0</ele><time>2026-04-04T11:14:41Z</time></trkpt><trkpt lat="42.67305909413568" lon="9.142729127939921"><ele>295.0</ele><time>2026-04-04T11:14:42Z</time></trkpt><trkpt lat="42.67299848165366" lon="9.142680086025843"><ele>295.0</ele><time>2026-04-04T11:14:43Z</time></trkpt><trkpt lat="42.67293705998624" lon="9.142620495159957"><ele>295.0</ele><time>2026-04-04T11:14:44Z</time></trkpt><trkpt lat="42.67286591465665" lon="9.142542225314862"><ele>295.0</ele><time>2026-04-04T11:14:45Z</time></trkpt><trkpt lat="42.672791639904325" lon="9.14245894708183"><ele>295.0</ele><time>2026-04-04T11:14:46Z</time></trkpt><trkpt lat="42.67274020788308" lon="9.142407648429339"><ele>295.0</ele><time>2026-04-04T11:14:47Z</time></trkpt><trkpt lat="42.67261754750945" lon="9.142449457478385"><ele>295.0</ele><time>2026-04-04T11:14:49Z</time></trkpt><trkpt lat="42.67253762739694" lon="9.142549635987493"><ele>295.0</ele><time>2026-04-04T11:14:50Z</time></trkpt><trkpt lat="42.67248242654318" lon="9.142672391679735"><ele>295.5</ele><time>2026-04-04T11:14:51Z</time></trkpt><trkpt lat="42.67244510799093" lon="9.142785015352835"><ele>296.0</ele><time>2026-04-04T11:14:52Z</time></trkpt><trkpt lat="42.6724306412961" lon="9.142874163201077"><ele>296.5</ele><time>2026-04-04T11:14:53Z</time></trkpt><trkpt lat="42.67241837220307" lon="9.142968915548833"><ele>297.0</ele><time>2026-04-04T11:14:54Z</time></trkpt><trkpt lat="42.67240494566738" lon="9.143081350368249"><ele>297.5</ele><time>2026-04-04T11:14:55Z</time></trkpt><trkpt lat="42.67238478347203" lon="9.143228673468457"><ele>298.0</ele><time>2026-04-04T11:14:56Z</time></trkpt><trkpt lat="42.67236307724961" lon="9.143339022128442"><ele>299.2</ele><time>2026-04-04T11:14:57Z</time></trkpt><trkpt lat="42.67224751383937" lon="9.143444417633079"><ele>300.4</ele><time>2026-04-04T11:14:59Z</time></trkpt><trkpt lat="42.67215147032067" lon="9.143517593464681"><ele>301.59999999999997</ele><time>2026-04-04T11:15:00Z</time></trkpt><trkpt lat="42.67206374168785" lon="9.143566177591623"><ele>302.8</ele><time>2026-04-04T11:15:01Z</time></trkpt><trkpt lat="42.6719894773878" lon="9.143518701141808"><ele>304.0</ele><time>2026-04-04T11:15:02Z</time></trkpt><trkpt lat="42.671905947932004" lon="9.143483337694912"><ele>304.0</ele><time>2026-04-04T11:15:04Z</time></trkpt><trkpt lat="42.671848337657075" lon="9.143440713037172"><ele>304.0</ele><time>2026-04-04T11:15:06Z</time></trkpt><trkpt lat="42.671784077608805" lon="9.14344333889309"><ele>304.0</ele><time>2026-04-04T11:19:38Z</time></trkpt><trkpt lat="42.67173348264956" lon="9.143381569126516"><ele>304.0</ele><time>2026-04-04T11:22:39Z</time></trkpt><trkpt lat="42.67168914024788" lon="9.143320496286222"><ele>304.0</ele><time>2026-04-04T11:22:40Z</time></trkpt><trkpt lat="42.671632901137784" lon="9.14325092738541"><ele>304.0</ele><time>2026-04-04T11:22:41Z</time></trkpt><trkpt lat="42.67156852466902" lon="9.143173124783672"><ele>304.0</ele><time>2026-04-04T11:22:42Z</time></trkpt><trkpt lat="42.67150297512392" lon="9.143086520725626"><ele>302.66666666666663</ele><time>2026-04-04T11:22:43Z</time></trkpt><trkpt lat="42.67147150470275" lon="9.142982494266287"><ele>301.3333333333333</ele><time>2026-04-04T11:22:44Z</time></trkpt><trkpt lat="42.67142050599366" lon="9.142918526948058"><ele>300.0</ele><time>2026-04-04T11:22:45Z</time></trkpt><trkpt lat="42.67135190458329" lon="9.142836482477936"><ele>298.6666666666667</ele><time>2026-04-04T11:22:47Z</time></trkpt><trkpt lat="42.67139400299058" lon="9.142740290249627"><ele>297.33333333333337</ele><time>2026-04-04T11:22:52Z</time></trkpt><trkpt lat="42.6714673673756" lon="9.142699514899089"><ele>296.0</ele><time>2026-04-04T11:22:55Z</time></trkpt><trkpt lat="42.6715165065812" lon="9.142568169719878"><ele>296.0</ele><time>2026-04-04T11:22:57Z</time></trkpt><trkpt lat="42.671544057913124" lon="9.142474255935129"><ele>296.0</ele><time>2026-04-04T11:22:58Z</time></trkpt><trkpt lat="42.67157296808806" lon="9.142396783200494"><ele>296.0</ele><time>2026-04-04T11:22:59Z</time></trkpt><trkpt lat="42.67162635057876" lon="9.142264601088375"><ele>296.0</ele><time>2026-04-04T11:23:01Z</time></trkpt><trkpt lat="42.67164460701991" lon="9.142121823108596"><ele>296.0</ele><time>2026-04-04T11:23:03Z</time></trkpt><trkpt lat="42.671647308045706" lon="9.142014297962614"><ele>296.0</ele><time>2026-04-04T11:23:05Z</time></trkpt><trkpt lat="42.671674692217294" lon="9.141916927683544"><ele>296.0</ele><time>2026-04-04T11:23:10Z</time></trkpt><trkpt lat="42.67169391111078" lon="9.141806699983208"><ele>296.0</ele><time>2026-04-04T11:26:07Z</time></trkpt><trkpt lat="42.67170518056046" lon="9.141695867440752"><ele>296.0</ele><time>2026-04-04T11:27:05Z</time></trkpt><trkpt lat="42.67172277167418" lon="9.141594682672135"><ele>296.0</ele><time>2026-04-04T11:27:07Z</time></trkpt><trkpt lat="42.671767895182214" lon="9.141499126164547"><ele>296.0</ele><time>2026-04-04T11:27:09Z</time></trkpt><trkpt lat="42.671822195700614" lon="9.14139240438345"><ele>296.0</ele><time>2026-04-04T11:27:11Z</time></trkpt><trkpt lat="42.67184710788154" lon="9.141238320029796"><ele>296.1666666666667</ele><time>2026-04-04T11:27:13Z</time></trkpt><trkpt lat="42.6718641990954" lon="9.141151402132783"><ele>296.33333333333337</ele><time>2026-04-04T11:27:14Z</time></trkpt><trkpt lat="42.671876269100345" lon="9.141029132496644"><ele>296.5</ele><time>2026-04-04T11:27:16Z</time></trkpt><trkpt lat="42.67196124366998" lon="9.14093590229283"><ele>296.6666666666667</ele><time>2026-04-04T11:27:18Z</time></trkpt><trkpt lat="42.67198688695381" lon="9.140851896639239"><ele>296.8333333333333</ele><time>2026-04-04T11:27:19Z</time></trkpt><trkpt lat="42.67201612822809" lon="9.140768991423563"><ele>297.0</ele><time>2026-04-04T11:27:20Z</time></trkpt><trkpt lat="42.672013452945095" lon="9.140679284855192"><ele>295.5</ele><time>2026-04-04T11:27:21Z</time></trkpt><trkpt lat="42.6720058298786" lon="9.140580898750645"><ele>294.0</ele><time>2026-04-04T11:27:22Z</time></trkpt><trkpt lat="42.67199829995765" lon="9.140466479031993"><ele>292.5</ele><time>2026-04-04T11:27:23Z</time></trkpt><trkpt lat="42.671948760486394" lon="9.140366445039195"><ele>291.0</ele><time>2026-04-04T11:27:24Z</time></trkpt><trkpt lat="42.67192057672681" lon="9.14025962243739"><ele>289.5</ele><time>2026-04-04T11:27:25Z</time></trkpt><trkpt lat="42.671901608060416" lon="9.140158694720787"><ele>288.0</ele><time>2026-04-04T11:27:26Z</time></trkpt><trkpt lat="42.67189215555387" lon="9.140063623597086"><ele>288.0</ele><time>2026-04-04T11:27:27Z</time></trkpt><trkpt lat="42.67187766664194" lon="9.139972747350775"><ele>288.0</ele><time>2026-04-04T11:27:28Z</time></trkpt><trkpt lat="42.671790860954225" lon="9.139841290555216"><ele>288.0</ele><time>2026-04-04T11:27:30Z</time></trkpt><trkpt lat="42.67172063909107" lon="9.139770262910082"><ele>288.0</ele><time>2026-04-04T11:27:31Z</time></trkpt><trkpt lat="42.67161111469043" lon="9.139682682554797"><ele>288.0</ele><time>2026-04-04T11:27:32Z</time></trkpt><trkpt lat="42.671466163388246" lon="9.139566882143209"><ele>284.2</ele><time>2026-04-04T11:27:33Z</time></trkpt><trkpt lat="42.671369836582585" lon="9.139455684896088"><ele>280.4</ele><time>2026-04-04T11:27:34Z</time></trkpt><trkpt lat="42.67130867999584" lon="9.139365288748014"><ele>276.59999999999997</ele><time>2026-04-04T11:27:35Z</time></trkpt><trkpt lat="42.6712747950173" lon="9.139268832005362"><ele>272.8</ele><time>2026-04-04T11:27:36Z</time></trkpt><trkpt lat="42.67121574600466" lon="9.139196497096693"><ele>269.0</ele><time>2026-04-04T11:27:37Z</time></trkpt><trkpt lat="42.67115511843295" lon="9.139114445584385"><ele>269.2</ele><time>2026-04-04T11:27:38Z</time></trkpt><trkpt lat="42.67110497380148" lon="9.139039035741307"><ele>269.4</ele><time>2026-04-04T11:27:39Z</time></trkpt><trkpt lat="42.671048649678596" lon="9.138958306233256"><ele>269.6</ele><time>2026-04-04T11:27:40Z</time></trkpt><trkpt lat="42.670962121503074" lon="9.138878164366403"><ele>269.8</ele><time>2026-04-04T11:27:42Z</time></trkpt><trkpt lat="42.67088286948756" lon="9.138837233859606"><ele>270.0</ele><time>2026-04-04T11:27:44Z</time></trkpt><trkpt lat="42.670811759050665" lon="9.13870326586903"><ele>270.0</ele><time>2026-04-04T11:27:46Z</time></trkpt><trkpt lat="42.67079103706113" lon="9.138590600812067"><ele>270.0</ele><time>2026-04-04T11:27:47Z</time></trkpt><trkpt lat="42.670765251072396" lon="9.138449818843442"><ele>270.0</ele><time>2026-04-04T11:27:48Z</time></trkpt><trkpt lat="42.670719103833854" lon="9.138274992198319"><ele>270.0</ele><time>2026-04-04T11:27:49Z</time></trkpt><trkpt lat="42.67068964384079" lon="9.13813767961624"><ele>270.0</ele><time>2026-04-04T11:27:50Z</time></trkpt><trkpt lat="42.67066495746512" lon="9.138028458450401"><ele>267.6666666666667</ele><time>2026-04-04T11:27:51Z</time></trkpt><trkpt lat="42.670646006393994" lon="9.137920134622558"><ele>265.3333333333333</ele><time>2026-04-04T11:27:52Z</time></trkpt><trkpt lat="42.670627882285" lon="9.137814895638359"><ele>263.0</ele><time>2026-04-04T11:27:53Z</time></trkpt><trkpt lat="42.6706050857057" lon="9.137700488473158"><ele>260.66666666666663</ele><time>2026-04-04T11:27:54Z</time></trkpt><trkpt lat="42.67057889007146" lon="9.137599274611064"><ele>258.3333333333333</ele><time>2026-04-04T11:27:55Z</time></trkpt><trkpt lat="42.67055997823435" lon="9.137500611005738"><ele>256.0</ele><time>2026-04-04T11:27:56Z</time></trkpt><trkpt lat="42.67054568918262" lon="9.137405018577262"><ele>254.33333333333331</ele><time>2026-04-04T11:27:57Z</time></trkpt><trkpt lat="42.67052995282532" lon="9.137314366704924"><ele>252.66666666666666</ele><time>2026-04-04T11:27:58Z</time></trkpt><trkpt lat="42.67050830825137" lon="9.137211610662172"><ele>251.0</ele><time>2026-04-04T11:27:59Z</time></trkpt><trkpt lat="42.67047982111187" lon="9.137102618315373"><ele>249.33333333333331</ele><time>2026-04-04T11:28:00Z</time></trkpt><trkpt lat="42.67045386186515" lon="9.137008066832177"><ele>247.66666666666666</ele><time>2026-04-04T11:28:01Z</time></trkpt><trkpt lat="42.67043608014608" lon="9.136901129976971"><ele>246.0</ele><time>2026-04-04T11:28:02Z</time></trkpt><trkpt lat="42.67042185724162" lon="9.136776500811086"><ele>246.0</ele><time>2026-04-04T11:28:03Z</time></trkpt><trkpt lat="42.67041510688149" lon="9.136647071287584"><ele>246.0</ele><time>2026-04-04T11:28:04Z</time></trkpt><trkpt lat="42.67040580299781" lon="9.13653265148683"><ele>246.0</ele><time>2026-04-04T11:28:05Z</time></trkpt><trkpt lat="42.67039176688105" lon="9.136417561825"><ele>246.0</ele><time>2026-04-04T11:28:06Z</time></trkpt><trkpt lat="42.67037146460556" lon="9.1363123000714"><ele>246.0</ele><time>2026-04-04T11:28:07Z</time></trkpt><trkpt lat="42.67036798562679" lon="9.136208246426346"><ele>246.0</ele><time>2026-04-04T11:28:08Z</time></trkpt><trkpt lat="42.67033187823661" lon="9.136071016676416"><ele>247.33333333333334</ele><time>2026-04-04T11:28:10Z</time></trkpt><trkpt lat="42.67027791930231" lon="9.13593982462422"><ele>248.66666666666669</ele><time>2026-04-04T11:28:12Z</time></trkpt><trkpt lat="42.670241187095854" lon="9.135859526142854"><ele>250.0</ele><time>2026-04-04T11:28:13Z</time></trkpt><trkpt lat="42.67019414164468" lon="9.135758506457226"><ele>251.33333333333334</ele><time>2026-04-04T11:28:14Z</time></trkpt><trkpt lat="42.6701253630744" lon="9.135672289775119"><ele>252.66666666666669</ele><time>2026-04-04T11:28:15Z</time></trkpt><trkpt lat="42.670088284334604" lon="9.135583781711397"><ele>254.0</ele><time>2026-04-04T11:28:16Z</time></trkpt><trkpt lat="42.67004039511234" lon="9.13546987913233"><ele>254.00000000000003</ele><time>2026-04-04T11:28:18Z</time></trkpt><trkpt lat="42.670057723207094" lon="9.135373248599583"><ele>254.0</ele><time>2026-04-04T11:28:20Z</time></trkpt><trkpt lat="42.6700802502265" lon="9.135291255975787"><ele>254.0</ele><time>2026-04-04T11:28:21Z</time></trkpt><trkpt lat="42.67009374819637" lon="9.135196660704096"><ele>254.0</ele><time>2026-04-04T11:28:22Z</time></trkpt><trkpt lat="42.67009280308672" lon="9.135082558506154"><ele>254.00000000000003</ele><time>2026-04-04T11:28:23Z</time></trkpt><trkpt lat="42.670082219055075" lon="9.134969936357948"><ele>254.0</ele><time>2026-04-04T11:28:24Z</time></trkpt><trkpt lat="42.67007286163172" lon="9.134869834219138"><ele>252.33333333333334</ele><time>2026-04-04T11:28:25Z</time></trkpt><trkpt lat="42.670058300003234" lon="9.13477803999221"><ele>250.66666666666669</ele><time>2026-04-04T11:28:26Z</time></trkpt><trkpt lat="42.670021275171955" lon="9.134618265258396"><ele>249.0</ele><time>2026-04-04T11:28:28Z</time></trkpt><trkpt lat="42.669996449234645" lon="9.134526535396903"><ele>247.33333333333331</ele><time>2026-04-04T11:28:29Z</time></trkpt><trkpt lat="42.66996766684229" lon="9.134418522694194"><ele>245.66666666666666</ele><time>2026-04-04T11:28:30Z</time></trkpt><trkpt lat="42.669939114002794" lon="9.1342958564966"><ele>244.0</ele><time>2026-04-04T11:28:31Z</time></trkpt><trkpt lat="42.66991585346868" lon="9.13420379564611"><ele>243.99999999999997</ele><time>2026-04-04T11:28:32Z</time></trkpt><trkpt lat="42.66988494853321" lon="9.134082531995617"><ele>244.0</ele><time>2026-04-04T11:28:34Z</time></trkpt><trkpt lat="42.66988432035137" lon="9.133975569699572"><ele>244.0</ele><time>2026-04-04T11:28:36Z</time></trkpt><trkpt lat="42.66986087265691" lon="9.133808634421584"><ele>244.0</ele><time>2026-04-04T11:28:38Z</time></trkpt><trkpt lat="42.66983259047954" lon="9.133728918671562"><ele>243.99999999999997</ele><time>2026-04-04T11:28:39Z</time></trkpt><trkpt lat="42.66979331098023" lon="9.13364881825525"><ele>244.0</ele><time>2026-04-04T11:28:40Z</time></trkpt><trkpt lat="42.66974582848455" lon="9.133572328605178"><ele>243.99999999999997</ele><time>2026-04-04T11:28:41Z</time></trkpt><trkpt lat="42.66968989200969" lon="9.133509435320697"><ele>244.0</ele><time>2026-04-04T11:28:42Z</time></trkpt><trkpt lat="42.66961494572965" lon="9.133462357370908"><ele>244.0</ele><time>2026-04-04T11:28:43Z</time></trkpt><trkpt lat="42.66953496807001" lon="9.133413180261046"><ele>244.0</ele><time>2026-04-04T11:28:44Z</time></trkpt><trkpt lat="42.66944769590852" lon="9.133375103185854"><ele>243.99999999999997</ele><time>2026-04-04T11:28:45Z</time></trkpt><trkpt lat="42.66935940109585" lon="9.133347877378554"><ele>244.0</ele><time>2026-04-04T11:28:46Z</time></trkpt><trkpt lat="42.66928861478792" lon="9.1333271131796"><ele>244.0</ele><time>2026-04-04T11:28:47Z</time></trkpt><trkpt lat="42.66919051879666" lon="9.133265585928438"><ele>243.99999999999997</ele><time>2026-04-04T11:28:49Z</time></trkpt><trkpt lat="42.6691353784835" lon="9.133208503976746"><ele>243.99999999999997</ele><time>2026-04-04T11:28:50Z</time></trkpt><trkpt lat="42.669063787631856" lon="9.133142021538754"><ele>244.0</ele><time>2026-04-04T11:28:51Z</time></trkpt><trkpt lat="42.66899108031344" lon="9.133088824912257"><ele>244.0</ele><time>2026-04-04T11:28:52Z</time></trkpt><trkpt lat="42.668892981232524" lon="9.133037775602528"><ele>240.0</ele><time>2026-04-04T11:28:54Z</time></trkpt><trkpt lat="42.66880993830543" lon="9.132945298623252"><ele>235.99999999999997</ele><time>2026-04-04T11:28:56Z</time></trkpt><trkpt lat="42.668749047107696" lon="9.132884101798858"><ele>231.99999999999997</ele><time>2026-04-04T11:28:57Z</time></trkpt><trkpt lat="42.66863965882595" lon="9.132835828044527"><ele>228.0</ele><time>2026-04-04T11:28:59Z</time></trkpt><trkpt lat="42.668550284395366" lon="9.132858645559319"><ele>224.0</ele><time>2026-04-04T11:29:01Z</time></trkpt><trkpt lat="42.66851042492693" lon="9.132789731050279"><ele>224.0</ele><time>2026-04-04T11:29:04Z</time></trkpt><trkpt lat="42.668575179131324" lon="9.132700253351773"><ele>223.99999999999997</ele><time>2026-04-04T11:29:07Z</time></trkpt><trkpt lat="42.66865634880289" lon="9.132722053088775"><ele>223.99999999999997</ele><time>2026-04-04T11:29:09Z</time></trkpt><trkpt lat="42.668761706550356" lon="9.132764602775083"><ele>224.0</ele><time>2026-04-04T11:29:11Z</time></trkpt><trkpt lat="42.66885763354438" lon="9.132809611417"><ele>224.0</ele><time>2026-04-04T11:29:13Z</time></trkpt><trkpt lat="42.66894339937004" lon="9.132837205776788"><ele>223.33333333333334</ele><time>2026-04-04T11:29:15Z</time></trkpt><trkpt lat="42.669009226834" lon="9.132855212059273"><ele>222.66666666666669</ele><time>2026-04-04T11:29:16Z</time></trkpt><trkpt lat="42.66908577636871" lon="9.132864905808502"><ele>222.0</ele><time>2026-04-04T11:29:17Z</time></trkpt><trkpt lat="42.66915045283415" lon="9.13286750877239"><ele>221.33333333333331</ele><time>2026-04-04T11:29:18Z</time></trkpt><trkpt lat="42.669261628243085" lon="9.132903459506348"><ele>220.66666666666666</ele><time>2026-04-04T11:29:20Z</time></trkpt><trkpt lat="42.66936261002823" lon="9.132859304647917"><ele>220.0</ele><time>2026-04-04T11:29:22Z</time></trkpt><trkpt lat="42.669423481417546" lon="9.132794061290339"><ele>218.49999999999997</ele><time>2026-04-04T11:29:23Z</time></trkpt><trkpt lat="42.66947122342956" lon="9.132733613302863"><ele>217.0</ele><time>2026-04-04T11:29:24Z</time></trkpt><trkpt lat="42.669560754041576" lon="9.132668598572229"><ele>215.5</ele><time>2026-04-04T11:29:26Z</time></trkpt><trkpt lat="42.66968452502702" lon="9.132675797594791"><ele>214.0</ele><time>2026-04-04T11:29:28Z</time></trkpt><trkpt lat="42.669757518586756" lon="9.132696267974904"><ele>212.49999999999997</ele><time>2026-04-04T11:29:29Z</time></trkpt><trkpt lat="42.66982155736483" lon="9.132719213837817"><ele>211.0</ele><time>2026-04-04T11:29:30Z</time></trkpt><trkpt lat="42.66992178461638" lon="9.1327876924421"><ele>210.99999999999997</ele><time>2026-04-04T11:29:32Z</time></trkpt><trkpt lat="42.669992439720744" lon="9.132858969924994"><ele>211.0</ele><time>2026-04-04T11:29:33Z</time></trkpt><trkpt lat="42.670069745056544" lon="9.132939956853019"><ele>211.0</ele><time>2026-04-04T11:29:34Z</time></trkpt><trkpt lat="42.67011979710438" lon="9.133001900674317"><ele>211.0</ele><time>2026-04-04T11:29:35Z</time></trkpt><trkpt lat="42.67017878563161" lon="9.133089433926573"><ele>210.99999999999997</ele><time>2026-04-04T11:29:36Z</time></trkpt><trkpt lat="42.67024945160074" lon="9.133194954797652"><ele>211.0</ele><time>2026-04-04T11:29:37Z</time></trkpt><trkpt lat="42.67031579417272" lon="9.133287514808805"><ele>208.99999999999997</ele><time>2026-04-04T11:29:38Z</time></trkpt><trkpt lat="42.6703758112787" lon="9.133363669057795"><ele>207.0</ele><time>2026-04-04T11:29:39Z</time></trkpt><trkpt lat="42.670430107695" lon="9.133434914515245"><ele>205.0</ele><time>2026-04-04T11:29:40Z</time></trkpt><trkpt lat="42.670503469475385" lon="9.133586045292208"><ele>203.0</ele><time>2026-04-04T11:29:42Z</time></trkpt><trkpt lat="42.670537450700024" lon="9.13367713684301"><ele>200.99999999999997</ele><time>2026-04-04T11:29:43Z</time></trkpt><trkpt lat="42.67056508004804" lon="9.133780188289586"><ele>199.0</ele><time>2026-04-04T11:29:44Z</time></trkpt><trkpt lat="42.67059973414538" lon="9.133890220684062"><ele>199.0</ele><time>2026-04-04T11:29:45Z</time></trkpt><trkpt lat="42.67067442375603" lon="9.133997942345095"><ele>199.0</ele><time>2026-04-04T11:29:47Z</time></trkpt><trkpt lat="42.67074314298711" lon="9.134074837140624"><ele>199.0</ele><time>2026-04-04T11:29:48Z</time></trkpt><trkpt lat="42.67081937292803" lon="9.134175107727778"><ele>199.0</ele><time>2026-04-04T11:29:49Z</time></trkpt><trkpt lat="42.67087112890627" lon="9.134264620752454"><ele>199.0</ele><time>2026-04-04T11:29:50Z</time></trkpt><trkpt lat="42.670899272260165" lon="9.134344478744731"><ele>196.75</ele><time>2026-04-04T11:29:51Z</time></trkpt><trkpt lat="42.670958900630055" lon="9.134504099914"><ele>194.5</ele><time>2026-04-04T11:29:53Z</time></trkpt><trkpt lat="42.67105898888573" lon="9.134588734868828"><ele>192.25</ele><time>2026-04-04T11:29:55Z</time></trkpt><trkpt lat="42.671142535401955" lon="9.134632373142319"><ele>190.0</ele><time>2026-04-04T11:29:56Z</time></trkpt><trkpt lat="42.67123836060902" lon="9.134714053932425"><ele>190.0</ele><time>2026-04-04T11:29:58Z</time></trkpt><trkpt lat="42.671282490909974" lon="9.134779219115046"><ele>190.0</ele><time>2026-04-04T11:29:59Z</time></trkpt><trkpt lat="42.671340503485425" lon="9.134865543238284"><ele>190.0</ele><time>2026-04-04T11:30:00Z</time></trkpt><trkpt lat="42.67138444741065" lon="9.134957110895396"><ele>190.0</ele><time>2026-04-04T11:30:01Z</time></trkpt><trkpt lat="42.671429135572126" lon="9.135090781590655"><ele>190.0</ele><time>2026-04-04T11:30:02Z</time></trkpt><trkpt lat="42.67147428165586" lon="9.135215936542838"><ele>190.0</ele><time>2026-04-04T11:30:03Z</time></trkpt><trkpt lat="42.67151036290856" lon="9.135299089782508"><ele>191.16666666666669</ele><time>2026-04-04T11:30:04Z</time></trkpt><trkpt lat="42.6715490969001" lon="9.135375353110529"><ele>192.33333333333334</ele><time>2026-04-04T11:30:05Z</time></trkpt><trkpt lat="42.67163279842532" lon="9.135486813642087"><ele>193.5</ele><time>2026-04-04T11:30:07Z</time></trkpt><trkpt lat="42.67169735237248" lon="9.135534874066687"><ele>194.66666666666669</ele><time>2026-04-04T11:30:08Z</time></trkpt><trkpt lat="42.67177934526232" lon="9.135598651235167"><ele>195.83333333333334</ele><time>2026-04-04T11:30:09Z</time></trkpt><trkpt lat="42.671847615900305" lon="9.135666329782566"><ele>197.0</ele><time>2026-04-04T11:30:10Z</time></trkpt><trkpt lat="42.67190406746523" lon="9.135737659574689"><ele>197.66666666666669</ele><time>2026-04-04T11:30:11Z</time></trkpt><trkpt lat="42.67195686401848" lon="9.13579733252202"><ele>198.33333333333334</ele><time>2026-04-04T11:30:12Z</time></trkpt><trkpt lat="42.67203295656796" lon="9.135815649234273"><ele>199.0</ele><time>2026-04-04T11:30:14Z</time></trkpt><trkpt lat="42.67207397115255" lon="9.135740094907836"><ele>199.66666666666669</ele><time>2026-04-04T11:30:16Z</time></trkpt><trkpt lat="42.67207553890406" lon="9.135640146249873"><ele>200.33333333333334</ele><time>2026-04-04T11:30:18Z</time></trkpt><trkpt lat="42.672072646063434" lon="9.135534845602658"><ele>201.0</ele><time>2026-04-04T11:30:20Z</time></trkpt><trkpt lat="42.67213870802783" lon="9.135458347114762"><ele>199.16666666666666</ele><time>2026-04-04T11:30:22Z</time></trkpt><trkpt lat="42.67223309330535" lon="9.135407951614908"><ele>197.33333333333334</ele><time>2026-04-04T11:30:24Z</time></trkpt><trkpt lat="42.67226965360015" lon="9.135308919568546"><ele>195.5</ele><time>2026-04-04T11:30:26Z</time></trkpt><trkpt lat="42.67227889198977" lon="9.135171663297074"><ele>193.66666666666669</ele><time>2026-04-04T11:30:28Z</time></trkpt><trkpt lat="42.672353013018764" lon="9.135076950220219"><ele>191.83333333333334</ele><time>2026-04-04T11:30:30Z</time></trkpt><trkpt lat="42.6724079278016" lon="9.135034326882504"><ele>190.0</ele><time>2026-04-04T11:30:31Z</time></trkpt><trkpt lat="42.672464627861814" lon="9.134994077585102"><ele>190.0</ele><time>2026-04-04T11:30:32Z</time></trkpt><trkpt lat="42.67256294528032" lon="9.13489668830029"><ele>190.0</ele><time>2026-04-04T11:30:34Z</time></trkpt><trkpt lat="42.672623420640434" lon="9.134839074826473"><ele>190.0</ele><time>2026-04-04T11:30:35Z</time></trkpt><trkpt lat="42.67270080233078" lon="9.134798822255085"><ele>190.0</ele><time>2026-04-04T11:30:36Z</time></trkpt><trkpt lat="42.672802806908145" lon="9.134771039348466"><ele>190.0</ele><time>2026-04-04T11:30:37Z</time></trkpt><trkpt lat="42.67289852195947" lon="9.13473859324564"><ele>190.0</ele><time>2026-04-04T11:30:38Z</time></trkpt><trkpt lat="42.67295785624421" lon="9.134707924944914"><ele>190.0</ele><time>2026-04-04T11:30:39Z</time></trkpt><trkpt lat="42.6730338118552" lon="9.134648928806529"><ele>190.0</ele><time>2026-04-04T11:30:40Z</time></trkpt><trkpt lat="42.67311195089229" lon="9.134587370600112"><ele>190.0</ele><time>2026-04-04T11:30:41Z</time></trkpt><trkpt lat="42.673166716753684" lon="9.134543880981425"><ele>190.0</ele><time>2026-04-04T11:30:42Z</time></trkpt><trkpt lat="42.673185096599504" lon="9.134436878089579"><ele>190.0</ele><time>2026-04-04T11:30:44Z</time></trkpt><trkpt lat="42.67310157753472" lon="9.134308028311283"><ele>190.0</ele><time>2026-04-04T11:30:46Z</time></trkpt><trkpt lat="42.672982300856255" lon="9.134256434784591"><ele>190.0</ele><time>2026-04-04T11:30:48Z</time></trkpt><trkpt lat="42.6729126491246" lon="9.134240329082761"><ele>190.0</ele><time>2026-04-04T11:30:49Z</time></trkpt><trkpt lat="42.67283742701125" lon="9.134232183438858"><ele>190.0</ele><time>2026-04-04T11:30:50Z</time></trkpt><trkpt lat="42.67277021879255" lon="9.134193795192076"><ele>190.0</ele><time>2026-04-04T11:30:52Z</time></trkpt><trkpt lat="42.672738622376066" lon="9.134075422851126"><ele>190.0</ele><time>2026-04-04T11:32:56Z</time></trkpt><trkpt lat="42.67278729703127" lon="9.133900561321848"><ele>191.2</ele><time>2026-04-04T11:32:58Z</time></trkpt><trkpt lat="42.6728284690106" lon="9.133814174400708"><ele>192.4</ele><time>2026-04-04T11:32:59Z</time></trkpt><trkpt lat="42.67286158218638" lon="9.13363553266326"><ele>193.60000000000002</ele><time>2026-04-04T11:33:01Z</time></trkpt><trkpt lat="42.67288320626975" lon="9.133520171764413"><ele>194.8</ele><time>2026-04-04T11:33:03Z</time></trkpt><trkpt lat="42.67294495861099" lon="9.133411155974702"><ele>196.0</ele><time>2026-04-04T11:33:05Z</time></trkpt><trkpt lat="42.672999110916024" lon="9.133321986576501"><ele>196.0</ele><time>2026-04-04T11:33:06Z</time></trkpt><trkpt lat="42.673042428574604" lon="9.133235452449027"><ele>196.0</ele><time>2026-04-04T11:33:07Z</time></trkpt><trkpt lat="42.67305081278261" lon="9.133137975432968"><ele>196.0</ele><time>2026-04-04T11:33:08Z</time></trkpt><trkpt lat="42.67303130946837" lon="9.13302088041412"><ele>196.0</ele><time>2026-04-04T11:33:09Z</time></trkpt><trkpt lat="42.673011239179424" lon="9.13287880106196"><ele>196.0</ele><time>2026-04-04T11:33:10Z</time></trkpt><trkpt lat="42.67298012256093" lon="9.132723034180165"><ele>197.49999999999997</ele><time>2026-04-04T11:33:11Z</time></trkpt><trkpt lat="42.67296289331966" lon="9.132595513117469"><ele>199.0</ele><time>2026-04-04T11:33:12Z</time></trkpt><trkpt lat="42.6729548170424" lon="9.13248032348239"><ele>200.5</ele><time>2026-04-04T11:33:13Z</time></trkpt><trkpt lat="42.67293059220887" lon="9.132390013389813"><ele>202.0</ele><time>2026-04-04T11:33:14Z</time></trkpt><trkpt lat="42.672873888431795" lon="9.132288221801378"><ele>203.49999999999997</ele><time>2026-04-04T11:33:15Z</time></trkpt><trkpt lat="42.672824569831896" lon="9.132174900197928"><ele>205.0</ele><time>2026-04-04T11:33:16Z</time></trkpt><trkpt lat="42.672798893934036" lon="9.132059062834776"><ele>203.83333333333331</ele><time>2026-04-04T11:33:17Z</time></trkpt><trkpt lat="42.67276946012387" lon="9.131940672831787"><ele>202.66666666666666</ele><time>2026-04-04T11:33:18Z</time></trkpt><trkpt lat="42.67274276228854" lon="9.131828728621437"><ele>201.5</ele><time>2026-04-04T11:33:19Z</time></trkpt><trkpt lat="42.67275245781765" lon="9.131727947665512"><ele>200.33333333333331</ele><time>2026-04-04T11:33:20Z</time></trkpt><trkpt lat="42.6727050824502" lon="9.131638854502729"><ele>199.16666666666666</ele><time>2026-04-04T11:33:21Z</time></trkpt><trkpt lat="42.672661581187576" lon="9.131541589026542"><ele>198.0</ele><time>2026-04-04T11:33:22Z</time></trkpt><trkpt lat="42.672625021123416" lon="9.131432132169806"><ele>198.0</ele><time>2026-04-04T11:33:23Z</time></trkpt><trkpt lat="42.672570013270196" lon="9.13132449441671"><ele>198.0</ele><time>2026-04-04T11:33:24Z</time></trkpt><trkpt lat="42.67251228056833" lon="9.131216932167591"><ele>198.0</ele><time>2026-04-04T11:33:25Z</time></trkpt><trkpt lat="42.672454672493274" lon="9.131122758324688"><ele>198.0</ele><time>2026-04-04T11:33:26Z</time></trkpt><trkpt lat="42.67240285825323" lon="9.131044544784253"><ele>198.0</ele><time>2026-04-04T11:33:27Z</time></trkpt><trkpt lat="42.67235900683588" lon="9.130979079511608"><ele>198.0</ele><time>2026-04-04T11:33:28Z</time></trkpt><trkpt lat="42.67230327186402" lon="9.13089587350872"><ele>198.0</ele><time>2026-04-04T11:33:29Z</time></trkpt><trkpt lat="42.67225017395431" lon="9.130815481070234"><ele>198.0</ele><time>2026-04-04T11:33:30Z</time></trkpt><trkpt lat="42.6721931671551" lon="9.130728185597409"><ele>198.0</ele><time>2026-04-04T11:33:31Z</time></trkpt><trkpt lat="42.67213605275569" lon="9.130640725334297"><ele>198.0</ele><time>2026-04-04T11:33:32Z</time></trkpt><trkpt lat="42.67206792340144" lon="9.130536397779533"><ele>198.0</ele><time>2026-04-04T11:33:33Z</time></trkpt><trkpt lat="42.67199557326509" lon="9.130424361428059"><ele>196.2</ele><time>2026-04-04T11:33:34Z</time></trkpt><trkpt lat="42.67192270300869" lon="9.130310930949621"><ele>194.4</ele><time>2026-04-04T11:33:35Z</time></trkpt><trkpt lat="42.671852533097066" lon="9.130201703883923"><ele>192.6</ele><time>2026-04-04T11:33:36Z</time></trkpt><trkpt lat="42.671796724490896" lon="9.130108832771837"><ele>190.79999999999998</ele><time>2026-04-04T11:33:37Z</time></trkpt><trkpt lat="42.67174820027015" lon="9.130021252783719"><ele>189.0</ele><time>2026-04-04T11:33:38Z</time></trkpt><trkpt lat="42.671701444012506" lon="9.129927846490412"><ele>190.0</ele><time>2026-04-04T11:33:39Z</time></trkpt><trkpt lat="42.67164643892437" lon="9.129816772494118"><ele>191.0</ele><time>2026-04-04T11:33:40Z</time></trkpt><trkpt lat="42.671589447905184" lon="9.129701688127437"><ele>192.0</ele><time>2026-04-04T11:33:41Z</time></trkpt><trkpt lat="42.67153269691875" lon="9.129589198888524"><ele>193.0</ele><time>2026-04-04T11:33:42Z</time></trkpt><trkpt lat="42.67147686472836" lon="9.129490160169347"><ele>194.0</ele><time>2026-04-04T11:33:43Z</time></trkpt><trkpt lat="42.67142922131949" lon="9.129420606955245"><ele>194.0</ele><time>2026-04-04T11:33:44Z</time></trkpt><trkpt lat="42.671366773901205" lon="9.129359990345188"><ele>194.0</ele><time>2026-04-04T11:33:45Z</time></trkpt><trkpt lat="42.67127540849363" lon="9.129314710816363"><ele>194.0</ele><time>2026-04-04T11:33:46Z</time></trkpt><trkpt lat="42.67119583318496" lon="9.129234037220751"><ele>194.0</ele><time>2026-04-04T11:33:47Z</time></trkpt><trkpt lat="42.67111269085805" lon="9.129170545210322"><ele>194.0</ele><time>2026-04-04T11:33:48Z</time></trkpt><trkpt lat="42.671043599691124" lon="9.129102783688067"><ele>193.2</ele><time>2026-04-04T11:33:49Z</time></trkpt><trkpt lat="42.67096134704157" lon="9.129022582448728"><ele>192.39999999999998</ele><time>2026-04-04T11:33:50Z</time></trkpt><trkpt lat="42.670870530593746" lon="9.1289508524232"><ele>191.6</ele><time>2026-04-04T11:33:51Z</time></trkpt><trkpt lat="42.67078260718416" lon="9.128886318087469"><ele>190.8</ele><time>2026-04-04T11:33:52Z</time></trkpt><trkpt lat="42.67070795936762" lon="9.128833768496678"><ele>190.0</ele><time>2026-04-04T11:33:53Z</time></trkpt><trkpt lat="42.67063280934135" lon="9.128784707760788"><ele>190.0</ele><time>2026-04-04T11:33:54Z</time></trkpt><trkpt lat="42.67056926790182" lon="9.128743947637226"><ele>190.0</ele><time>2026-04-04T11:33:55Z</time></trkpt><trkpt lat="42.67050867287642" lon="9.128705077831146"><ele>190.0</ele><time>2026-04-04T11:33:56Z</time></trkpt><trkpt lat="42.67045383227329" lon="9.128658721082791"><ele>190.0</ele><time>2026-04-04T11:33:57Z</time></trkpt><trkpt lat="42.67038823085249" lon="9.128598676897766"><ele>190.0</ele><time>2026-04-04T11:33:58Z</time></trkpt><trkpt lat="42.67031596170779" lon="9.128513403217221"><ele>190.0</ele><time>2026-04-04T11:33:59Z</time></trkpt><trkpt lat="42.670271908107374" lon="9.128444547894466"><ele>190.0</ele><time>2026-04-04T11:34:00Z</time></trkpt><trkpt lat="42.6702226529878" lon="9.128310038730387"><ele>188.33333333333334</ele><time>2026-04-04T11:34:02Z</time></trkpt><trkpt lat="42.67022675868146" lon="9.128207519693916"><ele>186.66666666666669</ele><time>2026-04-04T11:34:03Z</time></trkpt><trkpt lat="42.670235073798985" lon="9.128098117773842"><ele>185.0</ele><time>2026-04-04T11:34:04Z</time></trkpt><trkpt lat="42.6702391616299" lon="9.127992176453265"><ele>183.33333333333334</ele><time>2026-04-04T11:34:05Z</time></trkpt><trkpt lat="42.670229410486634" lon="9.127890784325588"><ele>181.66666666666666</ele><time>2026-04-04T11:34:06Z</time></trkpt><trkpt lat="42.67021826927146" lon="9.127789991756892"><ele>180.0</ele><time>2026-04-04T11:34:07Z</time></trkpt><trkpt lat="42.670188214795644" lon="9.127678588997977"><ele>180.0</ele><time>2026-04-04T11:34:08Z</time></trkpt><trkpt lat="42.67014330402842" lon="9.127524499532749"><ele>180.0</ele><time>2026-04-04T11:34:09Z</time></trkpt><trkpt lat="42.6701075445179" lon="9.127368780452798"><ele>180.0</ele><time>2026-04-04T11:34:10Z</time></trkpt><trkpt lat="42.67008193857392" lon="9.127238276226194"><ele>180.0</ele><time>2026-04-04T11:34:11Z</time></trkpt><trkpt lat="42.6700646589662" lon="9.12712747519742"><ele>180.0</ele><time>2026-04-04T11:34:12Z</time></trkpt><trkpt lat="42.670037662439704" lon="9.126979545268261"><ele>179.0</ele><time>2026-04-04T11:34:14Z</time></trkpt><trkpt lat="42.66994640354517" lon="9.126860045347224"><ele>178.0</ele><time>2026-04-04T11:34:16Z</time></trkpt><trkpt lat="42.66984654659805" lon="9.126857188694785"><ele>177.0</ele><time>2026-04-04T11:34:18Z</time></trkpt><trkpt lat="42.6697860391485" lon="9.126915375432018"><ele>176.0</ele><time>2026-04-04T11:34:19Z</time></trkpt><trkpt lat="42.66970713289977" lon="9.126998572910587"><ele>175.0</ele><time>2026-04-04T11:34:20Z</time></trkpt><trkpt lat="42.669630593161834" lon="9.127075651394469"><ele>175.0</ele><time>2026-04-04T11:34:21Z</time></trkpt><trkpt lat="42.66957034029526" lon="9.127135951981966"><ele>175.0</ele><time>2026-04-04T11:34:22Z</time></trkpt><trkpt lat="42.66949797279587" lon="9.127265212819301"><ele>175.0</ele><time>2026-04-04T11:34:24Z</time></trkpt><trkpt lat="42.66947144421744" lon="9.127378572628686"><ele>175.0</ele><time>2026-04-04T11:34:25Z</time></trkpt><trkpt lat="42.6694490276873" lon="9.12749407328805"><ele>175.0</ele><time>2026-04-04T11:34:26Z</time></trkpt><trkpt lat="42.6694461894011" lon="9.127582732829792"><ele>175.0</ele><time>2026-04-04T11:34:27Z</time></trkpt><trkpt lat="42.669459353902056" lon="9.12768305068943"><ele>175.83333333333334</ele><time>2026-04-04T11:34:28Z</time></trkpt><trkpt lat="42.66947782690879" lon="9.127772227192448"><ele>176.66666666666669</ele><time>2026-04-04T11:34:29Z</time></trkpt><trkpt lat="42.66939354311501" lon="9.127805739212706"><ele>177.5</ele><time>2026-04-04T11:34:32Z</time></trkpt><trkpt lat="42.66931330366648" lon="9.127747878420388"><ele>178.33333333333334</ele><time>2026-04-04T11:34:34Z</time></trkpt><trkpt lat="42.669269222592604" lon="9.127649357766543"><ele>179.16666666666666</ele><time>2026-04-04T11:34:35Z</time></trkpt><trkpt lat="42.66922491258787" lon="9.127536972500195"><ele>180.0</ele><time>2026-04-04T11:34:36Z</time></trkpt><trkpt lat="42.66918884282209" lon="9.127441321972041"><ele>176.25</ele><time>2026-04-04T11:34:37Z</time></trkpt><trkpt lat="42.66918592022399" lon="9.127259744614818"><ele>172.5</ele><time>2026-04-04T11:34:39Z</time></trkpt><trkpt lat="42.669197031475264" lon="9.127098608399708"><ele>168.75</ele><time>2026-04-04T11:34:40Z</time></trkpt><trkpt lat="42.66921318756449" lon="9.126880232665677"><ele>165.0</ele><time>2026-04-04T11:34:41Z</time></trkpt><trkpt lat="42.66921559384137" lon="9.126684840277793"><ele>162.0</ele><time>2026-04-04T11:34:42Z</time></trkpt><trkpt lat="42.66921886806108" lon="9.1265018243745"><ele>159.0</ele><time>2026-04-04T11:34:43Z</time></trkpt><trkpt lat="42.66921882146263" lon="9.126292437854115"><ele>156.0</ele><time>2026-04-04T11:34:45Z</time></trkpt><trkpt lat="42.66922732284453" lon="9.12616624481064"><ele>153.0</ele><time>2026-04-04T11:34:46Z</time></trkpt><trkpt lat="42.66925490156232" lon="9.126070896768804"><ele>153.0</ele><time>2026-04-04T11:34:47Z</time></trkpt><trkpt lat="42.66930806239007" lon="9.125947458224347"><ele>153.0</ele><time>2026-04-04T11:34:49Z</time></trkpt><trkpt lat="42.66939453551662" lon="9.125828625097094"><ele>153.0</ele><time>2026-04-04T11:34:51Z</time></trkpt><trkpt lat="42.66945550683673" lon="9.12579457699752"><ele>153.0</ele><time>2026-04-04T11:34:52Z</time></trkpt><trkpt lat="42.669522114106044" lon="9.12576880282616"><ele>153.0</ele><time>2026-04-04T11:34:53Z</time></trkpt><trkpt lat="42.66961079990995" lon="9.125746430056218"><ele>151.20000000000002</ele><time>2026-04-04T11:34:54Z</time></trkpt><trkpt lat="42.669693804319834" lon="9.125712585466676"><ele>149.4</ele><time>2026-04-04T11:34:55Z</time></trkpt><trkpt lat="42.66977762109221" lon="9.125658534232937"><ele>147.60000000000002</ele><time>2026-04-04T11:34:56Z</time></trkpt><trkpt lat="42.6698622980903" lon="9.125597089996925"><ele>145.8</ele><time>2026-04-04T11:34:57Z</time></trkpt><trkpt lat="42.66994223658221" lon="9.125525102666098"><ele>144.0</ele><time>2026-04-04T11:34:58Z</time></trkpt><trkpt lat="42.67002496925939" lon="9.12544193992361"><ele>144.0</ele><time>2026-04-04T11:34:59Z</time></trkpt><trkpt lat="42.670082704189944" lon="9.125388969786014"><ele>144.0</ele><time>2026-04-04T11:35:00Z</time></trkpt><trkpt lat="42.670162725408325" lon="9.125393790691687"><ele>144.0</ele><time>2026-04-04T11:35:02Z</time></trkpt><trkpt lat="42.670253886127696" lon="9.12549426883128"><ele>144.0</ele><time>2026-04-04T11:35:04Z</time></trkpt><trkpt lat="42.67032646234824" lon="9.125593932086563"><ele>144.0</ele><time>2026-04-04T11:35:07Z</time></trkpt><trkpt lat="42.670401732291396" lon="9.12568593010369"><ele>145.75</ele><time>2026-04-04T11:35:08Z</time></trkpt><trkpt lat="42.6704939582116" lon="9.125795063241169"><ele>147.5</ele><time>2026-04-04T11:35:09Z</time></trkpt><trkpt lat="42.67057961432928" lon="9.125888129871457"><ele>149.25</ele><time>2026-04-04T11:35:10Z</time></trkpt><trkpt lat="42.6706775994418" lon="9.12597659149708"><ele>151.0</ele><time>2026-04-04T11:35:11Z</time></trkpt><trkpt lat="42.67076643621369" lon="9.126040357386245"><ele>151.0</ele><time>2026-04-04T11:35:12Z</time></trkpt><trkpt lat="42.670838772183885" lon="9.126061132424201"><ele>151.0</ele><time>2026-04-04T11:35:13Z</time></trkpt><trkpt lat="42.670915313569424" lon="9.126018993064795"><ele>151.0</ele><time>2026-04-04T11:35:16Z</time></trkpt><trkpt lat="42.670982018621594" lon="9.12587311236053"><ele>151.0</ele><time>2026-04-04T11:35:18Z</time></trkpt><trkpt lat="42.67101685900099" lon="9.125772876658527"><ele>151.0</ele><time>2026-04-04T11:35:19Z</time></trkpt><trkpt lat="42.67105472145792" lon="9.125681157833071"><ele>151.0</ele><time>2026-04-04T11:35:20Z</time></trkpt><trkpt lat="42.67110134708911" lon="9.125623529253645"><ele>148.75</ele><time>2026-04-04T11:35:21Z</time></trkpt><trkpt lat="42.671194397736045" lon="9.125569652793942"><ele>146.5</ele><time>2026-04-04T11:35:23Z</time></trkpt><trkpt lat="42.67131925635774" lon="9.125588491833586"><ele>144.25</ele><time>2026-04-04T11:35:25Z</time></trkpt><trkpt lat="42.67139177038957" lon="9.125659730685198"><ele>142.0</ele><time>2026-04-04T11:35:27Z</time></trkpt><trkpt lat="42.67152667334044" lon="9.125802943994945"><ele>142.0</ele><time>2026-04-04T11:35:29Z</time></trkpt><trkpt lat="42.67160043133284" lon="9.125897088384406"><ele>142.0</ele><time>2026-04-04T11:35:30Z</time></trkpt><trkpt lat="42.67165097180391" lon="9.125989633822938"><ele>142.0</ele><time>2026-04-04T11:35:31Z</time></trkpt><trkpt lat="42.671694527214854" lon="9.126096078048825"><ele>142.0</ele><time>2026-04-04T11:35:32Z</time></trkpt><trkpt lat="42.67172374107241" lon="9.126185401985849"><ele>142.0</ele><time>2026-04-04T11:35:33Z</time></trkpt><trkpt lat="42.6717852442091" lon="9.126236715260177"><ele>142.0</ele><time>2026-04-04T11:35:35Z</time></trkpt><trkpt lat="42.67189556459434" lon="9.126184627903429"><ele>143.0</ele><time>2026-04-04T11:35:37Z</time></trkpt><trkpt lat="42.671974109715535" lon="9.126186450532149"><ele>144.0</ele><time>2026-04-04T11:35:38Z</time></trkpt><trkpt lat="42.672042924905796" lon="9.126167217967946"><ele>145.0</ele><time>2026-04-04T11:35:40Z</time></trkpt><trkpt lat="42.67204663496003" lon="9.12607120850081"><ele>146.0</ele><time>2026-04-04T11:35:42Z</time></trkpt><trkpt lat="42.67200449065018" lon="9.125897683463448"><ele>147.0</ele><time>2026-04-04T11:35:44Z</time></trkpt><trkpt lat="42.671999936351355" lon="9.125808706583268"><ele>148.0</ele><time>2026-04-04T11:35:45Z</time></trkpt><trkpt lat="42.67206062859957" lon="9.125684601166679"><ele>148.20000000000002</ele><time>2026-04-04T11:35:47Z</time></trkpt><trkpt lat="42.67217046050994" lon="9.125637443514627"><ele>148.4</ele><time>2026-04-04T11:35:49Z</time></trkpt><trkpt lat="42.67217789063227" lon="9.125532049523855"><ele>148.60000000000002</ele><time>2026-04-04T11:35:52Z</time></trkpt><trkpt lat="42.67208942103273" lon="9.125409371154332"><ele>148.8</ele><time>2026-04-04T11:35:54Z</time></trkpt><trkpt lat="42.67203981466377" lon="9.12534128307687"><ele>149.0</ele><time>2026-04-04T11:35:55Z</time></trkpt><trkpt lat="42.67203709146936" lon="9.125218567434995"><ele>149.0</ele><time>2026-04-04T11:35:56Z</time></trkpt><trkpt lat="42.671985192619246" lon="9.125142309070927"><ele>149.0</ele><time>2026-04-04T11:35:57Z</time></trkpt><trkpt lat="42.67189915716715" lon="9.125106714616074"><ele>149.0</ele><time>2026-04-04T11:35:58Z</time></trkpt><trkpt lat="42.67189490405293" lon="9.124996304085872"><ele>149.0</ele><time>2026-04-04T11:35:59Z</time></trkpt><trkpt lat="42.671839452651724" lon="9.124856389157175"><ele>149.0</ele><time>2026-04-04T11:36:01Z</time></trkpt><trkpt lat="42.67179566924645" lon="9.124706898971594"><ele>145.2</ele><time>2026-04-04T11:36:03Z</time></trkpt><trkpt lat="42.671812726669344" lon="9.124622583665158"><ele>141.4</ele><time>2026-04-04T11:36:04Z</time></trkpt><trkpt lat="42.6717972502863" lon="9.124438060856981"><ele>137.6</ele><time>2026-04-04T11:36:06Z</time></trkpt><trkpt lat="42.67178821879623" lon="9.124327777916635"><ele>133.8</ele><time>2026-04-04T11:36:07Z</time></trkpt><trkpt lat="42.67176738612812" lon="9.12420916008762"><ele>130.0</ele><time>2026-04-04T11:36:08Z</time></trkpt><trkpt lat="42.67175465570038" lon="9.124084138475686"><ele>129.0</ele><time>2026-04-04T11:36:09Z</time></trkpt><trkpt lat="42.67173907849387" lon="9.123964095259016"><ele>128.0</ele><time>2026-04-04T11:36:10Z</time></trkpt><trkpt lat="42.671749215145866" lon="9.123857371808485"><ele>127.0</ele><time>2026-04-04T11:36:11Z</time></trkpt><trkpt lat="42.67174715337434" lon="9.123722093692399"><ele>126.0</ele><time>2026-04-04T11:36:13Z</time></trkpt><trkpt lat="42.67170415180857" lon="9.123619234572237"><ele>125.00000000000001</ele><time>2026-04-04T11:37:03Z</time></trkpt><trkpt lat="42.671667364951915" lon="9.123519611189174"><ele>124.0</ele><time>2026-04-04T11:37:07Z</time></trkpt><trkpt lat="42.67158077077217" lon="9.123460464046504"><ele>124.00000000000001</ele><time>2026-04-04T11:37:10Z</time></trkpt><trkpt lat="42.67153657843929" lon="9.123389221146162"><ele>124.0</ele><time>2026-04-04T11:37:14Z</time></trkpt><trkpt lat="42.67147304764712" lon="9.123345213177819"><ele>124.0</ele><time>2026-04-04T11:37:17Z</time></trkpt><trkpt lat="42.6715277669348" lon="9.123216268845816"><ele>124.0</ele><time>2026-04-04T11:37:37Z</time></trkpt><trkpt lat="42.671452539710046" lon="9.123201478953835"><ele>124.00000000000001</ele><time>2026-04-04T11:37:46Z</time></trkpt><trkpt lat="42.67142888146055" lon="9.12311572683367"><ele>124.0</ele><time>2026-04-04T11:37:50Z</time></trkpt><trkpt lat="42.67148690605522" lon="9.123073575301737"><ele>123.57142857142858</ele><time>2026-04-04T11:37:54Z</time></trkpt><trkpt lat="42.67146670197633" lon="9.122985136987628"><ele>123.14285714285715</ele><time>2026-04-04T11:39:01Z</time></trkpt><trkpt lat="42.67150291734757" lon="9.123059097610257"><ele>122.71428571428572</ele><time>2026-04-04T11:39:18Z</time></trkpt><trkpt lat="42.67150260513851" lon="9.123148387591371"><ele>122.28571428571428</ele><time>2026-04-04T11:39:21Z</time></trkpt><trkpt lat="42.67145497145443" lon="9.123082186254186"><ele>121.85714285714285</ele><time>2026-04-04T11:39:31Z</time></trkpt><trkpt lat="42.671389838875484" lon="9.123079447718457"><ele>121.42857142857142</ele><time>2026-04-04T11:39:39Z</time></trkpt><trkpt lat="42.67137745235649" lon="9.1229833960687"><ele>121.0</ele><time>2026-04-04T11:39:57Z</time></trkpt><trkpt lat="42.67144160672749" lon="9.122973952288081"><ele>121.0</ele><time>2026-04-04T11:40:17Z</time></trkpt><trkpt lat="42.6713673530822" lon="9.122992009610849"><ele>120.99999999999999</ele><time>2026-04-04T11:41:36Z</time></trkpt><trkpt lat="42.67138339533221" lon="9.123077895993202"><ele>121.0</ele><time>2026-04-04T11:42:07Z</time></trkpt><trkpt lat="42.67138698533692" lon="9.123182011884621"><ele>121.0</ele><time>2026-04-04T11:42:15Z</time></trkpt><trkpt lat="42.67144806676708" lon="9.12320599468169"><ele>120.99999999999999</ele><time>2026-04-04T11:42:28Z</time></trkpt><trkpt lat="42.67150532290221" lon="9.123165649863232"><ele>121.0</ele><time>2026-04-04T11:42:44Z</time></trkpt><trkpt lat="42.671568270219204" lon="9.123141635205764"><ele>121.0</ele><time>2026-04-04T11:42:55Z</time></trkpt><trkpt lat="42.671612096847724" lon="9.1232047713936"><ele>121.42857142857142</ele><time>2026-04-04T11:43:09Z</time></trkpt><trkpt lat="42.67165442163801" lon="9.123291141087652"><ele>121.85714285714285</ele><time>2026-04-04T11:43:26Z</time></trkpt><trkpt lat="42.671704277868876" lon="9.123347246713285"><ele>122.28571428571428</ele><time>2026-04-04T11:43:33Z</time></trkpt><trkpt lat="42.67176247634937" lon="9.123401057052742"><ele>122.71428571428572</ele><time>2026-04-04T11:43:46Z</time></trkpt><trkpt lat="42.67174728019199" lon="9.123499736465527"><ele>123.14285714285715</ele><time>2026-04-04T11:43:54Z</time></trkpt><trkpt lat="42.67168796988678" lon="9.12353521228514"><ele>123.57142857142858</ele><time>2026-04-04T11:44:03Z</time></trkpt><trkpt lat="42.671664858768494" lon="9.12344070148591"><ele>124.0</ele><time>2026-04-04T11:44:32Z</time></trkpt><trkpt lat="42.67173332496587" lon="9.123489472325458"><ele>124.00000000000001</ele><time>2026-04-04T11:44:48Z</time></trkpt><trkpt lat="42.67177349265453" lon="9.123560981690272"><ele>124.0</ele><time>2026-04-04T11:44:56Z</time></trkpt><trkpt lat="42.67185758946182" lon="9.123557178298466"><ele>124.0</ele><time>2026-04-04T11:45:18.078Z</time></trkpt><trkpt lat="42.67171616097627" lon="9.12361454697327"><ele>124.0</ele><time>2026-04-04T11:45:28.037Z</time></trkpt><trkpt lat="42.67167323508314" lon="9.123548175409761"><ele>124.00000000000001</ele><time>2026-04-04T11:45:31Z</time></trkpt><trkpt lat="42.67164501426531" lon="9.123447033033576"><ele>124.0</ele><time>2026-04-04T11:45:37Z</time></trkpt><trkpt lat="42.67166073377395" lon="9.123353429590157"><ele>124.00000000000001</ele><time>2026-04-04T11:45:42Z</time></trkpt><trkpt lat="42.671580185083286" lon="9.12335812973371"><ele>124.0</ele><time>2026-04-04T11:45:52Z</time></trkpt><trkpt lat="42.67154247678523" lon="9.123439880364314"><ele>124.0</ele><time>2026-04-04T11:46:08Z</time></trkpt><trkpt lat="42.6715062211097" lon="9.123538161212098"><ele>124.0</ele><time>2026-04-04T11:46:11Z</time></trkpt><trkpt lat="42.67145724998554" lon="9.123637505041232"><ele>124.00000000000001</ele><time>2026-04-04T11:46:14Z</time></trkpt><trkpt lat="42.671429792028555" lon="9.123720961104851"><ele>124.0</ele><time>2026-04-04T11:46:16Z</time></trkpt><trkpt lat="42.6713801987047" lon="9.123830525458681"><ele>124.0</ele><time>2026-04-04T11:46:19Z</time></trkpt><trkpt lat="42.6714856678168" lon="9.123562169773342"><ele>124.0</ele><time>2026-04-04T11:46:20.073Z</time></trkpt><trkpt lat="42.67141551318516" lon="9.123645729800948"><ele>124.0</ele><time>2026-04-04T11:46:49.031Z</time></trkpt><trkpt lat="42.671264685838835" lon="9.123566389456808"><ele>123.5</ele><time>2026-04-04T11:46:50.033Z</time></trkpt><trkpt lat="42.67107963765542" lon="9.123406908293948"><ele>123.0</ele><time>2026-04-04T11:46:55.034Z</time></trkpt><trkpt lat="42.67098819320405" lon="9.123322912097734"><ele>122.5</ele><time>2026-04-04T11:46:56.034Z</time></trkpt><trkpt lat="42.67091284981109" lon="9.123267332734443"><ele>122.0</ele><time>2026-04-04T11:46:57.033Z</time></trkpt><trkpt lat="42.67085698802289" lon="9.12322545308822"><ele>121.75</ele><time>2026-04-04T11:46:59.032Z</time></trkpt><trkpt lat="42.67077985799817" lon="9.123166477772992"><ele>121.5</ele><time>2026-04-04T11:47:01.033Z</time></trkpt><trkpt lat="42.670937354745774" lon="9.123145670357761"><ele>121.25</ele><time>2026-04-04T11:47:06.021Z</time></trkpt><trkpt lat="42.67106089950487" lon="9.123096033228114"><ele>121.0</ele><time>2026-04-04T11:47:08.018Z</time></trkpt><trkpt lat="42.67112573117834" lon="9.123023784281813"><ele>121.0</ele><time>2026-04-04T11:47:11.016Z</time></trkpt><trkpt lat="42.671177744952665" lon="9.123104683909297"><ele>121.0</ele><time>2026-04-04T11:47:27.003Z</time></trkpt><trkpt lat="42.67148041567586" lon="9.123209387836027"><ele>121.0</ele><time>2026-04-04T11:47:43.013Z</time></trkpt><trkpt lat="42.67159289051584" lon="9.123311631482368"><ele>121.50000000000001</ele><time>2026-04-04T11:47:50.014Z</time></trkpt><trkpt lat="42.6716696532043" lon="9.123365282083242"><ele>122.0</ele><time>2026-04-04T11:48:07Z</time></trkpt><trkpt lat="42.67160554786599" lon="9.123359431675269"><ele>122.5</ele><time>2026-04-04T11:48:20.011Z</time></trkpt><trkpt lat="42.67167132759088" lon="9.123423045863609"><ele>123.0</ele><time>2026-04-04T11:48:27.009Z</time></trkpt><trkpt lat="42.671739919167436" lon="9.123447914786256"><ele>123.50000000000001</ele><time>2026-04-04T11:48:30.008Z</time></trkpt><trkpt lat="42.671683957029316" lon="9.12336587739588"><ele>124.0</ele><time>2026-04-04T11:48:32.008Z</time></trkpt><trkpt lat="42.67172259662997" lon="9.123287549605887"><ele>124.0</ele><time>2026-04-04T11:48:36.007Z</time></trkpt><trkpt lat="42.67175702638914" lon="9.123196542034135"><ele>124.0</ele><time>2026-04-04T11:48:38.007Z</time></trkpt><trkpt lat="42.67186240235325" lon="9.12338922131608"><ele>124.0</ele><time>2026-04-04T11:48:55.005Z</time></trkpt><trkpt lat="42.671702300227764" lon="9.123444889805281"><ele>124.0</ele><time>2026-04-04T11:49:05.005Z</time></trkpt><trkpt lat="42.671634493647716" lon="9.123359036203656"><ele>124.00000000000001</ele><time>2026-04-04T11:49:14.004Z</time></trkpt><trkpt lat="42.67166330265125" lon="9.123277865041842"><ele>124.0</ele><time>2026-04-04T11:49:18.004Z</time></trkpt><trkpt lat="42.67165633486219" lon="9.123192517658142"><ele>124.0</ele><time>2026-04-04T11:49:21.004Z</time></trkpt><trkpt lat="42.671675417113846" lon="9.123293559210795"><ele>124.0</ele><time>2026-04-04T11:49:24.004Z</time></trkpt><trkpt lat="42.671670373783705" lon="9.123205987092838"><ele>124.00000000000001</ele><time>2026-04-04T11:49:37.075Z</time></trkpt><trkpt lat="42.67165011209999" lon="9.12309392105895"><ele>124.0</ele><time>2026-04-04T11:49:41.05Z</time></trkpt><trkpt lat="42.671683997604006" lon="9.122969840119133"><ele>124.0</ele><time>2026-04-04T11:49:44.042Z</time></trkpt><trkpt lat="42.67150228258734" lon="9.12339510414748"><ele>124.0</ele><time>2026-04-04T11:49:45.044Z</time></trkpt><trkpt lat="42.6714453741594" lon="9.123547035573019"><ele>124.0</ele><time>2026-04-04T11:49:46.043Z</time></trkpt><trkpt lat="42.671415034148716" lon="9.123630521454276"><ele>124.00000000000001</ele><time>2026-04-04T11:49:47.045Z</time></trkpt><trkpt lat="42.6714737192743" lon="9.123598433131834"><ele>124.0</ele><time>2026-04-04T11:49:50.003Z</time></trkpt><trkpt lat="42.67150975246077" lon="9.123520197552935"><ele>124.0</ele><time>2026-04-04T11:50:11.003Z</time></trkpt><trkpt lat="42.671446874149794" lon="9.123456188656014"><ele>124.00000000000001</ele><time>2026-04-04T11:51:38.988Z</time></trkpt><trkpt lat="42.67151100727095" lon="9.123428947564866"><ele>124.0</ele><time>2026-04-04T11:51:43Z</time></trkpt><trkpt lat="42.67151048045893" lon="9.123328383205628"><ele>124.0</ele><time>2026-04-04T11:52:07.999Z</time></trkpt><trkpt lat="42.6714734100553" lon="9.123251885203256"><ele>123.57142857142858</ele><time>2026-04-04T11:52:16.999Z</time></trkpt><trkpt lat="42.67145458912505" lon="9.12315181884778"><ele>123.14285714285715</ele><time>2026-04-04T11:52:40.991Z</time></trkpt><trkpt lat="42.67145176425533" lon="9.123053068498692"><ele>122.71428571428572</ele><time>2026-04-04T11:52:48.992Z</time></trkpt><trkpt lat="42.671491307068194" lon="9.122976069981206"><ele>122.28571428571428</ele><time>2026-04-04T11:53:00.993Z</time></trkpt><trkpt lat="42.671531195350944" lon="9.12288735755389"><ele>121.85714285714285</ele><time>2026-04-04T11:53:03.994Z</time></trkpt><trkpt lat="42.67152623715793" lon="9.122800649620164"><ele>121.42857142857142</ele><time>2026-04-04T11:53:07.994Z</time></trkpt><trkpt lat="42.67156756212856" lon="9.122878155446594"><ele>121.0</ele><time>2026-04-04T11:53:11.994Z</time></trkpt><trkpt lat="42.671532806072356" lon="9.12296773803027"><ele>121.0</ele><time>2026-04-04T11:53:16.994Z</time></trkpt><trkpt lat="42.671540884356844" lon="9.123075715070101"><ele>121.0</ele><time>2026-04-04T11:53:19.994Z</time></trkpt><trkpt lat="42.67149510386776" lon="9.123012044732834"><ele>121.0</ele><time>2026-04-04T11:53:20.994Z</time></trkpt><trkpt lat="42.67144605630982" lon="9.123083448706982"><ele>121.0</ele><time>2026-04-04T11:53:41.994Z</time></trkpt></trkseg><trkseg><trkpt lat="42.671699209014825" lon="9.141766617746041"><ele>296.0</ele><time>2026-04-04T12:58:37Z</time></trkpt><trkpt lat="42.671674302622364" lon="9.141851734060017"><ele>296.0</ele><time>2026-04-04T13:00:12Z</time></trkpt><trkpt lat="42.67172344972245" lon="9.141796670359064"><ele>296.0</ele><time>2026-04-04T13:00:30Z</time></trkpt><trkpt lat="42.67169259565787" lon="9.14189638974064"><ele>296.0</ele><time>2026-04-04T13:02:37Z</time></trkpt><trkpt lat="42.67166747496137" lon="9.142033377282855"><ele>296.0</ele><time>2026-04-04T13:02:50Z</time></trkpt><trkpt lat="42.67165332895477" lon="9.142178447830947"><ele>296.0</ele><time>2026-04-04T13:02:52Z</time></trkpt><trkpt lat="42.671607957509714" lon="9.14235097034137"><ele>296.0</ele><time>2026-04-04T13:02:54Z</time></trkpt><trkpt lat="42.67156017815493" lon="9.14246499106195"><ele>296.0</ele><time>2026-04-04T13:02:55Z</time></trkpt><trkpt lat="42.671505609028564" lon="9.142572015941317"><ele>296.0</ele><time>2026-04-04T13:02:56Z</time></trkpt><trkpt lat="42.671451389697395" lon="9.142679111944602"><ele>296.0</ele><time>2026-04-04T13:02:57Z</time></trkpt><trkpt lat="42.671413524646084" lon="9.142763452090826"><ele>296.0</ele><time>2026-04-04T13:02:58Z</time></trkpt><trkpt lat="42.67135247504282" lon="9.142814947772822"><ele>296.0</ele><time>2026-04-04T13:03:01Z</time></trkpt><trkpt lat="42.671278908930525" lon="9.142781342648316"><ele>296.0</ele><time>2026-04-04T13:03:07Z</time></trkpt><trkpt lat="42.67115132075739" lon="9.14265284893047"><ele>296.0</ele><time>2026-04-04T13:03:09Z</time></trkpt><trkpt lat="42.671046137688975" lon="9.142547730777919"><ele>296.0</ele><time>2026-04-04T13:03:10Z</time></trkpt><trkpt lat="42.670920934581964" lon="9.142422736054924"><ele>296.0</ele><time>2026-04-04T13:03:11Z</time></trkpt><trkpt lat="42.6708335772739" lon="9.142339559523249"><ele>298.2</ele><time>2026-04-04T13:03:12Z</time></trkpt><trkpt lat="42.670766324101194" lon="9.14222926317125"><ele>300.40000000000003</ele><time>2026-04-04T13:03:14Z</time></trkpt><trkpt lat="42.67073284965244" lon="9.142116247519297"><ele>302.6</ele><time>2026-04-04T13:03:16Z</time></trkpt><trkpt lat="42.67070665534566" lon="9.14201012895192"><ele>304.8</ele><time>2026-04-04T13:03:24Z</time></trkpt><trkpt lat="42.670659078352955" lon="9.141945501493948"><ele>307.0</ele><time>2026-04-04T13:03:30Z</time></trkpt><trkpt lat="42.67058151307755" lon="9.141818903840235"><ele>307.0</ele><time>2026-04-04T13:03:33Z</time></trkpt><trkpt lat="42.67054392669721" lon="9.141729971303967"><ele>307.0</ele><time>2026-04-04T13:03:34Z</time></trkpt><trkpt lat="42.67051895838218" lon="9.141650031560287"><ele>307.0</ele><time>2026-04-04T13:03:36Z</time></trkpt><trkpt lat="42.67047093757327" lon="9.14153683413548"><ele>307.0</ele><time>2026-04-04T13:04:22Z</time></trkpt><trkpt lat="42.67041910729755" lon="9.14147124367229"><ele>307.0</ele><time>2026-04-04T13:04:23Z</time></trkpt><trkpt lat="42.67034608571586" lon="9.141409622444655"><ele>307.0</ele><time>2026-04-04T13:04:24Z</time></trkpt><trkpt lat="42.67026561450525" lon="9.141355744496305"><ele>307.8</ele><time>2026-04-04T13:04:25Z</time></trkpt><trkpt lat="42.67017846142425" lon="9.141304477187171"><ele>308.6</ele><time>2026-04-04T13:04:26Z</time></trkpt><trkpt lat="42.670102457654146" lon="9.141275660229242"><ele>309.40000000000003</ele><time>2026-04-04T13:04:27Z</time></trkpt><trkpt lat="42.67001041910023" lon="9.14127517051815"><ele>310.2</ele><time>2026-04-04T13:04:29Z</time></trkpt><trkpt lat="42.669928289378895" lon="9.14140665765063"><ele>311.0</ele><time>2026-04-04T13:04:30Z</time></trkpt><trkpt lat="42.669890463371374" lon="9.1415204731277"><ele>309.40000000000003</ele><time>2026-04-04T13:04:31Z</time></trkpt><trkpt lat="42.6699060134571" lon="9.141651925461424"><ele>307.8</ele><time>2026-04-04T13:04:32Z</time></trkpt><trkpt lat="42.66986967367682" lon="9.141757989517227"><ele>306.20000000000005</ele><time>2026-04-04T13:04:33Z</time></trkpt><trkpt lat="42.6698523127075" lon="9.141885783470924"><ele>304.6</ele><time>2026-04-04T13:04:35Z</time></trkpt><trkpt lat="42.66974958116356" lon="9.14198440676905"><ele>303.0</ele><time>2026-04-04T13:04:37Z</time></trkpt><trkpt lat="42.669685651835785" lon="9.14203865804572"><ele>303.0</ele><time>2026-04-04T13:04:38Z</time></trkpt><trkpt lat="42.669616745360706" lon="9.14209374700698"><ele>303.0</ele><time>2026-04-04T13:04:39Z</time></trkpt><trkpt lat="42.669545444505836" lon="9.142150549699195"><ele>303.0</ele><time>2026-04-04T13:04:40Z</time></trkpt><trkpt lat="42.66946960567812" lon="9.14220167727143"><ele>303.0</ele><time>2026-04-04T13:04:41Z</time></trkpt><trkpt lat="42.66939001740795" lon="9.142238353657373"><ele>303.0</ele><time>2026-04-04T13:04:42Z</time></trkpt><trkpt lat="42.66931005834101" lon="9.142257269001364"><ele>303.0</ele><time>2026-04-04T13:04:43Z</time></trkpt><trkpt lat="42.669215716142375" lon="9.142275154302299"><ele>304.8</ele><time>2026-04-04T13:04:44Z</time></trkpt><trkpt lat="42.66912002525508" lon="9.14228333474937"><ele>306.6</ele><time>2026-04-04T13:04:45Z</time></trkpt><trkpt lat="42.669039328077154" lon="9.142276076079117"><ele>308.4</ele><time>2026-04-04T13:04:46Z</time></trkpt><trkpt lat="42.668963775804855" lon="9.142210601743479"><ele>310.2</ele><time>2026-04-04T13:04:47Z</time></trkpt><trkpt lat="42.66886476746346" lon="9.142187748970082"><ele>312.0</ele><time>2026-04-04T13:04:48Z</time></trkpt><trkpt lat="42.66876277307834" lon="9.14212589915806"><ele>312.0</ele><time>2026-04-04T13:04:49Z</time></trkpt><trkpt lat="42.668678313210904" lon="9.142088838250187"><ele>312.0</ele><time>2026-04-04T13:04:50Z</time></trkpt><trkpt lat="42.668606450249435" lon="9.142061127566299"><ele>312.0</ele><time>2026-04-04T13:04:51Z</time></trkpt><trkpt lat="42.66851759507459" lon="9.142039152430215"><ele>312.0</ele><time>2026-04-04T13:04:52Z</time></trkpt><trkpt lat="42.66842833252052" lon="9.141988121609693"><ele>312.0</ele><time>2026-04-04T13:04:53Z</time></trkpt><trkpt lat="42.66836459355171" lon="9.141949105127448"><ele>312.0</ele><time>2026-04-04T13:04:54Z</time></trkpt><trkpt lat="42.668268482394346" lon="9.141829742211064"><ele>310.8333333333333</ele><time>2026-04-04T13:04:56Z</time></trkpt><trkpt lat="42.66826819928742" lon="9.141713368950489"><ele>309.6666666666667</ele><time>2026-04-04T13:04:57Z</time></trkpt><trkpt lat="42.668241047823095" lon="9.141591340173463"><ele>308.5</ele><time>2026-04-04T13:04:58Z</time></trkpt><trkpt lat="42.66823724742963" lon="9.14145648926496"><ele>307.33333333333337</ele><time>2026-04-04T13:04:59Z</time></trkpt><trkpt lat="42.66824268534582" lon="9.14133174335521"><ele>306.1666666666667</ele><time>2026-04-04T13:05:00Z</time></trkpt><trkpt lat="42.66825202172311" lon="9.141234319800024"><ele>305.0</ele><time>2026-04-04T13:05:01Z</time></trkpt><trkpt lat="42.66824797913366" lon="9.141145015064184"><ele>308.0</ele><time>2026-04-04T13:05:02Z</time></trkpt><trkpt lat="42.66814923272859" lon="9.141073346675924"><ele>311.0</ele><time>2026-04-04T13:05:04Z</time></trkpt><trkpt lat="42.668069751537786" lon="9.141081095375755"><ele>314.0</ele><time>2026-04-04T13:05:05Z</time></trkpt><trkpt lat="42.66799033600547" lon="9.14111861400588"><ele>317.0</ele><time>2026-04-04T13:05:06Z</time></trkpt><trkpt lat="42.66789766317274" lon="9.141157670997716"><ele>320.0</ele><time>2026-04-04T13:05:07Z</time></trkpt><trkpt lat="42.66779149491865" lon="9.141207718960638"><ele>321.75</ele><time>2026-04-04T13:05:08Z</time></trkpt><trkpt lat="42.667702505597404" lon="9.141266357365133"><ele>323.5</ele><time>2026-04-04T13:05:09Z</time></trkpt><trkpt lat="42.66761762946761" lon="9.141343746978464"><ele>325.25</ele><time>2026-04-04T13:05:10Z</time></trkpt><trkpt lat="42.66741846786917" lon="9.141511138094057"><ele>327.0</ele><time>2026-04-04T13:05:12Z</time></trkpt><trkpt lat="42.66730712549395" lon="9.141586460385907"><ele>324.1666666666667</ele><time>2026-04-04T13:05:13Z</time></trkpt><trkpt lat="42.66722717854359" lon="9.14163770664918"><ele>321.3333333333333</ele><time>2026-04-04T13:05:14Z</time></trkpt><trkpt lat="42.667160974501826" lon="9.141668014263152"><ele>318.5</ele><time>2026-04-04T13:05:15Z</time></trkpt><trkpt lat="42.66709310324351" lon="9.141672180633078"><ele>315.66666666666663</ele><time>2026-04-04T13:05:16Z</time></trkpt><trkpt lat="42.66702523330982" lon="9.141651618948382"><ele>312.8333333333333</ele><time>2026-04-04T13:05:17Z</time></trkpt><trkpt lat="42.666955664240845" lon="9.141611663253803"><ele>310.0</ele><time>2026-04-04T13:05:18Z</time></trkpt><trkpt lat="42.66688446513881" lon="9.141565388356943"><ele>310.0</ele><time>2026-04-04T13:05:19Z</time></trkpt><trkpt lat="42.66681854130512" lon="9.141534098490794"><ele>310.0</ele><time>2026-04-04T13:05:20Z</time></trkpt><trkpt lat="42.66670623792338" lon="9.141521941064406"><ele>310.0</ele><time>2026-04-04T13:05:22Z</time></trkpt><trkpt lat="42.666619780128386" lon="9.141533327748407"><ele>310.0</ele><time>2026-04-04T13:05:24Z</time></trkpt><trkpt lat="42.66651189760686" lon="9.141548452574822"><ele>310.0</ele><time>2026-04-04T13:05:42Z</time></trkpt><trkpt lat="42.666442952168495" lon="9.141557379363864"><ele>310.0</ele><time>2026-04-04T13:05:43Z</time></trkpt><trkpt lat="42.66634833507568" lon="9.141552880890762"><ele>310.3333333333333</ele><time>2026-04-04T13:05:45Z</time></trkpt><trkpt lat="42.66626942187444" lon="9.141496938948046"><ele>310.66666666666663</ele><time>2026-04-04T13:05:48Z</time></trkpt><trkpt lat="42.66622532371223" lon="9.141410936015236"><ele>311.0</ele><time>2026-04-04T13:05:52Z</time></trkpt><trkpt lat="42.66618503813453" lon="9.141334934732974"><ele>311.3333333333333</ele><time>2026-04-04T13:06:13Z</time></trkpt><trkpt lat="42.666113107922214" lon="9.14129020597072"><ele>311.6666666666667</ele><time>2026-04-04T13:06:15Z</time></trkpt><trkpt lat="42.666062530356605" lon="9.141235721195958"><ele>312.0</ele><time>2026-04-04T13:06:16Z</time></trkpt><trkpt lat="42.66601148584647" lon="9.141124933613666"><ele>312.0</ele><time>2026-04-04T13:06:17Z</time></trkpt><trkpt lat="42.665941779876995" lon="9.140950798388845"><ele>312.0</ele><time>2026-04-04T13:06:18Z</time></trkpt><trkpt lat="42.665859726221505" lon="9.140783151553372"><ele>312.0</ele><time>2026-04-04T13:06:19Z</time></trkpt><trkpt lat="42.66578276423045" lon="9.140653501257756"><ele>312.0</ele><time>2026-04-04T13:06:20Z</time></trkpt><trkpt lat="42.6657126836718" lon="9.14053103667995"><ele>314.6</ele><time>2026-04-04T13:06:21Z</time></trkpt><trkpt lat="42.665650899957456" lon="9.140414224096707"><ele>317.2</ele><time>2026-04-04T13:06:22Z</time></trkpt><trkpt lat="42.6655931149717" lon="9.140295677012999"><ele>319.8</ele><time>2026-04-04T13:06:23Z</time></trkpt><trkpt lat="42.665539208400396" lon="9.140181164433447"><ele>322.4</ele><time>2026-04-04T13:06:24Z</time></trkpt><trkpt lat="42.66549364074268" lon="9.140064732818928"><ele>325.0</ele><time>2026-04-04T13:06:25Z</time></trkpt><trkpt lat="42.6654554649862" lon="9.139950315697213"><ele>326.5</ele><time>2026-04-04T13:06:26Z</time></trkpt><trkpt lat="42.665422984507636" lon="9.139836026390135"><ele>328.0</ele><time>2026-04-04T13:06:27Z</time></trkpt><trkpt lat="42.665394468413915" lon="9.13972449365802"><ele>329.5</ele><time>2026-04-04T13:06:28Z</time></trkpt><trkpt lat="42.66537090867326" lon="9.139612084284217"><ele>331.0</ele><time>2026-04-04T13:06:29Z</time></trkpt><trkpt lat="42.665352201315166" lon="9.139501271643242"><ele>332.5</ele><time>2026-04-04T13:06:30Z</time></trkpt><trkpt lat="42.66533951078818" lon="9.13939231099682"><ele>334.0</ele><time>2026-04-04T13:06:31Z</time></trkpt><trkpt lat="42.66533566651999" lon="9.139285122028376"><ele>334.0</ele><time>2026-04-04T13:06:32Z</time></trkpt><trkpt lat="42.66532949498514" lon="9.139182004566281"><ele>334.0</ele><time>2026-04-04T13:06:33Z</time></trkpt><trkpt lat="42.66532515135545" lon="9.139080332883255"><ele>334.0</ele><time>2026-04-04T13:06:34Z</time></trkpt><trkpt lat="42.66532081330989" lon="9.138982034166018"><ele>334.0</ele><time>2026-04-04T13:06:35Z</time></trkpt><trkpt lat="42.66531081894032" lon="9.138890856931926"><ele>334.0</ele><time>2026-04-04T13:06:36Z</time></trkpt><trkpt lat="42.66529135418645" lon="9.138802205803767"><ele>334.0</ele><time>2026-04-04T13:06:37Z</time></trkpt><trkpt lat="42.665262675634494" lon="9.138721962058472"><ele>334.0</ele><time>2026-04-04T13:06:38Z</time></trkpt><trkpt lat="42.66522470919654" lon="9.138650455423306"><ele>328.4</ele><time>2026-04-04T13:06:39Z</time></trkpt><trkpt lat="42.66517996319541" lon="9.138589830021141"><ele>322.79999999999995</ele><time>2026-04-04T13:06:40Z</time></trkpt><trkpt lat="42.66507492079757" lon="9.138496242327625"><ele>317.20000000000005</ele><time>2026-04-04T13:06:42Z</time></trkpt><trkpt lat="42.66503008419619" lon="9.138428206917936"><ele>311.6</ele><time>2026-04-04T13:06:43Z</time></trkpt><trkpt lat="42.66491637095579" lon="9.138360026339328"><ele>306.0</ele><time>2026-04-04T13:06:45Z</time></trkpt><trkpt lat="42.66481798042753" lon="9.138271214832775"><ele>310.5</ele><time>2026-04-04T13:06:47Z</time></trkpt><trkpt lat="42.6647156936418" lon="9.138190359359433"><ele>315.0</ele><time>2026-04-04T13:06:49Z</time></trkpt><trkpt lat="42.66463294535333" lon="9.138077092446002"><ele>319.5</ele><time>2026-04-04T13:06:51Z</time></trkpt><trkpt lat="42.66456910664537" lon="9.137945550164474"><ele>324.0</ele><time>2026-04-04T13:06:53Z</time></trkpt><trkpt lat="42.664524957935576" lon="9.137804930977174"><ele>324.0</ele><time>2026-04-04T13:06:55Z</time></trkpt><trkpt lat="42.66448603732697" lon="9.137659936264763"><ele>324.0</ele><time>2026-04-04T13:06:57Z</time></trkpt><trkpt lat="42.66444213364936" lon="9.137525962452033"><ele>324.0</ele><time>2026-04-04T13:06:59Z</time></trkpt><trkpt lat="42.66439823267701" lon="9.137384923064635"><ele>324.0</ele><time>2026-04-04T13:07:01Z</time></trkpt><trkpt lat="42.66435197515179" lon="9.137254054439309"><ele>324.0</ele><time>2026-04-04T13:07:03Z</time></trkpt><trkpt lat="42.66430876040789" lon="9.137121368525893"><ele>319.4</ele><time>2026-04-04T13:07:05Z</time></trkpt><trkpt lat="42.66426699049186" lon="9.136993860005575"><ele>314.79999999999995</ele><time>2026-04-04T13:07:07Z</time></trkpt><trkpt lat="42.664214479413836" lon="9.136886513958899"><ele>310.20000000000005</ele><time>2026-04-04T13:07:09Z</time></trkpt><trkpt lat="42.664155175278104" lon="9.136796991118784"><ele>305.6</ele><time>2026-04-04T13:07:11Z</time></trkpt><trkpt lat="42.66409493812345" lon="9.136714632555387"><ele>301.0</ele><time>2026-04-04T13:07:13Z</time></trkpt><trkpt lat="42.66404126208836" lon="9.136637311687586"><ele>301.0</ele><time>2026-04-04T13:07:15Z</time></trkpt><trkpt lat="42.66398041328558" lon="9.136571958058429"><ele>301.0</ele><time>2026-04-04T13:07:17Z</time></trkpt><trkpt lat="42.66391410606045" lon="9.136524563278803"><ele>301.0</ele><time>2026-04-04T13:07:19Z</time></trkpt><trkpt lat="42.66384245285443" lon="9.136491067233111"><ele>301.0</ele><time>2026-04-04T13:07:21Z</time></trkpt><trkpt lat="42.66376605898347" lon="9.136458732033262"><ele>301.0</ele><time>2026-04-04T13:07:23Z</time></trkpt><trkpt lat="42.66369183675645" lon="9.136420052802656"><ele>301.0</ele><time>2026-04-04T13:07:25Z</time></trkpt><trkpt lat="42.663616268604585" lon="9.13638433037011"><ele>299.6</ele><time>2026-04-04T13:07:27Z</time></trkpt><trkpt lat="42.66353748191226" lon="9.136343451561554"><ele>298.20000000000005</ele><time>2026-04-04T13:07:29Z</time></trkpt><trkpt lat="42.66345365124336" lon="9.136305878795822"><ele>296.79999999999995</ele><time>2026-04-04T13:07:30Z</time></trkpt><trkpt lat="42.66333045979922" lon="9.136252843683263"><ele>295.4</ele><time>2026-04-04T13:07:31Z</time></trkpt><trkpt lat="42.66322120723822" lon="9.136198613033345"><ele>294.0</ele><time>2026-04-04T13:07:32Z</time></trkpt><trkpt lat="42.66313988145256" lon="9.13613240861027"><ele>294.0</ele><time>2026-04-04T13:07:33Z</time></trkpt><trkpt lat="42.66308550660769" lon="9.1360442583037"><ele>294.0</ele><time>2026-04-04T13:07:34Z</time></trkpt><trkpt lat="42.66306922187825" lon="9.135936293060023"><ele>294.0</ele><time>2026-04-04T13:07:35Z</time></trkpt><trkpt lat="42.66307059434052" lon="9.135819518971285"><ele>294.0</ele><time>2026-04-04T13:07:36Z</time></trkpt><trkpt lat="42.66308199436064" lon="9.135714614932729"><ele>294.0</ele><time>2026-04-04T13:07:37Z</time></trkpt><trkpt lat="42.66308850322624" lon="9.135618830852527"><ele>294.0</ele><time>2026-04-04T13:07:38Z</time></trkpt><trkpt lat="42.66308715431417" lon="9.135526271969402"><ele>295.5</ele><time>2026-04-04T13:07:39Z</time></trkpt><trkpt lat="42.663078270985736" lon="9.135437551309497"><ele>297.0</ele><time>2026-04-04T13:07:40Z</time></trkpt><trkpt lat="42.6630566986061" lon="9.135353318735842"><ele>298.5</ele><time>2026-04-04T13:07:41Z</time></trkpt><trkpt lat="42.66302571959408" lon="9.1352764381939"><ele>300.0</ele><time>2026-04-04T13:07:42Z</time></trkpt><trkpt lat="42.66299295943498" lon="9.135202183503825"><ele>301.5</ele><time>2026-04-04T13:07:43Z</time></trkpt><trkpt lat="42.66292296997623" lon="9.135067882236504"><ele>303.0</ele><time>2026-04-04T13:07:45Z</time></trkpt><trkpt lat="42.662850144239016" lon="9.134940578119451"><ele>299.2</ele><time>2026-04-04T13:07:47Z</time></trkpt><trkpt lat="42.66277694088658" lon="9.1348236103367"><ele>295.4</ele><time>2026-04-04T13:07:49Z</time></trkpt><trkpt lat="42.66270017252989" lon="9.134719344009754"><ele>291.59999999999997</ele><time>2026-04-04T13:07:51Z</time></trkpt><trkpt lat="42.66260562890934" lon="9.13463812872798"><ele>287.8</ele><time>2026-04-04T13:07:53Z</time></trkpt><trkpt lat="42.662510754168416" lon="9.134565471975204"><ele>284.0</ele><time>2026-04-04T13:07:55Z</time></trkpt><trkpt lat="42.66241411673945" lon="9.134501982045649"><ele>284.0</ele><time>2026-04-04T13:07:57Z</time></trkpt><trkpt lat="42.662319141534844" lon="9.13442600042266"><ele>284.0</ele><time>2026-04-04T13:07:59Z</time></trkpt><trkpt lat="42.66222946731069" lon="9.134326743416725"><ele>284.0</ele><time>2026-04-04T13:08:01Z</time></trkpt><trkpt lat="42.662184057150334" lon="9.134177456522163"><ele>284.0</ele><time>2026-04-04T13:08:03Z</time></trkpt><trkpt lat="42.66222047712987" lon="9.134029597162172"><ele>284.6666666666667</ele><time>2026-04-04T13:08:05Z</time></trkpt><trkpt lat="42.66227084128703" lon="9.133909683607747"><ele>285.33333333333337</ele><time>2026-04-04T13:08:07Z</time></trkpt><trkpt lat="42.662310296171434" lon="9.13380107479608"><ele>286.0</ele><time>2026-04-04T13:08:09Z</time></trkpt><trkpt lat="42.662351131311276" lon="9.133706011676908"><ele>286.6666666666667</ele><time>2026-04-04T13:08:11Z</time></trkpt><trkpt lat="42.662362597868054" lon="9.133606547857728"><ele>287.3333333333333</ele><time>2026-04-04T13:08:13Z</time></trkpt><trkpt lat="42.66235539153799" lon="9.133474987895893"><ele>288.0</ele><time>2026-04-04T13:08:15Z</time></trkpt><trkpt lat="42.66232764482611" lon="9.133390547793038"><ele>288.0</ele><time>2026-04-04T13:08:16Z</time></trkpt><trkpt lat="42.66225968287044" lon="9.13328405645479"><ele>288.0</ele><time>2026-04-04T13:08:17Z</time></trkpt><trkpt lat="42.66214779776868" lon="9.133148163525027"><ele>288.0</ele><time>2026-04-04T13:08:18Z</time></trkpt><trkpt lat="42.66201832480621" lon="9.133003101635923"><ele>288.0</ele><time>2026-04-04T13:08:19Z</time></trkpt><trkpt lat="42.66192351388607" lon="9.132866796967255"><ele>285.0</ele><time>2026-04-04T13:08:20Z</time></trkpt><trkpt lat="42.66184606500691" lon="9.132727262555395"><ele>282.0</ele><time>2026-04-04T13:08:21Z</time></trkpt><trkpt lat="42.661773712523065" lon="9.132591729078294"><ele>279.0</ele><time>2026-04-04T13:08:22Z</time></trkpt><trkpt lat="42.66169827065881" lon="9.132465872462214"><ele>276.0</ele><time>2026-04-04T13:08:23Z</time></trkpt><trkpt lat="42.66161890665917" lon="9.132351984561966"><ele>276.0</ele><time>2026-04-04T13:08:24Z</time></trkpt><trkpt lat="42.66153693910916" lon="9.132250476149336"><ele>276.0</ele><time>2026-04-04T13:08:25Z</time></trkpt><trkpt lat="42.66144715040665" lon="9.132170804456393"><ele>276.0</ele><time>2026-04-04T13:08:26Z</time></trkpt><trkpt lat="42.661350381596556" lon="9.13211488643607"><ele>276.0</ele><time>2026-04-04T13:08:27Z</time></trkpt><trkpt lat="42.66125328757065" lon="9.132076951204944"><ele>276.0</ele><time>2026-04-04T13:08:28Z</time></trkpt><trkpt lat="42.661164470743756" lon="9.13203330059858"><ele>273.5</ele><time>2026-04-04T13:08:29Z</time></trkpt><trkpt lat="42.66109025331638" lon="9.131959267602515"><ele>271.0</ele><time>2026-04-04T13:08:30Z</time></trkpt><trkpt lat="42.66104899380407" lon="9.13185562543793"><ele>268.5</ele><time>2026-04-04T13:08:31Z</time></trkpt><trkpt lat="42.66105699738485" lon="9.131733229128868"><ele>266.0</ele><time>2026-04-04T13:08:32Z</time></trkpt><trkpt lat="42.66109709723227" lon="9.13163089582673"><ele>263.5</ele><time>2026-04-04T13:08:33Z</time></trkpt><trkpt lat="42.661141882755146" lon="9.131542137186393"><ele>261.0</ele><time>2026-04-04T13:08:34Z</time></trkpt><trkpt lat="42.66118773277319" lon="9.131467211465157"><ele>261.0</ele><time>2026-04-04T13:08:35Z</time></trkpt><trkpt lat="42.661230395529024" lon="9.131387814300828"><ele>261.0</ele><time>2026-04-04T13:08:36Z</time></trkpt><trkpt lat="42.66127137512542" lon="9.13131183214236"><ele>261.0</ele><time>2026-04-04T13:08:37Z</time></trkpt><trkpt lat="42.66130849086603" lon="9.131228182677983"><ele>261.0</ele><time>2026-04-04T13:08:38Z</time></trkpt><trkpt lat="42.661342707474795" lon="9.131153835139513"><ele>261.0</ele><time>2026-04-04T13:08:39Z</time></trkpt><trkpt lat="42.66137718025622" lon="9.131074250836727"><ele>261.0</ele><time>2026-04-04T13:08:40Z</time></trkpt><trkpt lat="42.661408860742654" lon="9.13099681025322"><ele>261.0</ele><time>2026-04-04T13:08:41Z</time></trkpt><trkpt lat="42.6614363084208" lon="9.130919598993433"><ele>261.0</ele><time>2026-04-04T13:08:42Z</time></trkpt><trkpt lat="42.661463662748986" lon="9.130840734799413"><ele>261.0</ele><time>2026-04-04T13:08:43Z</time></trkpt><trkpt lat="42.66151614086188" lon="9.130685741375439"><ele>261.0</ele><time>2026-04-04T13:08:45Z</time></trkpt><trkpt lat="42.6615609955384" lon="9.130536140183946"><ele>261.0</ele><time>2026-04-04T13:08:47Z</time></trkpt><trkpt lat="42.661587061104534" lon="9.130374080690077"><ele>261.0</ele><time>2026-04-04T13:08:49Z</time></trkpt><trkpt lat="42.66160820840923" lon="9.130211935554875"><ele>261.8</ele><time>2026-04-04T13:08:51Z</time></trkpt><trkpt lat="42.66162171345122" lon="9.130051681810455"><ele>262.6</ele><time>2026-04-04T13:08:53Z</time></trkpt><trkpt lat="42.661624368981485" lon="9.129903158237667"><ele>263.4</ele><time>2026-04-04T13:08:55Z</time></trkpt><trkpt lat="42.66161616778399" lon="9.129762931654742"><ele>264.2</ele><time>2026-04-04T13:08:57Z</time></trkpt><trkpt lat="42.66160643812367" lon="9.129634514388462"><ele>265.0</ele><time>2026-04-04T13:08:59Z</time></trkpt><trkpt lat="42.6615924343469" lon="9.12950691831238"><ele>265.0</ele><time>2026-04-04T13:09:01Z</time></trkpt><trkpt lat="42.66155730653135" lon="9.129390171776135"><ele>265.0</ele><time>2026-04-04T13:09:03Z</time></trkpt><trkpt lat="42.66149701324256" lon="9.129244581923064"><ele>265.0</ele><time>2026-04-04T13:09:05Z</time></trkpt><trkpt lat="42.66145162776194" lon="9.129151038120456"><ele>265.0</ele><time>2026-04-04T13:09:06Z</time></trkpt><trkpt lat="42.66139293306844" lon="9.129067204674795"><ele>265.0</ele><time>2026-04-04T13:09:07Z</time></trkpt><trkpt lat="42.6613236719565" lon="9.128995633473183"><ele>266.16666666666663</ele><time>2026-04-04T13:09:08Z</time></trkpt><trkpt lat="42.66124380079389" lon="9.128942218600358"><ele>267.3333333333333</ele><time>2026-04-04T13:09:09Z</time></trkpt><trkpt lat="42.66116291233323" lon="9.128898748599811"><ele>268.5</ele><time>2026-04-04T13:09:10Z</time></trkpt><trkpt lat="42.66108758730758" lon="9.128855219439275"><ele>269.6666666666667</ele><time>2026-04-04T13:09:11Z</time></trkpt><trkpt lat="42.66100765269156" lon="9.12880593585096"><ele>270.83333333333337</ele><time>2026-04-04T13:09:12Z</time></trkpt><trkpt lat="42.66092725776655" lon="9.128740382935558"><ele>272.0</ele><time>2026-04-04T13:09:13Z</time></trkpt><trkpt lat="42.66086031899263" lon="9.12866845979012"><ele>265.0</ele><time>2026-04-04T13:09:14Z</time></trkpt><trkpt lat="42.6608163329015" lon="9.128567284627747"><ele>258.0</ele><time>2026-04-04T13:09:15Z</time></trkpt><trkpt lat="42.660796567987624" lon="9.128449410993278"><ele>251.0</ele><time>2026-04-04T13:09:16Z</time></trkpt><trkpt lat="42.66081589302742" lon="9.128323514849761"><ele>244.0</ele><time>2026-04-04T13:09:17Z</time></trkpt><trkpt lat="42.66086155391567" lon="9.12821571679351"><ele>237.0</ele><time>2026-04-04T13:09:18Z</time></trkpt><trkpt lat="42.660932173305476" lon="9.128127429450723"><ele>233.8</ele><time>2026-04-04T13:09:19Z</time></trkpt><trkpt lat="42.66100195507449" lon="9.12804167907063"><ele>230.6</ele><time>2026-04-04T13:09:20Z</time></trkpt><trkpt lat="42.661064310211664" lon="9.127950360394923"><ele>227.40000000000003</ele><time>2026-04-04T13:09:21Z</time></trkpt><trkpt lat="42.661131170689806" lon="9.127862167602416"><ele>224.20000000000002</ele><time>2026-04-04T13:09:22Z</time></trkpt><trkpt lat="42.66119665731626" lon="9.12776954919271"><ele>221.0</ele><time>2026-04-04T13:09:23Z</time></trkpt><trkpt lat="42.66124683957243" lon="9.127668318638017"><ele>229.0</ele><time>2026-04-04T13:09:24Z</time></trkpt><trkpt lat="42.66128046184833" lon="9.127555868927221"><ele>237.00000000000003</ele><time>2026-04-04T13:09:25Z</time></trkpt><trkpt lat="42.6613051299302" lon="9.12743456409487"><ele>245.00000000000003</ele><time>2026-04-04T13:09:26Z</time></trkpt><trkpt lat="42.661317508544016" lon="9.127301839358154"><ele>253.0</ele><time>2026-04-04T13:09:27Z</time></trkpt><trkpt lat="42.661315747485475" lon="9.127161213630744"><ele>261.0</ele><time>2026-04-04T13:09:28Z</time></trkpt><trkpt lat="42.66130115566763" lon="9.127016348208976"><ele>261.0</ele><time>2026-04-04T13:09:29Z</time></trkpt><trkpt lat="42.66127692759078" lon="9.126869859496528"><ele>261.0</ele><time>2026-04-04T13:09:30Z</time></trkpt><trkpt lat="42.661237444179015" lon="9.126723140862106"><ele>261.0</ele><time>2026-04-04T13:09:31Z</time></trkpt><trkpt lat="42.66118139389096" lon="9.126586038776033"><ele>261.0</ele><time>2026-04-04T13:09:32Z</time></trkpt><trkpt lat="42.66110239690068" lon="9.126465197703961"><ele>256.0</ele><time>2026-04-04T13:09:33Z</time></trkpt><trkpt lat="42.66100859739031" lon="9.126350746869791"><ele>251.0</ele><time>2026-04-04T13:09:34Z</time></trkpt><trkpt lat="42.66092357209532" lon="9.126230457224336"><ele>246.0</ele><time>2026-04-04T13:09:35Z</time></trkpt><trkpt lat="42.66083826085869" lon="9.126137445487666"><ele>241.0</ele><time>2026-04-04T13:09:36Z</time></trkpt><trkpt lat="42.66076092785327" lon="9.126053132318102"><ele>241.0</ele><time>2026-04-04T13:09:37Z</time></trkpt><trkpt lat="42.660685384037635" lon="9.125970984683278"><ele>241.00000000000003</ele><time>2026-04-04T13:09:38Z</time></trkpt><trkpt lat="42.66060473109951" lon="9.125910030220956"><ele>241.00000000000003</ele><time>2026-04-04T13:09:39Z</time></trkpt><trkpt lat="42.66054463784522" lon="9.125824406496534"><ele>241.0</ele><time>2026-04-04T13:09:40Z</time></trkpt><trkpt lat="42.66049292268498" lon="9.125726639964494"><ele>241.0</ele><time>2026-04-04T13:09:41Z</time></trkpt><trkpt lat="42.66046589327142" lon="9.125604273709776"><ele>243.20000000000002</ele><time>2026-04-04T13:09:42Z</time></trkpt><trkpt lat="42.660422839328184" lon="9.125490774778761"><ele>245.40000000000003</ele><time>2026-04-04T13:09:43Z</time></trkpt><trkpt lat="42.6603987339254" lon="9.125362547869571"><ele>247.6</ele><time>2026-04-04T13:09:44Z</time></trkpt><trkpt lat="42.66037313347326" lon="9.125230349197269"><ele>249.8</ele><time>2026-04-04T13:09:45Z</time></trkpt><trkpt lat="42.660345514452416" lon="9.125102383516829"><ele>252.0</ele><time>2026-04-04T13:09:46Z</time></trkpt><trkpt lat="42.660318131544514" lon="9.124969580808726"><ele>253.6</ele><time>2026-04-04T13:09:47Z</time></trkpt><trkpt lat="42.66029056118612" lon="9.124834907787857"><ele>255.2</ele><time>2026-04-04T13:09:48Z</time></trkpt><trkpt lat="42.66026422697983" lon="9.124694737554488"><ele>256.8</ele><time>2026-04-04T13:09:49Z</time></trkpt><trkpt lat="42.66023598831901" lon="9.124547325564098"><ele>258.4</ele><time>2026-04-04T13:09:50Z</time></trkpt><trkpt lat="42.6602075586212" lon="9.124402018120543"><ele>260.0</ele><time>2026-04-04T13:09:51Z</time></trkpt><trkpt lat="42.66017722089126" lon="9.124251495909121"><ele>251.0</ele><time>2026-04-04T13:09:52Z</time></trkpt><trkpt lat="42.660144567285805" lon="9.124098238399721"><ele>242.0</ele><time>2026-04-04T13:09:53Z</time></trkpt><trkpt lat="42.66011308688706" lon="9.12394019757356"><ele>233.0</ele><time>2026-04-04T13:09:54Z</time></trkpt><trkpt lat="42.6600817982177" lon="9.12377896340742"><ele>224.0</ele><time>2026-04-04T13:09:55Z</time></trkpt><trkpt lat="42.660048901773536" lon="9.123616401647524"><ele>224.0</ele><time>2026-04-04T13:09:56Z</time></trkpt><trkpt lat="42.6600184396212" lon="9.12346599340794"><ele>223.99999999999997</ele><time>2026-04-04T13:09:57Z</time></trkpt><trkpt lat="42.659990671552414" lon="9.123319941966024"><ele>223.99999999999997</ele><time>2026-04-04T13:09:58Z</time></trkpt><trkpt lat="42.659963208040175" lon="9.123176812592577"><ele>224.0</ele><time>2026-04-04T13:09:59Z</time></trkpt><trkpt lat="42.65993380870307" lon="9.123043845062726"><ele>224.0</ele><time>2026-04-04T13:10:00Z</time></trkpt><trkpt lat="42.65989367521492" lon="9.122925699105263"><ele>226.39999999999998</ele><time>2026-04-04T13:10:01Z</time></trkpt><trkpt lat="42.65984901563871" lon="9.122807621312289"><ele>228.79999999999998</ele><time>2026-04-04T13:10:02Z</time></trkpt><trkpt lat="42.65976664154536" lon="9.122720511866001"><ele>231.20000000000002</ele><time>2026-04-04T13:10:03Z</time></trkpt><trkpt lat="42.659669311944185" lon="9.122673809734245"><ele>233.60000000000002</ele><time>2026-04-04T13:10:04Z</time></trkpt><trkpt lat="42.659589853218215" lon="9.12258898137231"><ele>236.0</ele><time>2026-04-04T13:10:05Z</time></trkpt><trkpt lat="42.65950459960939" lon="9.122511537766004"><ele>233.0</ele><time>2026-04-04T13:10:06Z</time></trkpt><trkpt lat="42.65941854974064" lon="9.122438542107515"><ele>230.00000000000003</ele><time>2026-04-04T13:10:07Z</time></trkpt><trkpt lat="42.65937156240845" lon="9.122313713174917"><ele>227.00000000000003</ele><time>2026-04-04T13:10:08Z</time></trkpt><trkpt lat="42.659357978417624" lon="9.122174077421107"><ele>224.0</ele><time>2026-04-04T13:10:09Z</time></trkpt><trkpt lat="42.65936799026603" lon="9.122038419102843"><ele>221.0</ele><time>2026-04-04T13:10:10Z</time></trkpt><trkpt lat="42.6593597024582" lon="9.121908552421242"><ele>221.0</ele><time>2026-04-04T13:10:11Z</time></trkpt><trkpt lat="42.65930983849803" lon="9.121796315761117"><ele>221.00000000000003</ele><time>2026-04-04T13:10:12Z</time></trkpt><trkpt lat="42.65923231722432" lon="9.12172066623963"><ele>221.00000000000003</ele><time>2026-04-04T13:10:13Z</time></trkpt><trkpt lat="42.65913156857167" lon="9.121697070966917"><ele>221.0</ele><time>2026-04-04T13:10:14Z</time></trkpt><trkpt lat="42.659027993550275" lon="9.12168285100771"><ele>221.0</ele><time>2026-04-04T13:10:15Z</time></trkpt><trkpt lat="42.65892991028896" lon="9.121694107751598"><ele>221.0</ele><time>2026-04-04T13:10:16Z</time></trkpt><trkpt lat="42.65882966979111" lon="9.12171228879821"><ele>221.00000000000003</ele><time>2026-04-04T13:10:17Z</time></trkpt><trkpt lat="42.65873858362646" lon="9.121752985568351"><ele>221.00000000000003</ele><time>2026-04-04T13:10:18Z</time></trkpt><trkpt lat="42.65864732006277" lon="9.121762283082582"><ele>221.0</ele><time>2026-04-04T13:10:19Z</time></trkpt><trkpt lat="42.65856168115027" lon="9.121772940605998"><ele>221.0</ele><time>2026-04-04T13:10:20Z</time></trkpt><trkpt lat="42.658472581895964" lon="9.12178720930465"><ele>219.8</ele><time>2026-04-04T13:10:21Z</time></trkpt><trkpt lat="42.65838229550459" lon="9.121790813422919"><ele>218.60000000000002</ele><time>2026-04-04T13:10:22Z</time></trkpt><trkpt lat="42.65829953585281" lon="9.121762657105103"><ele>217.4</ele><time>2026-04-04T13:10:23Z</time></trkpt><trkpt lat="42.65822982827369" lon="9.121677940646693"><ele>216.2</ele><time>2026-04-04T13:10:24Z</time></trkpt><trkpt lat="42.65818753604029" lon="9.1215623141108"><ele>215.0</ele><time>2026-04-04T13:10:25Z</time></trkpt><trkpt lat="42.65818489939282" lon="9.121422103040606"><ele>215.0</ele><time>2026-04-04T13:10:26Z</time></trkpt><trkpt lat="42.658209368543965" lon="9.121276522174533"><ele>215.0</ele><time>2026-04-04T13:10:27Z</time></trkpt><trkpt lat="42.65822239534024" lon="9.121127135997858"><ele>215.0</ele><time>2026-04-04T13:10:28Z</time></trkpt><trkpt lat="42.65821059509533" lon="9.120973406431611"><ele>215.0</ele><time>2026-04-04T13:10:29Z</time></trkpt><trkpt lat="42.658168544767605" lon="9.120814119354886"><ele>216.2</ele><time>2026-04-04T13:10:30Z</time></trkpt><trkpt lat="42.658120800004994" lon="9.120663792802969"><ele>217.4</ele><time>2026-04-04T13:10:31Z</time></trkpt><trkpt lat="42.65807124745297" lon="9.120528114720138"><ele>218.60000000000002</ele><time>2026-04-04T13:10:32Z</time></trkpt><trkpt lat="42.65802612787235" lon="9.120402215053161"><ele>219.8</ele><time>2026-04-04T13:10:33Z</time></trkpt><trkpt lat="42.65798211894846" lon="9.120278313589282"><ele>221.0</ele><time>2026-04-04T13:10:34Z</time></trkpt><trkpt lat="42.65794161814545" lon="9.120145664290172"><ele>221.0</ele><time>2026-04-04T13:10:35Z</time></trkpt><trkpt lat="42.657908309391416" lon="9.119998971595258"><ele>221.00000000000003</ele><time>2026-04-04T13:10:36Z</time></trkpt><trkpt lat="42.65788130837251" lon="9.119849224932292"><ele>221.00000000000003</ele><time>2026-04-04T13:10:37Z</time></trkpt><trkpt lat="42.65786176346379" lon="9.119712326264882"><ele>221.0</ele><time>2026-04-04T13:10:38Z</time></trkpt><trkpt lat="42.657847056446776" lon="9.119572642708691"><ele>221.0</ele><time>2026-04-04T13:10:39Z</time></trkpt><trkpt lat="42.657837755901305" lon="9.1194191280239"><ele>219.8</ele><time>2026-04-04T13:10:40Z</time></trkpt><trkpt lat="42.65783565210209" lon="9.1192748360662"><ele>218.60000000000002</ele><time>2026-04-04T13:10:41Z</time></trkpt><trkpt lat="42.657836792052464" lon="9.11914031175707"><ele>217.4</ele><time>2026-04-04T13:10:42Z</time></trkpt><trkpt lat="42.65784023870378" lon="9.119013678318874"><ele>216.2</ele><time>2026-04-04T13:10:43Z</time></trkpt><trkpt lat="42.657849812417396" lon="9.118883178789705"><ele>215.0</ele><time>2026-04-04T13:10:44Z</time></trkpt><trkpt lat="42.65787313551012" lon="9.118752213724084"><ele>212.6</ele><time>2026-04-04T13:10:45Z</time></trkpt><trkpt lat="42.657908407529945" lon="9.11862116541496"><ele>210.2</ele><time>2026-04-04T13:10:46Z</time></trkpt><trkpt lat="42.65795631351584" lon="9.118493733396217"><ele>207.8</ele><time>2026-04-04T13:10:47Z</time></trkpt><trkpt lat="42.658016953187094" lon="9.11837545858122"><ele>205.4</ele><time>2026-04-04T13:10:48Z</time></trkpt><trkpt lat="42.65809496623391" lon="9.11826950915534"><ele>203.0</ele><time>2026-04-04T13:10:49Z</time></trkpt><trkpt lat="42.65817270624657" lon="9.118167859988354"><ele>202.0</ele><time>2026-04-04T13:10:50Z</time></trkpt><trkpt lat="42.65823594160027" lon="9.118069303439764"><ele>201.0</ele><time>2026-04-04T13:10:51Z</time></trkpt><trkpt lat="42.65828095906266" lon="9.117959444592618"><ele>200.0</ele><time>2026-04-04T13:10:52Z</time></trkpt><trkpt lat="42.65829309583937" lon="9.117841933916958"><ele>199.0</ele><time>2026-04-04T13:10:53Z</time></trkpt><trkpt lat="42.658304446402425" lon="9.11772454553991"><ele>198.0</ele><time>2026-04-04T13:10:54Z</time></trkpt><trkpt lat="42.65828500424029" lon="9.11759918207606"><ele>198.0</ele><time>2026-04-04T13:10:55Z</time></trkpt><trkpt lat="42.65822756103716" lon="9.117485542266136"><ele>198.0</ele><time>2026-04-04T13:10:56Z</time></trkpt><trkpt lat="42.65815492441162" lon="9.11739048758382"><ele>198.0</ele><time>2026-04-04T13:10:57Z</time></trkpt><trkpt lat="42.658080966338744" lon="9.117300617828038"><ele>198.0</ele><time>2026-04-04T13:10:58Z</time></trkpt><trkpt lat="42.658005858707355" lon="9.117210834215097"><ele>198.0</ele><time>2026-04-04T13:10:59Z</time></trkpt><trkpt lat="42.65792594510452" lon="9.117111927967931"><ele>198.2</ele><time>2026-04-04T13:11:00Z</time></trkpt><trkpt lat="42.65784432947451" lon="9.117010915765153"><ele>198.4</ele><time>2026-04-04T13:11:01Z</time></trkpt><trkpt lat="42.657764588950464" lon="9.116906919615461"><ele>198.6</ele><time>2026-04-04T13:11:02Z</time></trkpt><trkpt lat="42.65768707547739" lon="9.11681199875354"><ele>198.79999999999998</ele><time>2026-04-04T13:11:03Z</time></trkpt><trkpt lat="42.65765210086142" lon="9.116684283238552"><ele>199.0</ele><time>2026-04-04T13:11:04Z</time></trkpt><trkpt lat="42.657641203001546" lon="9.11655077604227"><ele>195.39999999999998</ele><time>2026-04-04T13:11:05Z</time></trkpt><trkpt lat="42.65765224715644" lon="9.116417195011811"><ele>191.8</ele><time>2026-04-04T13:11:06Z</time></trkpt><trkpt lat="42.65769019013165" lon="9.116293669626456"><ele>188.2</ele><time>2026-04-04T13:11:07Z</time></trkpt><trkpt lat="42.6577516628365" lon="9.116186455595724"><ele>184.60000000000002</ele><time>2026-04-04T13:11:08Z</time></trkpt><trkpt lat="42.657828419628096" lon="9.116099733834771"><ele>181.0</ele><time>2026-04-04T13:11:09Z</time></trkpt><trkpt lat="42.65791554318439" lon="9.116037160718253"><ele>181.0</ele><time>2026-04-04T13:11:10Z</time></trkpt><trkpt lat="42.65800402905861" lon="9.115974749170455"><ele>181.0</ele><time>2026-04-04T13:11:11Z</time></trkpt><trkpt lat="42.65809489423694" lon="9.115911714624737"><ele>181.0</ele><time>2026-04-04T13:11:12Z</time></trkpt><trkpt lat="42.65818696533644" lon="9.11584812389367"><ele>181.0</ele><time>2026-04-04T13:11:13Z</time></trkpt><trkpt lat="42.65828252047943" lon="9.11577602972054"><ele>181.0</ele><time>2026-04-04T13:11:14Z</time></trkpt><trkpt lat="42.65837865179828" lon="9.115701939441921"><ele>179.4</ele><time>2026-04-04T13:11:15Z</time></trkpt><trkpt lat="42.65847325928665" lon="9.115628366437853"><ele>177.8</ele><time>2026-04-04T13:11:16Z</time></trkpt><trkpt lat="42.65855814134516" lon="9.115548494678555"><ele>176.20000000000002</ele><time>2026-04-04T13:11:17Z</time></trkpt><trkpt lat="42.658621406224334" lon="9.115447187549883"><ele>174.60000000000002</ele><time>2026-04-04T13:11:18Z</time></trkpt><trkpt lat="42.65865431415856" lon="9.115328105473507"><ele>173.0</ele><time>2026-04-04T13:11:19Z</time></trkpt><trkpt lat="42.658657468047224" lon="9.115201003658099"><ele>173.0</ele><time>2026-04-04T13:11:20Z</time></trkpt><trkpt lat="42.658638845520215" lon="9.11506795086152"><ele>173.0</ele><time>2026-04-04T13:11:21Z</time></trkpt><trkpt lat="42.658598315805804" lon="9.114943794808763"><ele>173.0</ele><time>2026-04-04T13:11:22Z</time></trkpt><trkpt lat="42.658540421307194" lon="9.114828248148076"><ele>173.0</ele><time>2026-04-04T13:11:23Z</time></trkpt><trkpt lat="42.658464976130965" lon="9.11473075564322"><ele>173.0</ele><time>2026-04-04T13:11:24Z</time></trkpt><trkpt lat="42.65840133112451" lon="9.114614491041255"><ele>176.60000000000002</ele><time>2026-04-04T13:11:25Z</time></trkpt><trkpt lat="42.658300751702335" lon="9.114553817368007"><ele>180.20000000000002</ele><time>2026-04-04T13:11:26Z</time></trkpt><trkpt lat="42.65819429354471" lon="9.11453512728668"><ele>183.8</ele><time>2026-04-04T13:11:27Z</time></trkpt><trkpt lat="42.65809253551675" lon="9.11457147762699"><ele>187.4</ele><time>2026-04-04T13:11:28Z</time></trkpt><trkpt lat="42.65799108560641" lon="9.114615591657829"><ele>191.0</ele><time>2026-04-04T13:11:29Z</time></trkpt><trkpt lat="42.65788750055892" lon="9.114677738644382"><ele>191.5</ele><time>2026-04-04T13:11:30Z</time></trkpt><trkpt lat="42.65778160630163" lon="9.114755279400573"><ele>192.0</ele><time>2026-04-04T13:11:31Z</time></trkpt><trkpt lat="42.65766881911907" lon="9.114828973777863"><ele>192.5</ele><time>2026-04-04T13:11:32Z</time></trkpt><trkpt lat="42.65755167465596" lon="9.114897007449715"><ele>193.0</ele><time>2026-04-04T13:11:33Z</time></trkpt><trkpt lat="42.657431402237" lon="9.114967636110832"><ele>188.0</ele><time>2026-04-04T13:11:34Z</time></trkpt><trkpt lat="42.657297758641064" lon="9.11504937675421"><ele>183.0</ele><time>2026-04-04T13:11:35Z</time></trkpt><trkpt lat="42.6571756145177" lon="9.115124351281917"><ele>178.0</ele><time>2026-04-04T13:11:36Z</time></trkpt><trkpt lat="42.65706184894443" lon="9.115194046516443"><ele>173.0</ele><time>2026-04-04T13:11:37Z</time></trkpt><trkpt lat="42.6569498649466" lon="9.115255489873034"><ele>173.0</ele><time>2026-04-04T13:11:38Z</time></trkpt><trkpt lat="42.65684451536303" lon="9.115303465203086"><ele>173.0</ele><time>2026-04-04T13:11:39Z</time></trkpt><trkpt lat="42.656744401912995" lon="9.11533556178593"><ele>173.0</ele><time>2026-04-04T13:11:40Z</time></trkpt><trkpt lat="42.656651388753346" lon="9.115336434241259"><ele>173.0</ele><time>2026-04-04T13:11:41Z</time></trkpt><trkpt lat="42.656564329691506" lon="9.115311186728114"><ele>173.0</ele><time>2026-04-04T13:11:42Z</time></trkpt><trkpt lat="42.65648412172657" lon="9.11526301221193"><ele>173.0</ele><time>2026-04-04T13:11:43Z</time></trkpt><trkpt lat="42.656417506680725" lon="9.115206746625805"><ele>173.0</ele><time>2026-04-04T13:11:44Z</time></trkpt><trkpt lat="42.656367767857446" lon="9.115128232076342"><ele>173.0</ele><time>2026-04-04T13:11:45Z</time></trkpt><trkpt lat="42.65630592013967" lon="9.1151075852957"><ele>173.0</ele><time>2026-04-04T13:11:46Z</time></trkpt><trkpt lat="42.65623672032326" lon="9.11505893969463"><ele>173.0</ele><time>2026-04-04T13:11:47Z</time></trkpt><trkpt lat="42.656147988432004" lon="9.115050416470439"><ele>173.0</ele><time>2026-04-04T13:11:48Z</time></trkpt><trkpt lat="42.656055929993904" lon="9.115101169681344"><ele>172.0</ele><time>2026-04-04T13:11:49Z</time></trkpt><trkpt lat="42.655973999004814" lon="9.115196924792555"><ele>171.0</ele><time>2026-04-04T13:11:50Z</time></trkpt><trkpt lat="42.655881590028805" lon="9.115324609852436"><ele>170.0</ele><time>2026-04-04T13:11:51Z</time></trkpt><trkpt lat="42.655791517325454" lon="9.115427284488918"><ele>169.0</ele><time>2026-04-04T13:11:52Z</time></trkpt><trkpt lat="42.65570513433696" lon="9.115520773313746"><ele>169.0</ele><time>2026-04-04T13:11:53Z</time></trkpt><trkpt lat="42.655630022970165" lon="9.115621894550099"><ele>169.0</ele><time>2026-04-04T13:11:54Z</time></trkpt><trkpt lat="42.65554135728121" lon="9.115683457292898"><ele>169.0</ele><time>2026-04-04T13:11:55Z</time></trkpt><trkpt lat="42.65545902425072" lon="9.11571059958086"><ele>169.0</ele><time>2026-04-04T13:11:56Z</time></trkpt><trkpt lat="42.65537616584472" lon="9.115699849971875"><ele>169.0</ele><time>2026-04-04T13:11:57Z</time></trkpt><trkpt lat="42.65530181852903" lon="9.115645183322316"><ele>166.39999999999998</ele><time>2026-04-04T13:11:58Z</time></trkpt><trkpt lat="42.65523395472297" lon="9.115549880342426"><ele>163.79999999999998</ele><time>2026-04-04T13:11:59Z</time></trkpt><trkpt lat="42.65516670799815" lon="9.115447704472874"><ele>161.2</ele><time>2026-04-04T13:12:00Z</time></trkpt><trkpt lat="42.655096955763575" lon="9.115334807457439"><ele>158.6</ele><time>2026-04-04T13:12:01Z</time></trkpt><trkpt lat="42.655021677412186" lon="9.11521473377647"><ele>156.0</ele><time>2026-04-04T13:12:02Z</time></trkpt><trkpt lat="42.6549469318008" lon="9.115098627735296"><ele>156.0</ele><time>2026-04-04T13:12:03Z</time></trkpt><trkpt lat="42.65487100672174" lon="9.114989082875441"><ele>156.0</ele><time>2026-04-04T13:12:04Z</time></trkpt><trkpt lat="42.65478987228768" lon="9.114884782687081"><ele>156.0</ele><time>2026-04-04T13:12:05Z</time></trkpt><trkpt lat="42.654710351278524" lon="9.114779384882118"><ele>156.0</ele><time>2026-04-04T13:12:06Z</time></trkpt><trkpt lat="42.654648534767006" lon="9.114654022124506"><ele>156.0</ele><time>2026-04-04T13:12:07Z</time></trkpt><trkpt lat="42.6545768583423" lon="9.114540604059234"><ele>154.4</ele><time>2026-04-04T13:12:08Z</time></trkpt><trkpt lat="42.65449473227736" lon="9.114439676662512"><ele>152.8</ele><time>2026-04-04T13:12:09Z</time></trkpt><trkpt lat="42.65442245860611" lon="9.11433320257856"><ele>151.20000000000002</ele><time>2026-04-04T13:12:10Z</time></trkpt><trkpt lat="42.654340135411786" lon="9.114247014410395"><ele>149.6</ele><time>2026-04-04T13:12:11Z</time></trkpt><trkpt lat="42.65425872431595" lon="9.1141564822918"><ele>148.0</ele><time>2026-04-04T13:12:12Z</time></trkpt><trkpt lat="42.65415680815348" lon="9.114097980821365"><ele>148.0</ele><time>2026-04-04T13:12:13Z</time></trkpt><trkpt lat="42.65403527148029" lon="9.114107580850252"><ele>148.0</ele><time>2026-04-04T13:12:14Z</time></trkpt><trkpt lat="42.653909528868496" lon="9.114081401557465"><ele>148.0</ele><time>2026-04-04T13:12:15Z</time></trkpt><trkpt lat="42.65379567347679" lon="9.114060062386395"><ele>148.0</ele><time>2026-04-04T13:12:16Z</time></trkpt><trkpt lat="42.65368793228859" lon="9.114030796395426"><ele>147.75</ele><time>2026-04-04T13:12:17Z</time></trkpt><trkpt lat="42.65358660467869" lon="9.113952233792348"><ele>147.5</ele><time>2026-04-04T13:12:18Z</time></trkpt><trkpt lat="42.653484675183364" lon="9.113862969959074"><ele>147.25</ele><time>2026-04-04T13:12:19Z</time></trkpt><trkpt lat="42.65337674724726" lon="9.113773864372286"><ele>147.0</ele><time>2026-04-04T13:12:20Z</time></trkpt><trkpt lat="42.653276076187545" lon="9.113697345789785"><ele>147.0</ele><time>2026-04-04T13:12:21Z</time></trkpt><trkpt lat="42.653180947404884" lon="9.113621963155031"><ele>147.0</ele><time>2026-04-04T13:12:22Z</time></trkpt><trkpt lat="42.65309258527177" lon="9.1135407853757"><ele>147.0</ele><time>2026-04-04T13:12:23Z</time></trkpt><trkpt lat="42.653008127712496" lon="9.113467754932666"><ele>147.0</ele><time>2026-04-04T13:12:24Z</time></trkpt><trkpt lat="42.652928069643565" lon="9.113396196682023"><ele>147.0</ele><time>2026-04-04T13:12:25Z</time></trkpt><trkpt lat="42.652844039792825" lon="9.113332286758341"><ele>144.0</ele><time>2026-04-04T13:12:26Z</time></trkpt><trkpt lat="42.652756514555676" lon="9.113267232492518"><ele>141.0</ele><time>2026-04-04T13:12:27Z</time></trkpt><trkpt lat="42.6526722310019" lon="9.113187757201258"><ele>138.0</ele><time>2026-04-04T13:12:28Z</time></trkpt><trkpt lat="42.65260135010322" lon="9.113085681114875"><ele>135.0</ele><time>2026-04-04T13:12:29Z</time></trkpt><trkpt lat="42.65254747884301" lon="9.1129668055747"><ele>132.0</ele><time>2026-04-04T13:12:30Z</time></trkpt><trkpt lat="42.65250346772855" lon="9.112837888358747"><ele>132.0</ele><time>2026-04-04T13:12:31Z</time></trkpt><trkpt lat="42.65246831688962" lon="9.112705776219215"><ele>132.0</ele><time>2026-04-04T13:12:32Z</time></trkpt><trkpt lat="42.65245036968106" lon="9.112569682047766"><ele>132.0</ele><time>2026-04-04T13:12:33Z</time></trkpt><trkpt lat="42.65245425389601" lon="9.11243136142659"><ele>132.0</ele><time>2026-04-04T13:12:34Z</time></trkpt><trkpt lat="42.652472560701185" lon="9.112298585791073"><ele>132.0</ele><time>2026-04-04T13:12:35Z</time></trkpt><trkpt lat="42.652512544980006" lon="9.112176710698547"><ele>129.79999999999998</ele><time>2026-04-04T13:12:36Z</time></trkpt><trkpt lat="42.652570605642914" lon="9.112069500006788"><ele>127.6</ele><time>2026-04-04T13:12:37Z</time></trkpt><trkpt lat="42.65263842146864" lon="9.11197118560725"><ele>125.39999999999999</ele><time>2026-04-04T13:12:38Z</time></trkpt><trkpt lat="42.65270444346938" lon="9.111872815197659"><ele>123.19999999999999</ele><time>2026-04-04T13:12:39Z</time></trkpt><trkpt lat="42.65276688722585" lon="9.11176931910817"><ele>121.0</ele><time>2026-04-04T13:12:40Z</time></trkpt><trkpt lat="42.65282510199025" lon="9.11165617841741"><ele>122.19999999999999</ele><time>2026-04-04T13:12:41Z</time></trkpt><trkpt lat="42.65287841390201" lon="9.111535831432695"><ele>123.39999999999999</ele><time>2026-04-04T13:12:42Z</time></trkpt><trkpt lat="42.65292191884313" lon="9.111404190035719"><ele>124.6</ele><time>2026-04-04T13:12:43Z</time></trkpt><trkpt lat="42.65294970351238" lon="9.111261757005863"><ele>125.8</ele><time>2026-04-04T13:12:44Z</time></trkpt><trkpt lat="42.6529667237139" lon="9.111113000209748"><ele>127.0</ele><time>2026-04-04T13:12:45Z</time></trkpt><trkpt lat="42.65299486099545" lon="9.110971098197716"><ele>127.0</ele><time>2026-04-04T13:12:46Z</time></trkpt><trkpt lat="42.65303411422706" lon="9.110846623507971"><ele>126.99999999999999</ele><time>2026-04-04T13:12:47Z</time></trkpt><trkpt lat="42.653097348875676" lon="9.110749995234313"><ele>126.99999999999999</ele><time>2026-04-04T13:12:48Z</time></trkpt><trkpt lat="42.65318179860723" lon="9.110702836247146"><ele>127.0</ele><time>2026-04-04T13:12:49Z</time></trkpt><trkpt lat="42.65327657405456" lon="9.110697577518458"><ele>127.0</ele><time>2026-04-04T13:12:50Z</time></trkpt><trkpt lat="42.653379566501684" lon="9.110713046977425"><ele>127.19999999999999</ele><time>2026-04-04T13:12:51Z</time></trkpt><trkpt lat="42.65348368617149" lon="9.110716334073636"><ele>127.39999999999999</ele><time>2026-04-04T13:12:52Z</time></trkpt><trkpt lat="42.653591944077306" lon="9.110710625640383"><ele>127.60000000000001</ele><time>2026-04-04T13:12:53Z</time></trkpt><trkpt lat="42.65370149424287" lon="9.110704644083922"><ele>127.80000000000001</ele><time>2026-04-04T13:12:54Z</time></trkpt><trkpt lat="42.65380209119505" lon="9.11069509686159"><ele>128.0</ele><time>2026-04-04T13:12:55Z</time></trkpt><trkpt lat="42.653891108494896" lon="9.11065176460194"><ele>127.99999999999999</ele><time>2026-04-04T13:12:56Z</time></trkpt><trkpt lat="42.65396055393348" lon="9.110562427211603"><ele>128.0</ele><time>2026-04-04T13:12:57Z</time></trkpt><trkpt lat="42.654003349966175" lon="9.110459154165662"><ele>128.0</ele><time>2026-04-04T13:12:58Z</time></trkpt><trkpt lat="42.65402222343775" lon="9.110343667738288"><ele>128.0</ele><time>2026-04-04T13:12:59Z</time></trkpt><trkpt lat="42.6540291607853" lon="9.110233135754779"><ele>127.99999999999999</ele><time>2026-04-04T13:13:00Z</time></trkpt><trkpt lat="42.653999469249435" lon="9.110120460005513"><ele>128.0</ele><time>2026-04-04T13:13:01Z</time></trkpt><trkpt lat="42.653921634007624" lon="9.110048503998852"><ele>127.99999999999999</ele><time>2026-04-04T13:13:02Z</time></trkpt><trkpt lat="42.653865021622394" lon="9.10998745557578"><ele>128.0</ele><time>2026-04-04T13:13:03Z</time></trkpt><trkpt lat="42.65381704617734" lon="9.109921554918051"><ele>128.0</ele><time>2026-04-04T13:13:04Z</time></trkpt><trkpt lat="42.6537818887615" lon="9.109843483444418"><ele>128.0</ele><time>2026-04-04T13:13:05Z</time></trkpt><trkpt lat="42.65375707672922" lon="9.109750291755514"><ele>127.99999999999999</ele><time>2026-04-04T13:13:06Z</time></trkpt><trkpt lat="42.6537500516196" lon="9.109635886361229"><ele>128.0</ele><time>2026-04-04T13:13:07Z</time></trkpt><trkpt lat="42.65375964697726" lon="9.109519564054127"><ele>126.80000000000001</ele><time>2026-04-04T13:13:08Z</time></trkpt><trkpt lat="42.65380008524669" lon="9.109411786576711"><ele>125.60000000000001</ele><time>2026-04-04T13:13:09Z</time></trkpt><trkpt lat="42.65386215008106" lon="9.109318384317833"><ele>124.39999999999999</ele><time>2026-04-04T13:13:10Z</time></trkpt><trkpt lat="42.65394432379828" lon="9.10923864856768"><ele>123.19999999999999</ele><time>2026-04-04T13:13:11Z</time></trkpt><trkpt lat="42.65401652052293" lon="9.109138690617383"><ele>122.0</ele><time>2026-04-04T13:13:12Z</time></trkpt><trkpt lat="42.654052694050236" lon="9.109012755944878"><ele>122.0</ele><time>2026-04-04T13:13:13Z</time></trkpt><trkpt lat="42.65404518460607" lon="9.108870850241278"><ele>121.99999999999999</ele><time>2026-04-04T13:13:14Z</time></trkpt><trkpt lat="42.65400275750462" lon="9.108735110308873"><ele>121.99999999999999</ele><time>2026-04-04T13:13:15Z</time></trkpt><trkpt lat="42.65392609801538" lon="9.108631598956867"><ele>122.0</ele><time>2026-04-04T13:13:16Z</time></trkpt><trkpt lat="42.65382127101967" lon="9.108585150478513"><ele>122.0</ele><time>2026-04-04T13:13:17Z</time></trkpt><trkpt lat="42.65370946508847" lon="9.10858465158408"><ele>119.25</ele><time>2026-04-04T13:13:18Z</time></trkpt><trkpt lat="42.65358358913995" lon="9.108623693092822"><ele>116.5</ele><time>2026-04-04T13:13:19Z</time></trkpt><trkpt lat="42.653435222090884" lon="9.108631850238893"><ele>113.75</ele><time>2026-04-04T13:13:20Z</time></trkpt><trkpt lat="42.65329320643182" lon="9.108616998341432"><ele>111.0</ele><time>2026-04-04T13:13:21Z</time></trkpt><trkpt lat="42.65317501676528" lon="9.108569078007083"><ele>111.0</ele><time>2026-04-04T13:13:22Z</time></trkpt><trkpt lat="42.65307397096132" lon="9.108496376847226"><ele>111.0</ele><time>2026-04-04T13:13:23Z</time></trkpt><trkpt lat="42.652979058858115" lon="9.108413142829868"><ele>111.0</ele><time>2026-04-04T13:13:24Z</time></trkpt><trkpt lat="42.65288244685543" lon="9.108345930636464"><ele>111.0</ele><time>2026-04-04T13:13:25Z</time></trkpt><trkpt lat="42.652812806704425" lon="9.108248026043004"><ele>111.0</ele><time>2026-04-04T13:13:26Z</time></trkpt><trkpt lat="42.65275050014928" lon="9.108155738283708"><ele>108.8</ele><time>2026-04-04T13:13:27Z</time></trkpt><trkpt lat="42.65269958150386" lon="9.10805072183026"><ele>106.6</ele><time>2026-04-04T13:13:28Z</time></trkpt><trkpt lat="42.6526588602462" lon="9.107933347047357"><ele>104.4</ele><time>2026-04-04T13:13:29Z</time></trkpt><trkpt lat="42.6526296976316" lon="9.107807037563624"><ele>102.2</ele><time>2026-04-04T13:13:30Z</time></trkpt><trkpt lat="42.65261673208329" lon="9.107672681026735"><ele>100.0</ele><time>2026-04-04T13:13:31Z</time></trkpt><trkpt lat="42.65261721566642" lon="9.107529301839449"><ele>98.25</ele><time>2026-04-04T13:13:32Z</time></trkpt><trkpt lat="42.65263174242686" lon="9.107381830175418"><ele>96.5</ele><time>2026-04-04T13:13:33Z</time></trkpt><trkpt lat="42.652669227149424" lon="9.107226755410657"><ele>94.75</ele><time>2026-04-04T13:13:34Z</time></trkpt><trkpt lat="42.65272776341063" lon="9.107047939836269"><ele>93.0</ele><time>2026-04-04T13:13:35Z</time></trkpt><trkpt lat="42.65278558720994" lon="9.106837227067809"><ele>95.0</ele><time>2026-04-04T13:13:36Z</time></trkpt><trkpt lat="42.652834962711644" lon="9.106643252554267"><ele>97.0</ele><time>2026-04-04T13:13:37Z</time></trkpt><trkpt lat="42.65287166099423" lon="9.10648033299191"><ele>99.0</ele><time>2026-04-04T13:13:38Z</time></trkpt><trkpt lat="42.65289889917914" lon="9.106342370519142"><ele>101.0</ele><time>2026-04-04T13:13:39Z</time></trkpt><trkpt lat="42.652908262018755" lon="9.106219293777844"><ele>100.99999999999999</ele><time>2026-04-04T13:13:40Z</time></trkpt><trkpt lat="42.652881740830374" lon="9.106104657010738"><ele>101.0</ele><time>2026-04-04T13:13:41Z</time></trkpt><trkpt lat="42.65282796736853" lon="9.106010083896539"><ele>101.0</ele><time>2026-04-04T13:13:42Z</time></trkpt><trkpt lat="42.65276099912545" lon="9.105934041747497"><ele>101.0</ele><time>2026-04-04T13:13:43Z</time></trkpt><trkpt lat="42.65268045256402" lon="9.105880993641602"><ele>100.99999999999999</ele><time>2026-04-04T13:13:44Z</time></trkpt><trkpt lat="42.65258984893569" lon="9.105881279090834"><ele>101.0</ele><time>2026-04-04T13:13:45Z</time></trkpt><trkpt lat="42.652508377049614" lon="9.105922679731092"><ele>99.8</ele><time>2026-04-04T13:13:46Z</time></trkpt><trkpt lat="42.652428701446226" lon="9.105991487163285"><ele>98.6</ele><time>2026-04-04T13:13:47Z</time></trkpt><trkpt lat="42.6523682981287" lon="9.106096556413098"><ele>97.4</ele><time>2026-04-04T13:13:48Z</time></trkpt><trkpt lat="42.65232888815787" lon="9.106229039976913"><ele>96.2</ele><time>2026-04-04T13:13:49Z</time></trkpt><trkpt lat="42.652266017275906" lon="9.106348871878206"><ele>95.0</ele><time>2026-04-04T13:13:50Z</time></trkpt><trkpt lat="42.65220223245433" lon="9.10647485621529"><ele>94.8</ele><time>2026-04-04T13:13:51Z</time></trkpt><trkpt lat="42.652134587099525" lon="9.106596063464883"><ele>94.6</ele><time>2026-04-04T13:13:52Z</time></trkpt><trkpt lat="42.65205954801309" lon="9.106692493786932"><ele>94.4</ele><time>2026-04-04T13:13:53Z</time></trkpt><trkpt lat="42.651970153904706" lon="9.106760115075735"><ele>94.2</ele><time>2026-04-04T13:13:54Z</time></trkpt><trkpt lat="42.651867768358024" lon="9.106799665596663"><ele>94.0</ele><time>2026-04-04T13:13:55Z</time></trkpt><trkpt lat="42.651762395725896" lon="9.106833305478451"><ele>94.0</ele><time>2026-04-04T13:13:56Z</time></trkpt><trkpt lat="42.651655037629624" lon="9.10687126920256"><ele>94.0</ele><time>2026-04-04T13:13:57Z</time></trkpt><trkpt lat="42.65154704295225" lon="9.10690927416668"><ele>94.0</ele><time>2026-04-04T13:13:58Z</time></trkpt><trkpt lat="42.651439549700704" lon="9.106946619912867"><ele>94.0</ele><time>2026-04-04T13:13:59Z</time></trkpt><trkpt lat="42.65133169052628" lon="9.106985099048671"><ele>94.0</ele><time>2026-04-04T13:14:00Z</time></trkpt><trkpt lat="42.65123248355993" lon="9.107023231127497"><ele>94.0</ele><time>2026-04-04T13:14:01Z</time></trkpt><trkpt lat="42.65113978113127" lon="9.107063699486407"><ele>94.0</ele><time>2026-04-04T13:14:02Z</time></trkpt><trkpt lat="42.65104887399117" lon="9.107100921805603"><ele>94.0</ele><time>2026-04-04T13:14:03Z</time></trkpt><trkpt lat="42.65095391565759" lon="9.107135275699314"><ele>94.0</ele><time>2026-04-04T13:14:04Z</time></trkpt><trkpt lat="42.650853628413266" lon="9.107165989927342"><ele>94.0</ele><time>2026-04-04T13:14:05Z</time></trkpt><trkpt lat="42.650756175568674" lon="9.1071960047775"><ele>93.6</ele><time>2026-04-04T13:14:06Z</time></trkpt><trkpt lat="42.650662750757405" lon="9.10721478031933"><ele>93.2</ele><time>2026-04-04T13:14:07Z</time></trkpt><trkpt lat="42.65056710212044" lon="9.107196617750933"><ele>92.8</ele><time>2026-04-04T13:14:08Z</time></trkpt><trkpt lat="42.65047767204246" lon="9.107136324137013"><ele>92.39999999999999</ele><time>2026-04-04T13:14:09Z</time></trkpt><trkpt lat="42.65039731921337" lon="9.10705401749004"><ele>92.0</ele><time>2026-04-04T13:14:10Z</time></trkpt><trkpt lat="42.65031623749232" lon="9.106976858388093"><ele>91.8</ele><time>2026-04-04T13:14:11Z</time></trkpt><trkpt lat="42.650222343425426" lon="9.1069394872857"><ele>91.6</ele><time>2026-04-04T13:14:12Z</time></trkpt><trkpt lat="42.65012555928808" lon="9.106957284620732"><ele>91.39999999999999</ele><time>2026-04-04T13:14:13Z</time></trkpt><trkpt lat="42.650037440632985" lon="9.107030964082954"><ele>91.19999999999999</ele><time>2026-04-04T13:14:14Z</time></trkpt><trkpt lat="42.649948677861715" lon="9.107105479910047"><ele>91.0</ele><time>2026-04-04T13:14:15Z</time></trkpt><trkpt lat="42.6498712574665" lon="9.10720267830019"><ele>91.0</ele><time>2026-04-04T13:14:16Z</time></trkpt><trkpt lat="42.649793827103906" lon="9.107295404161091"><ele>91.0</ele><time>2026-04-04T13:14:17Z</time></trkpt><trkpt lat="42.649716486768824" lon="9.107387538626567"><ele>91.0</ele><time>2026-04-04T13:14:18Z</time></trkpt><trkpt lat="42.64965915822152" lon="9.107505779279935"><ele>91.0</ele><time>2026-04-04T13:14:19Z</time></trkpt><trkpt lat="42.64958560131705" lon="9.107597791497776"><ele>91.0</ele><time>2026-04-04T13:14:20Z</time></trkpt><trkpt lat="42.649512368064514" lon="9.107684703287571"><ele>90.66666666666666</ele><time>2026-04-04T13:14:21Z</time></trkpt><trkpt lat="42.64943601226082" lon="9.107746209224496"><ele>90.33333333333333</ele><time>2026-04-04T13:14:22Z</time></trkpt><trkpt lat="42.649352107218036" lon="9.107764278523323"><ele>90.0</ele><time>2026-04-04T13:14:23Z</time></trkpt><trkpt lat="42.64927754797995" lon="9.107721437770666"><ele>89.66666666666667</ele><time>2026-04-04T13:14:24Z</time></trkpt><trkpt lat="42.64922349559173" lon="9.107634737260558"><ele>89.33333333333334</ele><time>2026-04-04T13:14:25Z</time></trkpt><trkpt lat="42.64919553530056" lon="9.107521822782259"><ele>89.0</ele><time>2026-04-04T13:14:26Z</time></trkpt><trkpt lat="42.64917106173982" lon="9.10740332212022"><ele>89.0</ele><time>2026-04-04T13:14:27Z</time></trkpt><trkpt lat="42.64913798611404" lon="9.107275784940652"><ele>89.0</ele><time>2026-04-04T13:14:28Z</time></trkpt><trkpt lat="42.64908904135867" lon="9.10713765554964"><ele>89.0</ele><time>2026-04-04T13:14:29Z</time></trkpt><trkpt lat="42.64901955416607" lon="9.107019266965494"><ele>89.0</ele><time>2026-04-04T13:14:30Z</time></trkpt><trkpt lat="42.648929258803825" lon="9.106921202163953"><ele>89.0</ele><time>2026-04-04T13:14:31Z</time></trkpt><trkpt lat="42.648814971645386" lon="9.106851100322334"><ele>89.0</ele><time>2026-04-04T13:14:32Z</time></trkpt><trkpt lat="42.6486985704024" lon="9.106771419193159"><ele>89.0</ele><time>2026-04-04T13:14:33Z</time></trkpt><trkpt lat="42.64860313459529" lon="9.106670220706732"><ele>89.0</ele><time>2026-04-04T13:14:34Z</time></trkpt><trkpt lat="42.64853449235291" lon="9.10656211924482"><ele>89.0</ele><time>2026-04-04T13:14:35Z</time></trkpt><trkpt lat="42.648483257529136" lon="9.106434501611867"><ele>86.2</ele><time>2026-04-04T13:14:36Z</time></trkpt><trkpt lat="42.64844364292097" lon="9.106294597156316"><ele>83.4</ele><time>2026-04-04T13:14:37Z</time></trkpt><trkpt lat="42.64840976132971" lon="9.106156898843702"><ele>80.6</ele><time>2026-04-04T13:14:38Z</time></trkpt><trkpt lat="42.64837596749304" lon="9.106018756325398"><ele>77.8</ele><time>2026-04-04T13:14:39Z</time></trkpt><trkpt lat="42.648337934277386" lon="9.10587821262717"><ele>75.0</ele><time>2026-04-04T13:14:40Z</time></trkpt><trkpt lat="42.64829531406415" lon="9.105727681868084"><ele>74.8</ele><time>2026-04-04T13:14:41Z</time></trkpt><trkpt lat="42.648261980540674" lon="9.105582385048598"><ele>74.6</ele><time>2026-04-04T13:14:42Z</time></trkpt><trkpt lat="42.648244102280735" lon="9.105442050397087"><ele>74.4</ele><time>2026-04-04T13:14:43Z</time></trkpt><trkpt lat="42.64824120996144" lon="9.1052949263594"><ele>74.2</ele><time>2026-04-04T13:14:44Z</time></trkpt><trkpt lat="42.64824921982132" lon="9.105143326791564"><ele>74.0</ele><time>2026-04-04T13:14:45Z</time></trkpt><trkpt lat="42.6482738983768" lon="9.104989394843342"><ele>73.8</ele><time>2026-04-04T13:14:46Z</time></trkpt><trkpt lat="42.648305646000615" lon="9.10483539813499"><ele>73.60000000000001</ele><time>2026-04-04T13:14:47Z</time></trkpt><trkpt lat="42.64834421557287" lon="9.104684732450481"><ele>73.4</ele><time>2026-04-04T13:14:48Z</time></trkpt><trkpt lat="42.648382334999496" lon="9.104555541461275"><ele>73.2</ele><time>2026-04-04T13:14:49Z</time></trkpt><trkpt lat="42.648412805118866" lon="9.104440045365822"><ele>73.0</ele><time>2026-04-04T13:14:50Z</time></trkpt><trkpt lat="42.64842955743602" lon="9.104325929293708"><ele>73.0</ele><time>2026-04-04T13:14:51Z</time></trkpt><trkpt lat="42.64841240989752" lon="9.104208178928962"><ele>73.0</ele><time>2026-04-04T13:14:52Z</time></trkpt><trkpt lat="42.64836513082312" lon="9.104100134322406"><ele>73.0</ele><time>2026-04-04T13:14:53Z</time></trkpt><trkpt lat="42.64828976142413" lon="9.10402901931691"><ele>73.0</ele><time>2026-04-04T13:14:54Z</time></trkpt><trkpt lat="42.64819339049352" lon="9.104010452275205"><ele>73.0</ele><time>2026-04-04T13:14:55Z</time></trkpt><trkpt lat="42.64808865181562" lon="9.104002835590984"><ele>75.75</ele><time>2026-04-04T13:14:56Z</time></trkpt><trkpt lat="42.647980370152595" lon="9.104021583728112"><ele>78.5</ele><time>2026-04-04T13:14:57Z</time></trkpt><trkpt lat="42.64786634511967" lon="9.104040710507082"><ele>81.25</ele><time>2026-04-04T13:14:58Z</time></trkpt><trkpt lat="42.647757167457186" lon="9.104079598654545"><ele>84.0</ele><time>2026-04-04T13:14:59Z</time></trkpt><trkpt lat="42.64763781821224" lon="9.104068348218577"><ele>80.5</ele><time>2026-04-04T13:15:00Z</time></trkpt><trkpt lat="42.64751517084353" lon="9.104098889838555"><ele>77.0</ele><time>2026-04-04T13:15:01Z</time></trkpt><trkpt lat="42.64739273161226" lon="9.104103033271683"><ele>73.5</ele><time>2026-04-04T13:15:02Z</time></trkpt><trkpt lat="42.64727099685985" lon="9.10410710577018"><ele>70.0</ele><time>2026-04-04T13:15:03Z</time></trkpt><trkpt lat="42.647150987753214" lon="9.104114092956742"><ele>70.0</ele><time>2026-04-04T13:15:04Z</time></trkpt><trkpt lat="42.647030447650145" lon="9.104123676481528"><ele>70.0</ele><time>2026-04-04T13:15:05Z</time></trkpt><trkpt lat="42.64690912896545" lon="9.104123691733866"><ele>70.0</ele><time>2026-04-04T13:15:06Z</time></trkpt><trkpt lat="42.646788209153925" lon="9.104109334660292"><ele>70.0</ele><time>2026-04-04T13:15:07Z</time></trkpt><trkpt lat="42.64666857127242" lon="9.104078436822519"><ele>70.2</ele><time>2026-04-04T13:15:08Z</time></trkpt><trkpt lat="42.64655386180635" lon="9.104027166565908"><ele>70.4</ele><time>2026-04-04T13:15:09Z</time></trkpt><trkpt lat="42.64646390807122" lon="9.103941368109739"><ele>70.6</ele><time>2026-04-04T13:15:10Z</time></trkpt><trkpt lat="42.64639956113958" lon="9.103829622870364"><ele>70.8</ele><time>2026-04-04T13:15:11Z</time></trkpt><trkpt lat="42.64635374602534" lon="9.103699156940115"><ele>71.0</ele><time>2026-04-04T13:15:12Z</time></trkpt><trkpt lat="42.64632310870155" lon="9.103557652913993"><ele>71.0</ele><time>2026-04-04T13:15:13Z</time></trkpt><trkpt lat="42.64629617229276" lon="9.103402503217"><ele>71.0</ele><time>2026-04-04T13:15:14Z</time></trkpt><trkpt lat="42.64626240478" lon="9.103209853600246"><ele>71.0</ele><time>2026-04-04T13:15:15Z</time></trkpt><trkpt lat="42.64623247888929" lon="9.103031128671065"><ele>71.0</ele><time>2026-04-04T13:15:16Z</time></trkpt><trkpt lat="42.64620416850108" lon="9.102867955672892"><ele>70.8</ele><time>2026-04-04T13:15:17Z</time></trkpt><trkpt lat="42.64617318955107" lon="9.10271492882688"><ele>70.6</ele><time>2026-04-04T13:15:18Z</time></trkpt><trkpt lat="42.64614700435424" lon="9.102566864307061"><ele>70.4</ele><time>2026-04-04T13:15:19Z</time></trkpt><trkpt lat="42.6461259524192" lon="9.10242399781987"><ele>70.2</ele><time>2026-04-04T13:15:20Z</time></trkpt><trkpt lat="42.64611120256782" lon="9.102290265943703"><ele>70.0</ele><time>2026-04-04T13:15:21Z</time></trkpt><trkpt lat="42.64611270488117" lon="9.102156454782394"><ele>68.2</ele><time>2026-04-04T13:15:22Z</time></trkpt><trkpt lat="42.64613715130756" lon="9.102022122089103"><ele>66.4</ele><time>2026-04-04T13:15:23Z</time></trkpt><trkpt lat="42.646185616542894" lon="9.101893996471448"><ele>64.6</ele><time>2026-04-04T13:15:24Z</time></trkpt><trkpt lat="42.646247413553624" lon="9.101770305097501"><ele>62.8</ele><time>2026-04-04T13:15:25Z</time></trkpt><trkpt lat="42.64631396883834" lon="9.101653258440336"><ele>61.0</ele><time>2026-04-04T13:15:26Z</time></trkpt><trkpt lat="42.64638485212369" lon="9.101559234002549"><ele>59.0</ele><time>2026-04-04T13:15:27Z</time></trkpt><trkpt lat="42.64646494870608" lon="9.101507874786094"><ele>56.99999999999999</ele><time>2026-04-04T13:15:28Z</time></trkpt><trkpt lat="42.64655823424456" lon="9.101500831848936"><ele>55.0</ele><time>2026-04-04T13:15:29Z</time></trkpt><trkpt lat="42.64665387160901" lon="9.101516810922021"><ele>53.0</ele><time>2026-04-04T13:15:30Z</time></trkpt><trkpt lat="42.64675179551296" lon="9.101534930329361"><ele>51.0</ele><time>2026-04-04T13:15:31Z</time></trkpt><trkpt lat="42.64685337106343" lon="9.101545568305184"><ele>51.0</ele><time>2026-04-04T13:15:32Z</time></trkpt><trkpt lat="42.646957569098554" lon="9.101526659660907"><ele>51.0</ele><time>2026-04-04T13:15:33Z</time></trkpt><trkpt lat="42.647045779013645" lon="9.101469600955548"><ele>51.0</ele><time>2026-04-04T13:15:34Z</time></trkpt><trkpt lat="42.64709844710727" lon="9.101360886627266"><ele>51.0</ele><time>2026-04-04T13:15:35Z</time></trkpt><trkpt lat="42.64711059772815" lon="9.101235782089601"><ele>51.0</ele><time>2026-04-04T13:15:36Z</time></trkpt><trkpt lat="42.64708982488066" lon="9.101109986012354"><ele>51.199999999999996</ele><time>2026-04-04T13:15:37Z</time></trkpt><trkpt lat="42.64703352941102" lon="9.100990587365743"><ele>51.4</ele><time>2026-04-04T13:15:38Z</time></trkpt><trkpt lat="42.64698384457813" lon="9.10086727293909"><ele>51.6</ele><time>2026-04-04T13:15:39Z</time></trkpt><trkpt lat="42.646944274239765" lon="9.100736345493782"><ele>51.8</ele><time>2026-04-04T13:15:40Z</time></trkpt><trkpt lat="42.64693832070673" lon="9.10061670772887"><ele>52.0</ele><time>2026-04-04T13:15:41Z</time></trkpt><trkpt lat="42.64695056918112" lon="9.100515175871502"><ele>53.8</ele><time>2026-04-04T13:15:42Z</time></trkpt><trkpt lat="42.64697652013428" lon="9.100421992385677"><ele>55.6</ele><time>2026-04-04T13:15:43Z</time></trkpt><trkpt lat="42.647015591301226" lon="9.100322591336864"><ele>57.39999999999999</ele><time>2026-04-04T13:15:44Z</time></trkpt><trkpt lat="42.64706637575842" lon="9.100226725697002"><ele>59.199999999999996</ele><time>2026-04-04T13:15:45Z</time></trkpt><trkpt lat="42.647139899960415" lon="9.100127831808463"><ele>61.0</ele><time>2026-04-04T13:15:46Z</time></trkpt><trkpt lat="42.64723542649317" lon="9.100021835884558"><ele>58.75</ele><time>2026-04-04T13:15:47Z</time></trkpt><trkpt lat="42.64735067704183" lon="9.099893375169499"><ele>56.5</ele><time>2026-04-04T13:15:48Z</time></trkpt><trkpt lat="42.64745456501783" lon="9.099778536245386"><ele>54.25</ele><time>2026-04-04T13:15:49Z</time></trkpt><trkpt lat="42.647549967557175" lon="9.099674265616871"><ele>52.0</ele><time>2026-04-04T13:15:50Z</time></trkpt><trkpt lat="42.64763721491989" lon="9.099575274087771"><ele>52.0</ele><time>2026-04-04T13:15:51Z</time></trkpt><trkpt lat="42.6477188733687" lon="9.099476918051902"><ele>52.0</ele><time>2026-04-04T13:15:52Z</time></trkpt><trkpt lat="42.647795443641094" lon="9.099374602918934"><ele>52.0</ele><time>2026-04-04T13:15:53Z</time></trkpt><trkpt lat="42.647857350357974" lon="9.09926995463969"><ele>52.0</ele><time>2026-04-04T13:15:54Z</time></trkpt><trkpt lat="42.647899316350575" lon="9.099155351482707"><ele>52.0</ele><time>2026-04-04T13:15:55Z</time></trkpt><trkpt lat="42.647913796600996" lon="9.099031246120209"><ele>52.2</ele><time>2026-04-04T13:15:56Z</time></trkpt><trkpt lat="42.647908134778255" lon="9.098894799972053"><ele>52.400000000000006</ele><time>2026-04-04T13:15:57Z</time></trkpt><trkpt lat="42.64787985349576" lon="9.098761787443774"><ele>52.599999999999994</ele><time>2026-04-04T13:15:58Z</time></trkpt><trkpt lat="42.647824315823144" lon="9.098652536284533"><ele>52.8</ele><time>2026-04-04T13:15:59Z</time></trkpt><trkpt lat="42.647764248433525" lon="9.098576576390034"><ele>53.0</ele><time>2026-04-04T13:16:00Z</time></trkpt><trkpt lat="42.647685640294384" lon="9.098516545966312"><ele>53.0</ele><time>2026-04-04T13:16:02Z</time></trkpt><trkpt lat="42.64760296118685" lon="9.098463770691659"><ele>53.0</ele><time>2026-04-04T13:16:06Z</time></trkpt><trkpt lat="42.64754170082275" lon="9.098436229896459"><ele>53.0</ele><time>2026-04-04T13:16:07Z</time></trkpt><trkpt lat="42.647458599642285" lon="9.098383071640617"><ele>53.0</ele><time>2026-04-04T13:16:08Z</time></trkpt><trkpt lat="42.64736377091831" lon="9.098323692134649"><ele>53.0</ele><time>2026-04-04T13:16:09Z</time></trkpt><trkpt lat="42.64727441031977" lon="9.098266768005022"><ele>52.16666666666667</ele><time>2026-04-04T13:16:10Z</time></trkpt><trkpt lat="42.64718811736009" lon="9.09821101304108"><ele>51.333333333333336</ele><time>2026-04-04T13:16:11Z</time></trkpt><trkpt lat="42.647115318738315" lon="9.098165713940048"><ele>50.5</ele><time>2026-04-04T13:16:12Z</time></trkpt><trkpt lat="42.64705723860328" lon="9.098128211509685"><ele>49.66666666666667</ele><time>2026-04-04T13:16:13Z</time></trkpt><trkpt lat="42.64698782041391" lon="9.098076782454614"><ele>48.833333333333336</ele><time>2026-04-04T13:16:15Z</time></trkpt><trkpt lat="42.64691922090295" lon="9.098031185814857"><ele>48.0</ele><time>2026-04-04T13:16:17Z</time></trkpt><trkpt lat="42.64685415571981" lon="9.097987478309841"><ele>48.0</ele><time>2026-04-04T13:16:20Z</time></trkpt><trkpt lat="42.646796104646654" lon="9.09810909151801"><ele>48.0</ele><time>2026-04-04T13:16:23Z</time></trkpt><trkpt lat="42.64673176473923" lon="9.098057273080576"><ele>48.0</ele><time>2026-04-04T13:20:17Z</time></trkpt><trkpt lat="42.646737767817704" lon="9.097963134345008"><ele>48.0</ele><time>2026-04-04T13:20:19Z</time></trkpt><trkpt lat="42.646725985914685" lon="9.097848993648705"><ele>48.0</ele><time>2026-04-04T13:20:23Z</time></trkpt><trkpt lat="42.646671372572996" lon="9.097739755981511"><ele>48.0</ele><time>2026-04-04T13:20:25Z</time></trkpt><trkpt lat="42.64665823306236" lon="9.09764737824732"><ele>48.0</ele><time>2026-04-04T13:20:26Z</time></trkpt><trkpt lat="42.64665453038332" lon="9.097544076789383"><ele>48.0</ele><time>2026-04-04T13:20:27Z</time></trkpt><trkpt lat="42.64665352183444" lon="9.0974398185513"><ele>48.0</ele><time>2026-04-04T13:20:28Z</time></trkpt><trkpt lat="42.646651002493286" lon="9.097308418460067"><ele>48.0</ele><time>2026-04-04T13:20:29Z</time></trkpt><trkpt lat="42.646643668186655" lon="9.097148929585392"><ele>48.0</ele><time>2026-04-04T13:20:30Z</time></trkpt><trkpt lat="42.646637670071236" lon="9.096991380115982"><ele>47.8</ele><time>2026-04-04T13:20:31Z</time></trkpt><trkpt lat="42.64663125083315" lon="9.096834683784294"><ele>47.599999999999994</ele><time>2026-04-04T13:20:32Z</time></trkpt><trkpt lat="42.64662484056287" lon="9.0966852245562"><ele>47.400000000000006</ele><time>2026-04-04T13:20:33Z</time></trkpt><trkpt lat="42.64661391934921" lon="9.096538767671861"><ele>47.2</ele><time>2026-04-04T13:20:34Z</time></trkpt><trkpt lat="42.646605249352405" lon="9.096392831659344"><ele>47.0</ele><time>2026-04-04T13:20:35Z</time></trkpt><trkpt lat="42.64660037568985" lon="9.096235909890188"><ele>46.75</ele><time>2026-04-04T13:20:36Z</time></trkpt><trkpt lat="42.64659569119624" lon="9.096073471659606"><ele>46.5</ele><time>2026-04-04T13:20:37Z</time></trkpt><trkpt lat="42.64658582826631" lon="9.095921998604002"><ele>46.25</ele><time>2026-04-04T13:20:38Z</time></trkpt><trkpt lat="42.64657315173268" lon="9.095765825093867"><ele>46.0</ele><time>2026-04-04T13:20:39Z</time></trkpt><trkpt lat="42.646560121022596" lon="9.09559217889825"><ele>46.0</ele><time>2026-04-04T13:20:40Z</time></trkpt><trkpt lat="42.64654901194757" lon="9.095411344019974"><ele>46.0</ele><time>2026-04-04T13:20:41Z</time></trkpt><trkpt lat="42.64654203071859" lon="9.095231880438922"><ele>46.0</ele><time>2026-04-04T13:20:42Z</time></trkpt><trkpt lat="42.646536527712236" lon="9.095061225346722"><ele>46.0</ele><time>2026-04-04T13:20:43Z</time></trkpt><trkpt lat="42.64653073518117" lon="9.094898742144634"><ele>46.0</ele><time>2026-04-04T13:20:44Z</time></trkpt><trkpt lat="42.64652448879878" lon="9.09473501306416"><ele>46.0</ele><time>2026-04-04T13:20:45Z</time></trkpt><trkpt lat="42.64651977891489" lon="9.094572908455579"><ele>46.0</ele><time>2026-04-04T13:20:46Z</time></trkpt><trkpt lat="42.64651739871787" lon="9.094409791831046"><ele>46.0</ele><time>2026-04-04T13:20:47Z</time></trkpt><trkpt lat="42.64651805146336" lon="9.094243414213981"><ele>45.0</ele><time>2026-04-04T13:20:48Z</time></trkpt><trkpt lat="42.646524515642824" lon="9.094085879247999"><ele>44.0</ele><time>2026-04-04T13:20:49.001Z</time></trkpt><trkpt lat="42.646533158453686" lon="9.093925532725633"><ele>43.0</ele><time>2026-04-04T13:20:50.001Z</time></trkpt><trkpt lat="42.64654862873759" lon="9.09377316361947"><ele>42.0</ele><time>2026-04-04T13:20:51.001Z</time></trkpt><trkpt lat="42.646560256667755" lon="9.093605025847836"><ele>42.0</ele><time>2026-04-04T13:20:52.001Z</time></trkpt><trkpt lat="42.64659023629434" lon="9.093438774131888"><ele>42.0</ele><time>2026-04-04T13:20:53.001Z</time></trkpt><trkpt lat="42.64662786357548" lon="9.093268231082504"><ele>42.0</ele><time>2026-04-04T13:20:54.001Z</time></trkpt><trkpt lat="42.64667611723536" lon="9.093105469496745"><ele>42.0</ele><time>2026-04-04T13:20:55.001Z</time></trkpt><trkpt lat="42.64672633836456" lon="9.092947485871782"><ele>42.0</ele><time>2026-04-04T13:20:56.001Z</time></trkpt><trkpt lat="42.64678162483171" lon="9.092793625364903"><ele>42.0</ele><time>2026-04-04T13:20:57.001Z</time></trkpt><trkpt lat="42.646844010348055" lon="9.092646526670944"><ele>42.0</ele><time>2026-04-04T13:20:58.001Z</time></trkpt><trkpt lat="42.646911374023496" lon="9.0925072105724"><ele>42.0</ele><time>2026-04-04T13:20:59.001Z</time></trkpt><trkpt lat="42.64698270938294" lon="9.092369123865954"><ele>42.0</ele><time>2026-04-04T13:21:00.001Z</time></trkpt><trkpt lat="42.64706262531608" lon="9.092239580760063"><ele>42.0</ele><time>2026-04-04T13:21:01.001Z</time></trkpt><trkpt lat="42.647145109876305" lon="9.092111613961515"><ele>42.0</ele><time>2026-04-04T13:21:02.001Z</time></trkpt><trkpt lat="42.64723419772876" lon="9.09198370002254"><ele>42.0</ele><time>2026-04-04T13:21:03.001Z</time></trkpt><trkpt lat="42.64733055965885" lon="9.091855042579885"><ele>42.0</ele><time>2026-04-04T13:21:04.001Z</time></trkpt><trkpt lat="42.64742900609977" lon="9.09172355872228"><ele>42.0</ele><time>2026-04-04T13:21:05.001Z</time></trkpt><trkpt lat="42.64753197716246" lon="9.09158815398602"><ele>42.0</ele><time>2026-04-04T13:21:06.001Z</time></trkpt><trkpt lat="42.64763386229781" lon="9.091453411060133"><ele>42.0</ele><time>2026-04-04T13:21:07.001Z</time></trkpt><trkpt lat="42.64772556631827" lon="9.091332533815844"><ele>41.25</ele><time>2026-04-04T13:21:08.001Z</time></trkpt><trkpt lat="42.64782381710968" lon="9.091209555766902"><ele>40.5</ele><time>2026-04-04T13:21:09.001Z</time></trkpt><trkpt lat="42.64792436233299" lon="9.091080018692658"><ele>39.75</ele><time>2026-04-04T13:21:10.001Z</time></trkpt><trkpt lat="42.64802613341667" lon="9.090950569463264"><ele>39.0</ele><time>2026-04-04T13:21:11.001Z</time></trkpt><trkpt lat="42.64812300713512" lon="9.090833478682786"><ele>39.5</ele><time>2026-04-04T13:21:12.001Z</time></trkpt><trkpt lat="42.64822693756335" lon="9.090723798886607"><ele>40.0</ele><time>2026-04-04T13:21:13.001Z</time></trkpt><trkpt lat="42.648339068350715" lon="9.090620310292527"><ele>40.5</ele><time>2026-04-04T13:21:14.001Z</time></trkpt><trkpt lat="42.64845669294112" lon="9.090525050239892"><ele>41.0</ele><time>2026-04-04T13:21:15.001Z</time></trkpt><trkpt lat="42.64857798241375" lon="9.090438816949598"><ele>40.75</ele><time>2026-04-04T13:21:16.001Z</time></trkpt><trkpt lat="42.64870530198426" lon="9.090362959636414"><ele>40.5</ele><time>2026-04-04T13:21:17.001Z</time></trkpt><trkpt lat="42.6488339099109" lon="9.090295987480264"><ele>40.25</ele><time>2026-04-04T13:21:18.001Z</time></trkpt><trkpt lat="42.648964101316054" lon="9.09024808972931"><ele>40.0</ele><time>2026-04-04T13:21:19.001Z</time></trkpt><trkpt lat="42.6490940280982" lon="9.090206570896008"><ele>40.0</ele><time>2026-04-04T13:21:20.001Z</time></trkpt><trkpt lat="42.64921055378288" lon="9.090170567569514"><ele>40.0</ele><time>2026-04-04T13:21:21.001Z</time></trkpt><trkpt lat="42.64932508898897" lon="9.090129806733302"><ele>40.0</ele><time>2026-04-04T13:21:22.001Z</time></trkpt><trkpt lat="42.64943942482744" lon="9.0900839214376"><ele>40.0</ele><time>2026-04-04T13:21:23.001Z</time></trkpt><trkpt lat="42.64955299539674" lon="9.090027695973822"><ele>39.5</ele><time>2026-04-04T13:21:24.001Z</time></trkpt><trkpt lat="42.64966144005283" lon="9.089956325631226"><ele>39.0</ele><time>2026-04-04T13:21:25.001Z</time></trkpt><trkpt lat="42.649762121222324" lon="9.089869327736942"><ele>38.5</ele><time>2026-04-04T13:21:26.001Z</time></trkpt><trkpt lat="42.649857601166836" lon="9.089767407757638"><ele>38.0</ele><time>2026-04-04T13:21:27.001Z</time></trkpt><trkpt lat="42.649939888057155" lon="9.089663729511637"><ele>38.0</ele><time>2026-04-04T13:21:28.001Z</time></trkpt><trkpt lat="42.6500095054168" lon="9.089547548402024"><ele>38.0</ele><time>2026-04-04T13:21:29.001Z</time></trkpt><trkpt lat="42.65007137428847" lon="9.089420907263548"><ele>38.0</ele><time>2026-04-04T13:21:30.001Z</time></trkpt><trkpt lat="42.6501276322788" lon="9.089277784544164"><ele>38.0</ele><time>2026-04-04T13:21:31.001Z</time></trkpt><trkpt lat="42.65017551960988" lon="9.08912206067609"><ele>37.75</ele><time>2026-04-04T13:21:32.001Z</time></trkpt><trkpt lat="42.650214648796265" lon="9.0889521781161"><ele>37.5</ele><time>2026-04-04T13:21:33.001Z</time></trkpt><trkpt lat="42.65023649822397" lon="9.088767688551407"><ele>37.25</ele><time>2026-04-04T13:21:34.001Z</time></trkpt><trkpt lat="42.65024229088988" lon="9.088573381876705"><ele>37.0</ele><time>2026-04-04T13:21:35.001Z</time></trkpt><trkpt lat="42.65023794089014" lon="9.088375965827312"><ele>35.0</ele><time>2026-04-04T13:21:36.001Z</time></trkpt><trkpt lat="42.6502237406191" lon="9.088182051592481"><ele>33.0</ele><time>2026-04-04T13:21:37.001Z</time></trkpt><trkpt lat="42.6502073793517" lon="9.087992124326762"><ele>31.0</ele><time>2026-04-04T13:21:38.001Z</time></trkpt><trkpt lat="42.650190578394636" lon="9.087800371050994"><ele>29.0</ele><time>2026-04-04T13:21:39.001Z</time></trkpt><trkpt lat="42.650176059260765" lon="9.087603876856846"><ele>27.75</ele><time>2026-04-04T13:21:40Z</time></trkpt><trkpt lat="42.65016757480801" lon="9.087410221293412"><ele>26.5</ele><time>2026-04-04T13:21:41Z</time></trkpt><trkpt lat="42.65016473601432" lon="9.087224211862209"><ele>25.25</ele><time>2026-04-04T13:21:42Z</time></trkpt><trkpt lat="42.65017122574251" lon="9.087024716855717"><ele>24.0</ele><time>2026-04-04T13:21:43Z</time></trkpt><trkpt lat="42.65019258284542" lon="9.086828108703811"><ele>24.0</ele><time>2026-04-04T13:21:44Z</time></trkpt><trkpt lat="42.650217273672276" lon="9.086627528532583"><ele>24.0</ele><time>2026-04-04T13:21:45Z</time></trkpt><trkpt lat="42.65025192792625" lon="9.086413509276506"><ele>24.0</ele><time>2026-04-04T13:21:46Z</time></trkpt><trkpt lat="42.650287264238244" lon="9.086206889612866"><ele>22.25</ele><time>2026-04-04T13:21:47Z</time></trkpt><trkpt lat="42.65032215665445" lon="9.086012243016798"><ele>20.5</ele><time>2026-04-04T13:21:48Z</time></trkpt><trkpt lat="42.65035663672047" lon="9.085828785528188"><ele>18.75</ele><time>2026-04-04T13:21:49Z</time></trkpt><trkpt lat="42.65038921220554" lon="9.085640316545346"><ele>17.0</ele><time>2026-04-04T13:21:50Z</time></trkpt><trkpt lat="42.650423857642714" lon="9.085445790603075"><ele>16.25</ele><time>2026-04-04T13:21:51Z</time></trkpt><trkpt lat="42.65045895495587" lon="9.085256213273532"><ele>15.5</ele><time>2026-04-04T13:21:52Z</time></trkpt><trkpt lat="42.65048916463793" lon="9.085079297206386"><ele>14.75</ele><time>2026-04-04T13:21:53Z</time></trkpt><trkpt lat="42.650518915215685" lon="9.084900067274456"><ele>14.0</ele><time>2026-04-04T13:21:54Z</time></trkpt><trkpt lat="42.65055087329938" lon="9.084713599450048"><ele>13.5</ele><time>2026-04-04T13:21:55Z</time></trkpt><trkpt lat="42.650582390851916" lon="9.084524459012739"><ele>13.0</ele><time>2026-04-04T13:21:56Z</time></trkpt><trkpt lat="42.6506123504707" lon="9.084345118622288"><ele>12.5</ele><time>2026-04-04T13:21:57Z</time></trkpt><trkpt lat="42.650645133430054" lon="9.08416979008043"><ele>12.0</ele><time>2026-04-04T13:21:58Z</time></trkpt><trkpt lat="42.65067605703128" lon="9.08399629968738"><ele>12.0</ele><time>2026-04-04T13:21:59Z</time></trkpt><trkpt lat="42.65070645214201" lon="9.083830191169643"><ele>12.0</ele><time>2026-04-04T13:22:00Z</time></trkpt><trkpt lat="42.65073449335507" lon="9.083663586034955"><ele>12.0</ele><time>2026-04-04T13:22:01Z</time></trkpt><trkpt lat="42.650761575250755" lon="9.08349173025786"><ele>12.0</ele><time>2026-04-04T13:22:02Z</time></trkpt><trkpt lat="42.65078985620609" lon="9.083322425757842"><ele>11.5</ele><time>2026-04-04T13:22:03Z</time></trkpt><trkpt lat="42.65081861819131" lon="9.083154550693251"><ele>11.0</ele><time>2026-04-04T13:22:04Z</time></trkpt><trkpt lat="42.65084856442281" lon="9.082988114198256"><ele>10.5</ele><time>2026-04-04T13:22:05Z</time></trkpt><trkpt lat="42.65087774526272" lon="9.082820693573433"><ele>10.0</ele><time>2026-04-04T13:22:06Z</time></trkpt><trkpt lat="42.650907204614555" lon="9.08265340193205"><ele>10.0</ele><time>2026-04-04T13:22:07Z</time></trkpt><trkpt lat="42.650937661507484" lon="9.082485475430415"><ele>10.0</ele><time>2026-04-04T13:22:08Z</time></trkpt><trkpt lat="42.65096948157882" lon="9.082313463781137"><ele>10.0</ele><time>2026-04-04T13:22:09Z</time></trkpt><trkpt lat="42.650999982173424" lon="9.08213153387967"><ele>10.0</ele><time>2026-04-04T13:22:10Z</time></trkpt><trkpt lat="42.651033214042826" lon="9.081938855478842"><ele>9.5</ele><time>2026-04-04T13:22:11Z</time></trkpt><trkpt lat="42.65106558005722" lon="9.081760138912246"><ele>9.0</ele><time>2026-04-04T13:22:12Z</time></trkpt><trkpt lat="42.65109639519106" lon="9.081581329021937"><ele>8.5</ele><time>2026-04-04T13:22:13Z</time></trkpt><trkpt lat="42.65112594363958" lon="9.08139773083988"><ele>8.0</ele><time>2026-04-04T13:22:14Z</time></trkpt><trkpt lat="42.651155060524836" lon="9.081229274491681"><ele>7.75</ele><time>2026-04-04T13:22:15Z</time></trkpt><trkpt lat="42.6511836208399" lon="9.08106918567848"><ele>7.5</ele><time>2026-04-04T13:22:16Z</time></trkpt><trkpt lat="42.65121161223055" lon="9.080910796564451"><ele>7.25</ele><time>2026-04-04T13:22:17Z</time></trkpt><trkpt lat="42.651239601064695" lon="9.080745941381897"><ele>7.0</ele><time>2026-04-04T13:22:18Z</time></trkpt><trkpt lat="42.651269753909645" lon="9.080571012552676"><ele>6.75</ele><time>2026-04-04T13:22:19Z</time></trkpt><trkpt lat="42.65129815975052" lon="9.080400221302675"><ele>6.5</ele><time>2026-04-04T13:22:20Z</time></trkpt><trkpt lat="42.65132602756552" lon="9.080235770736932"><ele>6.25</ele><time>2026-04-04T13:22:21Z</time></trkpt><trkpt lat="42.65135293126835" lon="9.080070314483786"><ele>6.0</ele><time>2026-04-04T13:22:22Z</time></trkpt><trkpt lat="42.65138198760789" lon="9.07990678407875"><ele>6.0</ele><time>2026-04-04T13:22:23Z</time></trkpt><trkpt lat="42.651412617202794" lon="9.07973521527493"><ele>6.0</ele><time>2026-04-04T13:22:24Z</time></trkpt><trkpt lat="42.65144528788652" lon="9.07955854972663"><ele>6.0</ele><time>2026-04-04T13:22:25Z</time></trkpt><trkpt lat="42.65147167885404" lon="9.0793778910082"><ele>6.0</ele><time>2026-04-04T13:22:26Z</time></trkpt><trkpt lat="42.65150184718361" lon="9.079209694038617"><ele>5.75</ele><time>2026-04-04T13:22:27Z</time></trkpt><trkpt lat="42.651530616024594" lon="9.079040812537325"><ele>5.5</ele><time>2026-04-04T13:22:28Z</time></trkpt><trkpt lat="42.651559471647786" lon="9.078873784980003"><ele>5.25</ele><time>2026-04-04T13:22:29Z</time></trkpt><trkpt lat="42.6515892097154" lon="9.078708103731604"><ele>5.0</ele><time>2026-04-04T13:22:30Z</time></trkpt><trkpt lat="42.65161863335108" lon="9.078538570842454"><ele>5.0</ele><time>2026-04-04T13:22:31Z</time></trkpt><trkpt lat="42.65164907311721" lon="9.078367175340421"><ele>5.0</ele><time>2026-04-04T13:22:32Z</time></trkpt><trkpt lat="42.65168090601284" lon="9.078193365214561"><ele>5.0</ele><time>2026-04-04T13:22:33Z</time></trkpt><trkpt lat="42.65171289386485" lon="9.078014462551977"><ele>5.0</ele><time>2026-04-04T13:22:34Z</time></trkpt><trkpt lat="42.65174621737265" lon="9.07782840259317"><ele>5.0</ele><time>2026-04-04T13:22:35Z</time></trkpt><trkpt lat="42.6517806926623" lon="9.077634788037338"><ele>5.0</ele><time>2026-04-04T13:22:36Z</time></trkpt><trkpt lat="42.651814470814685" lon="9.077446782845731"><ele>5.0</ele><time>2026-04-04T13:22:37Z</time></trkpt><trkpt lat="42.651846934885214" lon="9.077263008822085"><ele>5.0</ele><time>2026-04-04T13:22:38Z</time></trkpt><trkpt lat="42.65187793868162" lon="9.077081577178477"><ele>5.0</ele><time>2026-04-04T13:22:39Z</time></trkpt><trkpt lat="42.65190984405556" lon="9.076901426848952"><ele>5.0</ele><time>2026-04-04T13:22:40.001Z</time></trkpt><trkpt lat="42.651938872285484" lon="9.07672872010053"><ele>5.0</ele><time>2026-04-04T13:22:41.001Z</time></trkpt><trkpt lat="42.65196988502217" lon="9.076557721665658"><ele>5.0</ele><time>2026-04-04T13:22:42.001Z</time></trkpt><trkpt lat="42.65200220482461" lon="9.076375936598337"><ele>5.0</ele><time>2026-04-04T13:22:43.001Z</time></trkpt><trkpt lat="42.65203167306865" lon="9.07619925243377"><ele>5.0</ele><time>2026-04-04T13:22:44.001Z</time></trkpt><trkpt lat="42.65206296769008" lon="9.07602525848942"><ele>5.0</ele><time>2026-04-04T13:22:45.001Z</time></trkpt><trkpt lat="42.6520939703042" lon="9.075852831383399"><ele>5.0</ele><time>2026-04-04T13:22:46.001Z</time></trkpt><trkpt lat="42.652121680159205" lon="9.075684329825947"><ele>5.0</ele><time>2026-04-04T13:22:47.001Z</time></trkpt><trkpt lat="42.652149721283784" lon="9.07551771313568"><ele>5.0</ele><time>2026-04-04T13:22:48.001Z</time></trkpt><trkpt lat="42.65217966688412" lon="9.075351713498433"><ele>5.0</ele><time>2026-04-04T13:22:49.001Z</time></trkpt><trkpt lat="42.65221031411765" lon="9.07518369676322"><ele>5.0</ele><time>2026-04-04T13:22:50.001Z</time></trkpt><trkpt lat="42.65223595137152" lon="9.075010367203653"><ele>4.5</ele><time>2026-04-04T13:22:51.001Z</time></trkpt><trkpt lat="42.65226760871488" lon="9.074833634242976"><ele>4.0</ele><time>2026-04-04T13:22:52.001Z</time></trkpt><trkpt lat="42.65229897746244" lon="9.074653453933493"><ele>3.5</ele><time>2026-04-04T13:22:53.001Z</time></trkpt><trkpt lat="42.65232984078934" lon="9.074489782237665"><ele>3.0</ele><time>2026-04-04T13:22:54.001Z</time></trkpt><trkpt lat="42.65235961654983" lon="9.074325873533287"><ele>3.0</ele><time>2026-04-04T13:22:55.001Z</time></trkpt><trkpt lat="42.65238830028942" lon="9.074162573681265"><ele>3.0</ele><time>2026-04-04T13:22:56.001Z</time></trkpt><trkpt lat="42.65241540040974" lon="9.073997727326015"><ele>3.0</ele><time>2026-04-04T13:22:57.001Z</time></trkpt><trkpt lat="42.65244615596535" lon="9.073829069645228"><ele>3.0</ele><time>2026-04-04T13:22:58.001Z</time></trkpt><trkpt lat="42.652477656452255" lon="9.073656655418684"><ele>3.75</ele><time>2026-04-04T13:22:59.001Z</time></trkpt><trkpt lat="42.65250835969584" lon="9.07347859920244"><ele>4.5</ele><time>2026-04-04T13:23:00.001Z</time></trkpt><trkpt lat="42.65253932380095" lon="9.073297182444145"><ele>5.25</ele><time>2026-04-04T13:23:01.001Z</time></trkpt><trkpt lat="42.65257012063546" lon="9.073122639366462"><ele>6.0</ele><time>2026-04-04T13:23:02.001Z</time></trkpt><trkpt lat="42.65260173979257" lon="9.072945035434671"><ele>7.25</ele><time>2026-04-04T13:23:03.001Z</time></trkpt><trkpt lat="42.652634233765454" lon="9.072763435039422"><ele>8.5</ele><time>2026-04-04T13:23:04.001Z</time></trkpt><trkpt lat="42.6526661565565" lon="9.072587288241165"><ele>9.75</ele><time>2026-04-04T13:23:05.001Z</time></trkpt><trkpt lat="42.652697463122955" lon="9.072414364143707"><ele>11.0</ele><time>2026-04-04T13:23:06.001Z</time></trkpt><trkpt lat="42.65272784756006" lon="9.072250343199645"><ele>11.0</ele><time>2026-04-04T13:23:07.001Z</time></trkpt><trkpt lat="42.6527572725075" lon="9.072093310837081"><ele>11.0</ele><time>2026-04-04T13:23:08.001Z</time></trkpt><trkpt lat="42.65278384518961" lon="9.071933694222734"><ele>11.0</ele><time>2026-04-04T13:23:09.001Z</time></trkpt><trkpt lat="42.652811103967025" lon="9.071763131226474"><ele>11.0</ele><time>2026-04-04T13:23:10.001Z</time></trkpt><trkpt lat="42.652841889824316" lon="9.071581085403203"><ele>10.0</ele><time>2026-04-04T13:23:11.001Z</time></trkpt><trkpt lat="42.65287379485997" lon="9.071405518032194"><ele>9.0</ele><time>2026-04-04T13:23:12.001Z</time></trkpt><trkpt lat="42.65290451676556" lon="9.071224232232279"><ele>8.0</ele><time>2026-04-04T13:23:13.001Z</time></trkpt><trkpt lat="42.65293716226167" lon="9.071034772636168"><ele>7.0</ele><time>2026-04-04T13:23:14.001Z</time></trkpt><trkpt lat="42.652971865782625" lon="9.070851635213234"><ele>7.75</ele><time>2026-04-04T13:23:15.001Z</time></trkpt><trkpt lat="42.65300180291519" lon="9.070678580700415"><ele>8.5</ele><time>2026-04-04T13:23:16.001Z</time></trkpt><trkpt lat="42.65303229704944" lon="9.070503218019809"><ele>9.25</ele><time>2026-04-04T13:23:17.001Z</time></trkpt><trkpt lat="42.65306389183548" lon="9.070322659779148"><ele>10.0</ele><time>2026-04-04T13:23:18.001Z</time></trkpt><trkpt lat="42.65309281835422" lon="9.070142752736631"><ele>10.0</ele><time>2026-04-04T13:23:19.001Z</time></trkpt><trkpt lat="42.65311989280774" lon="9.06997955834229"><ele>10.0</ele><time>2026-04-04T13:23:20.001Z</time></trkpt><trkpt lat="42.653146848623244" lon="9.06981640136029"><ele>10.0</ele><time>2026-04-04T13:23:21.001Z</time></trkpt><trkpt lat="42.65317239045653" lon="9.069656041946212"><ele>10.0</ele><time>2026-04-04T13:23:22.001Z</time></trkpt><trkpt lat="42.65319843721675" lon="9.069491097561482"><ele>11.25</ele><time>2026-04-04T13:23:23.001Z</time></trkpt><trkpt lat="42.653227283178325" lon="9.069316924262269"><ele>12.5</ele><time>2026-04-04T13:23:24.001Z</time></trkpt><trkpt lat="42.653261369938626" lon="9.069131472416302"><ele>13.75</ele><time>2026-04-04T13:23:25.001Z</time></trkpt><trkpt lat="42.65329773220154" lon="9.068930355519417"><ele>15.0</ele><time>2026-04-04T13:23:26.001Z</time></trkpt><trkpt lat="42.6533245791604" lon="9.068754943590035"><ele>15.5</ele><time>2026-04-04T13:23:27.001Z</time></trkpt><trkpt lat="42.653349290775594" lon="9.068585224928823"><ele>16.0</ele><time>2026-04-04T13:23:28.001Z</time></trkpt><trkpt lat="42.65337035052126" lon="9.068418683381315"><ele>16.5</ele><time>2026-04-04T13:23:29.001Z</time></trkpt><trkpt lat="42.65338323914835" lon="9.068249764627254"><ele>17.0</ele><time>2026-04-04T13:23:30.001Z</time></trkpt><trkpt lat="42.65339056415474" lon="9.06806860439668"><ele>17.75</ele><time>2026-04-04T13:23:31.001Z</time></trkpt><trkpt lat="42.65338925234958" lon="9.067882663964232"><ele>18.5</ele><time>2026-04-04T13:23:32.001Z</time></trkpt><trkpt lat="42.653382998415545" lon="9.067696487441967"><ele>19.25</ele><time>2026-04-04T13:23:33.001Z</time></trkpt><trkpt lat="42.65337832206026" lon="9.06750979517108"><ele>20.0</ele><time>2026-04-04T13:23:34.001Z</time></trkpt><trkpt lat="42.653376176639355" lon="9.067312978067752"><ele>20.25</ele><time>2026-04-04T13:23:35.001Z</time></trkpt><trkpt lat="42.65337393337006" lon="9.067139313241663"><ele>20.5</ele><time>2026-04-04T13:23:36.001Z</time></trkpt><trkpt lat="42.653372163306834" lon="9.066976814827788"><ele>20.75</ele><time>2026-04-04T13:23:37.001Z</time></trkpt><trkpt lat="42.65337373456877" lon="9.066806257006574"><ele>21.0</ele><time>2026-04-04T13:23:38.001Z</time></trkpt><trkpt lat="42.653376614028545" lon="9.066624545437673"><ele>21.5</ele><time>2026-04-04T13:23:39.001Z</time></trkpt><trkpt lat="42.65337463579304" lon="9.066450090823048"><ele>22.0</ele><time>2026-04-04T13:23:40.001Z</time></trkpt><trkpt lat="42.653370667832746" lon="9.066276122186808"><ele>22.5</ele><time>2026-04-04T13:23:41.001Z</time></trkpt><trkpt lat="42.65336968001341" lon="9.066104123480956"><ele>23.0</ele><time>2026-04-04T13:23:42.001Z</time></trkpt><trkpt lat="42.65336897404218" lon="9.06593421821883"><ele>23.25</ele><time>2026-04-04T13:23:43.001Z</time></trkpt><trkpt lat="42.65336845824547" lon="9.065775148021007"><ele>23.5</ele><time>2026-04-04T13:23:44.001Z</time></trkpt><trkpt lat="42.65336856491615" lon="9.06561117228658"><ele>23.75</ele><time>2026-04-04T13:23:45.001Z</time></trkpt><trkpt lat="42.65336677683101" lon="9.065449262072235"><ele>24.0</ele><time>2026-04-04T13:23:46Z</time></trkpt><trkpt lat="42.65336629786184" lon="9.065290012038906"><ele>24.0</ele><time>2026-04-04T13:23:47Z</time></trkpt><trkpt lat="42.65336428494592" lon="9.065128947725993"><ele>24.0</ele><time>2026-04-04T13:23:48Z</time></trkpt><trkpt lat="42.6533616861986" lon="9.064964696968039"><ele>24.0</ele><time>2026-04-04T13:23:49Z</time></trkpt><trkpt lat="42.65336131133507" lon="9.064790525547268"><ele>24.0</ele><time>2026-04-04T13:23:50Z</time></trkpt><trkpt lat="42.653361646910845" lon="9.064606113631113"><ele>26.0</ele><time>2026-04-04T13:23:51Z</time></trkpt><trkpt lat="42.65336232075133" lon="9.064428007928631"><ele>28.0</ele><time>2026-04-04T13:23:52Z</time></trkpt><trkpt lat="42.65336161067956" lon="9.064262138769486"><ele>30.0</ele><time>2026-04-04T13:23:53Z</time></trkpt><trkpt lat="42.65336032542325" lon="9.064093589730586"><ele>32.0</ele><time>2026-04-04T13:23:54Z</time></trkpt><trkpt lat="42.653359299054166" lon="9.063922334254958"><ele>32.5</ele><time>2026-04-04T13:23:55Z</time></trkpt><trkpt lat="42.653356183690214" lon="9.063750935200048"><ele>33.0</ele><time>2026-04-04T13:23:56Z</time></trkpt><trkpt lat="42.65335375251978" lon="9.063578845961965"><ele>33.5</ele><time>2026-04-04T13:23:57Z</time></trkpt><trkpt lat="42.65335336859314" lon="9.06341611468485"><ele>34.0</ele><time>2026-04-04T13:23:58Z</time></trkpt><trkpt lat="42.65335053673011" lon="9.063257160931899"><ele>34.0</ele><time>2026-04-04T13:23:59Z</time></trkpt><trkpt lat="42.653349005873324" lon="9.063098579065821"><ele>34.0</ele><time>2026-04-04T13:24:00Z</time></trkpt><trkpt lat="42.65334940238943" lon="9.062937758332318"><ele>34.0</ele><time>2026-04-04T13:24:01Z</time></trkpt><trkpt lat="42.65334955155819" lon="9.062771461881228"><ele>34.0</ele><time>2026-04-04T13:24:02Z</time></trkpt><trkpt lat="42.65334976070662" lon="9.062614189624123"><ele>34.0</ele><time>2026-04-04T13:24:03Z</time></trkpt><trkpt lat="42.653349624017444" lon="9.062456476409377"><ele>34.0</ele><time>2026-04-04T13:24:04Z</time></trkpt><trkpt lat="42.65334729120762" lon="9.0622927524971"><ele>34.0</ele><time>2026-04-04T13:24:05Z</time></trkpt><trkpt lat="42.653345798757556" lon="9.062130972948754"><ele>34.0</ele><time>2026-04-04T13:24:06Z</time></trkpt><trkpt lat="42.6533458442335" lon="9.061979451138834"><ele>34.5</ele><time>2026-04-04T13:24:07Z</time></trkpt><trkpt lat="42.653347346926616" lon="9.061831136804924"><ele>35.0</ele><time>2026-04-04T13:24:08Z</time></trkpt><trkpt lat="42.65334921973485" lon="9.061674552451672"><ele>35.5</ele><time>2026-04-04T13:24:09Z</time></trkpt><trkpt lat="42.65335366691615" lon="9.061507897260928"><ele>36.0</ele><time>2026-04-04T13:24:10Z</time></trkpt><trkpt lat="42.65336258619011" lon="9.061338303247929"><ele>36.0</ele><time>2026-04-04T13:24:11Z</time></trkpt><trkpt lat="42.653379497959946" lon="9.061165814200061"><ele>36.0</ele><time>2026-04-04T13:24:12Z</time></trkpt><trkpt lat="42.65340371969952" lon="9.061003586759899"><ele>36.0</ele><time>2026-04-04T13:24:13Z</time></trkpt><trkpt lat="42.65342940107879" lon="9.060848801741342"><ele>36.0</ele><time>2026-04-04T13:24:14Z</time></trkpt><trkpt lat="42.65345973800871" lon="9.060694002906494"><ele>38.75</ele><time>2026-04-04T13:24:15Z</time></trkpt><trkpt lat="42.653493910779225" lon="9.060543872029964"><ele>41.5</ele><time>2026-04-04T13:24:16Z</time></trkpt><trkpt lat="42.65353647600859" lon="9.060392441401476"><ele>44.25</ele><time>2026-04-04T13:24:17Z</time></trkpt><trkpt lat="42.65358654512522" lon="9.060236363864046"><ele>47.0</ele><time>2026-04-04T13:24:18Z</time></trkpt><trkpt lat="42.6536356871564" lon="9.060099339098144"><ele>47.75</ele><time>2026-04-04T13:24:19Z</time></trkpt><trkpt lat="42.653687740843" lon="9.05996210317749"><ele>48.5</ele><time>2026-04-04T13:24:20Z</time></trkpt><trkpt lat="42.65374500673747" lon="9.059821586450946"><ele>49.25</ele><time>2026-04-04T13:24:21Z</time></trkpt><trkpt lat="42.65380648440923" lon="9.059684917578997"><ele>50.0</ele><time>2026-04-04T13:24:22Z</time></trkpt><trkpt lat="42.653873448213915" lon="9.059555537255747"><ele>51.25</ele><time>2026-04-04T13:24:23Z</time></trkpt><trkpt lat="42.653944361951375" lon="9.059433052881664"><ele>52.5</ele><time>2026-04-04T13:24:24Z</time></trkpt><trkpt lat="42.65401725419307" lon="9.059315078371316"><ele>53.75</ele><time>2026-04-04T13:24:25Z</time></trkpt><trkpt lat="42.65409292980089" lon="9.059197935372817"><ele>55.0</ele><time>2026-04-04T13:24:26Z</time></trkpt><trkpt lat="42.654173366592" lon="9.059074263603874"><ele>55.25</ele><time>2026-04-04T13:24:27Z</time></trkpt><trkpt lat="42.65425483518464" lon="9.058945984021097"><ele>55.5</ele><time>2026-04-04T13:24:28Z</time></trkpt><trkpt lat="42.654337132360055" lon="9.058818302624484"><ele>55.75</ele><time>2026-04-04T13:24:29Z</time></trkpt><trkpt lat="42.65442295501132" lon="9.058686865983729"><ele>56.0</ele><time>2026-04-04T13:24:30Z</time></trkpt><trkpt lat="42.65450992165355" lon="9.058553683595182"><ele>56.0</ele><time>2026-04-04T13:24:31Z</time></trkpt><trkpt lat="42.65459800896858" lon="9.058421256261692"><ele>56.0</ele><time>2026-04-04T13:24:32Z</time></trkpt><trkpt lat="42.65468734156318" lon="9.058281221151422"><ele>56.0</ele><time>2026-04-04T13:24:33Z</time></trkpt><trkpt lat="42.654782978462" lon="9.058135462277205"><ele>56.0</ele><time>2026-04-04T13:24:34Z</time></trkpt><trkpt lat="42.65487010841156" lon="9.058002198772922"><ele>59.75</ele><time>2026-04-04T13:24:35Z</time></trkpt><trkpt lat="42.65496070466563" lon="9.057867658747432"><ele>63.5</ele><time>2026-04-04T13:24:36Z</time></trkpt><trkpt lat="42.65505248784856" lon="9.057733613490743"><ele>67.25</ele><time>2026-04-04T13:24:37Z</time></trkpt><trkpt lat="42.655141004569145" lon="9.057598709720088"><ele>71.0</ele><time>2026-04-04T13:24:38Z</time></trkpt><trkpt lat="42.655225218702455" lon="9.057468214954895"><ele>71.0</ele><time>2026-04-04T13:24:39Z</time></trkpt><trkpt lat="42.65530768708555" lon="9.057345198385974"><ele>71.0</ele><time>2026-04-04T13:24:40Z</time></trkpt><trkpt lat="42.655382597727424" lon="9.057229514607451"><ele>71.0</ele><time>2026-04-04T13:24:41Z</time></trkpt><trkpt lat="42.65545326965843" lon="9.057116498453802"><ele>71.0</ele><time>2026-04-04T13:24:42Z</time></trkpt><trkpt lat="42.65553593094309" lon="9.056996209917164"><ele>71.0</ele><time>2026-04-04T13:24:43Z</time></trkpt><trkpt lat="42.65561870333671" lon="9.056867153170797"><ele>71.0</ele><time>2026-04-04T13:24:44Z</time></trkpt><trkpt lat="42.65570366031409" lon="9.056738503828372"><ele>71.0</ele><time>2026-04-04T13:24:45Z</time></trkpt><trkpt lat="42.655786919813984" lon="9.056615708823301"><ele>71.0</ele><time>2026-04-04T13:24:46Z</time></trkpt><trkpt lat="42.65587000264507" lon="9.056494682056986"><ele>69.0</ele><time>2026-04-04T13:24:47Z</time></trkpt><trkpt lat="42.65594598073821" lon="9.056377126143662"><ele>67.0</ele><time>2026-04-04T13:24:48Z</time></trkpt><trkpt lat="42.6560245940661" lon="9.056257033931914"><ele>65.0</ele><time>2026-04-04T13:24:49Z</time></trkpt><trkpt lat="42.656109415349476" lon="9.056126034350187"><ele>63.0</ele><time>2026-04-04T13:24:50Z</time></trkpt><trkpt lat="42.656206348683334" lon="9.055976419424017"><ele>63.0</ele><time>2026-04-04T13:24:51Z</time></trkpt><trkpt lat="42.6562941144688" lon="9.055844323749898"><ele>63.0</ele><time>2026-04-04T13:24:52Z</time></trkpt><trkpt lat="42.65637972818633" lon="9.055718249723466"><ele>63.0</ele><time>2026-04-04T13:24:53Z</time></trkpt><trkpt lat="42.65647028590061" lon="9.0555918028994"><ele>63.0</ele><time>2026-04-04T13:24:54Z</time></trkpt><trkpt lat="42.65656872580732" lon="9.055468839152423"><ele>59.0</ele><time>2026-04-04T13:24:55Z</time></trkpt><trkpt lat="42.65665576281493" lon="9.05534065186261"><ele>55.0</ele><time>2026-04-04T13:24:56Z</time></trkpt><trkpt lat="42.65673083293298" lon="9.055214221712085"><ele>51.0</ele><time>2026-04-04T13:24:57Z</time></trkpt><trkpt lat="42.65679854275027" lon="9.05508806706153"><ele>47.0</ele><time>2026-04-04T13:24:58Z</time></trkpt><trkpt lat="42.65686015260467" lon="9.054968705595018"><ele>46.5</ele><time>2026-04-04T13:24:59Z</time></trkpt><trkpt lat="42.65691682680042" lon="9.054849102747497"><ele>46.0</ele><time>2026-04-04T13:25:00Z</time></trkpt><trkpt lat="42.65697522387695" lon="9.05471954074476"><ele>45.5</ele><time>2026-04-04T13:25:01Z</time></trkpt><trkpt lat="42.657029565292824" lon="9.054562613719863"><ele>45.0</ele><time>2026-04-04T13:25:02Z</time></trkpt><trkpt lat="42.65707060011735" lon="9.054406323587108"><ele>40.5</ele><time>2026-04-04T13:25:03Z</time></trkpt><trkpt lat="42.65710488088366" lon="9.054238126967725"><ele>36.0</ele><time>2026-04-04T13:25:04Z</time></trkpt><trkpt lat="42.657126477559196" lon="9.054059439385998"><ele>31.5</ele><time>2026-04-04T13:25:05Z</time></trkpt><trkpt lat="42.657131980001694" lon="9.053882837459174"><ele>27.0</ele><time>2026-04-04T13:25:06Z</time></trkpt><trkpt lat="42.65712636578166" lon="9.053701877386187"><ele>25.25</ele><time>2026-04-04T13:25:07Z</time></trkpt><trkpt lat="42.657106610346666" lon="9.05352577984899"><ele>23.5</ele><time>2026-04-04T13:25:08Z</time></trkpt><trkpt lat="42.657076671169655" lon="9.053345832122945"><ele>21.75</ele><time>2026-04-04T13:25:09Z</time></trkpt><trkpt lat="42.65703378954324" lon="9.053161787027248"><ele>20.0</ele><time>2026-04-04T13:25:10Z</time></trkpt><trkpt lat="42.65698306890801" lon="9.052985923095179"><ele>23.5</ele><time>2026-04-04T13:25:11Z</time></trkpt><trkpt lat="42.65693288169288" lon="9.052829727868794"><ele>27.0</ele><time>2026-04-04T13:25:12Z</time></trkpt><trkpt lat="42.65688348662109" lon="9.05267045915176"><ele>30.5</ele><time>2026-04-04T13:25:13Z</time></trkpt><trkpt lat="42.65682970424936" lon="9.052503809515496"><ele>34.0</ele><time>2026-04-04T13:25:14Z</time></trkpt><trkpt lat="42.656773961135116" lon="9.052333869574781"><ele>34.0</ele><time>2026-04-04T13:25:15Z</time></trkpt><trkpt lat="42.65671762205576" lon="9.052163613387574"><ele>34.0</ele><time>2026-04-04T13:25:16Z</time></trkpt><trkpt lat="42.656662377612875" lon="9.051992914844297"><ele>34.0</ele><time>2026-04-04T13:25:17Z</time></trkpt><trkpt lat="42.65660787207457" lon="9.051827358662202"><ele>34.0</ele><time>2026-04-04T13:25:18Z</time></trkpt><trkpt lat="42.65655391236499" lon="9.051664574224288"><ele>31.0</ele><time>2026-04-04T13:25:19Z</time></trkpt><trkpt lat="42.656500713526086" lon="9.05150333945615"><ele>28.0</ele><time>2026-04-04T13:25:20Z</time></trkpt><trkpt lat="42.65644659750357" lon="9.051341118309841"><ele>25.0</ele><time>2026-04-04T13:25:21Z</time></trkpt><trkpt lat="42.65638846301718" lon="9.051166721396513"><ele>22.0</ele><time>2026-04-04T13:25:22Z</time></trkpt><trkpt lat="42.65633421456724" lon="9.051004838412993"><ele>22.0</ele><time>2026-04-04T13:25:23Z</time></trkpt><trkpt lat="42.656278442474296" lon="9.050839008054123"><ele>22.0</ele><time>2026-04-04T13:25:24Z</time></trkpt><trkpt lat="42.65622669685618" lon="9.050674171817086"><ele>22.0</ele><time>2026-04-04T13:25:25Z</time></trkpt><trkpt lat="42.65617656978288" lon="9.050513225621296"><ele>22.0</ele><time>2026-04-04T13:25:26Z</time></trkpt><trkpt lat="42.65612860465697" lon="9.050356554659118"><ele>27.25</ele><time>2026-04-04T13:25:27.001Z</time></trkpt><trkpt lat="42.65608124161545" lon="9.050201859945721"><ele>32.5</ele><time>2026-04-04T13:25:28.001Z</time></trkpt><trkpt lat="42.65603801034105" lon="9.050050955308185"><ele>37.75</ele><time>2026-04-04T13:25:29.001Z</time></trkpt><trkpt lat="42.655998960924954" lon="9.049894050337707"><ele>43.0</ele><time>2026-04-04T13:25:30.001Z</time></trkpt><trkpt lat="42.65596102140958" lon="9.049728877097385"><ele>43.0</ele><time>2026-04-04T13:25:31.001Z</time></trkpt><trkpt lat="42.655926234122155" lon="9.049550988997321"><ele>43.0</ele><time>2026-04-04T13:25:32.001Z</time></trkpt><trkpt lat="42.65589399356688" lon="9.04937313122701"><ele>43.0</ele><time>2026-04-04T13:25:33.001Z</time></trkpt><trkpt lat="42.65586136100178" lon="9.049200853704983"><ele>43.0</ele><time>2026-04-04T13:25:34.001Z</time></trkpt><trkpt lat="42.65583011439195" lon="9.049025479870888"><ele>38.75</ele><time>2026-04-04T13:25:35.001Z</time></trkpt><trkpt lat="42.65579861812252" lon="9.048856898865644"><ele>34.5</ele><time>2026-04-04T13:25:36.001Z</time></trkpt><trkpt lat="42.655765255737684" lon="9.048688178672107"><ele>30.25</ele><time>2026-04-04T13:25:37.001Z</time></trkpt><trkpt lat="42.655729798637246" lon="9.048523364387002"><ele>26.0</ele><time>2026-04-04T13:25:38.001Z</time></trkpt><trkpt lat="42.65568910116384" lon="9.048361846500176"><ele>21.5</ele><time>2026-04-04T13:25:39.001Z</time></trkpt><trkpt lat="42.655642329597384" lon="9.048207167514756"><ele>17.0</ele><time>2026-04-04T13:25:40.001Z</time></trkpt><trkpt lat="42.65559150365604" lon="9.048058355915089"><ele>12.5</ele><time>2026-04-04T13:25:41.001Z</time></trkpt><trkpt lat="42.655537209895954" lon="9.047909839305644"><ele>8.0</ele><time>2026-04-04T13:25:42.001Z</time></trkpt><trkpt lat="42.65547652478539" lon="9.047764255116528"><ele>8.0</ele><time>2026-04-04T13:25:43.001Z</time></trkpt><trkpt lat="42.655408594422134" lon="9.047621961417672"><ele>8.0</ele><time>2026-04-04T13:25:44.001Z</time></trkpt><trkpt lat="42.65533103190492" lon="9.047485385100709"><ele>8.0</ele><time>2026-04-04T13:25:45.001Z</time></trkpt><trkpt lat="42.655247640910126" lon="9.04735401534671"><ele>8.0</ele><time>2026-04-04T13:25:46.001Z</time></trkpt><trkpt lat="42.65516354041194" lon="9.047234777690322"><ele>11.5</ele><time>2026-04-04T13:25:47.001Z</time></trkpt><trkpt lat="42.65507837713777" lon="9.047127638568526"><ele>15.0</ele><time>2026-04-04T13:25:48.001Z</time></trkpt><trkpt lat="42.654980360074894" lon="9.047014702316199"><ele>18.5</ele><time>2026-04-04T13:25:49.001Z</time></trkpt><trkpt lat="42.65487576301866" lon="9.046897973194195"><ele>22.0</ele><time>2026-04-04T13:25:50.001Z</time></trkpt><trkpt lat="42.654764985110745" lon="9.046774016075208"><ele>22.0</ele><time>2026-04-04T13:25:51.001Z</time></trkpt><trkpt lat="42.654661316929925" lon="9.046652877098468"><ele>22.0</ele><time>2026-04-04T13:25:52Z</time></trkpt><trkpt lat="42.65456829495463" lon="9.046538105631287"><ele>22.0</ele><time>2026-04-04T13:25:53Z</time></trkpt><trkpt lat="42.65447677848895" lon="9.04642270915593"><ele>22.0</ele><time>2026-04-04T13:25:54Z</time></trkpt><trkpt lat="42.654390940777624" lon="9.046305714814471"><ele>27.0</ele><time>2026-04-04T13:25:55Z</time></trkpt><trkpt lat="42.654311047285596" lon="9.04618851620141"><ele>32.0</ele><time>2026-04-04T13:25:56Z</time></trkpt><trkpt lat="42.65423831761364" lon="9.046071768685934"><ele>37.0</ele><time>2026-04-04T13:25:57Z</time></trkpt><trkpt lat="42.65417135838527" lon="9.045951240380237"><ele>42.0</ele><time>2026-04-04T13:25:58Z</time></trkpt><trkpt lat="42.65410321337195" lon="9.045822791715192"><ele>36.5</ele><time>2026-04-04T13:25:59Z</time></trkpt><trkpt lat="42.654032873337144" lon="9.045686107887468"><ele>31.0</ele><time>2026-04-04T13:26:00Z</time></trkpt><trkpt lat="42.65396299120505" lon="9.045543302924035"><ele>25.5</ele><time>2026-04-04T13:26:01Z</time></trkpt><trkpt lat="42.65389153540189" lon="9.04539291288362"><ele>20.0</ele><time>2026-04-04T13:26:02Z</time></trkpt><trkpt lat="42.653817207385565" lon="9.045238831801415"><ele>20.0</ele><time>2026-04-04T13:26:03Z</time></trkpt><trkpt lat="42.65374231181005" lon="9.045083429250514"><ele>20.0</ele><time>2026-04-04T13:26:04Z</time></trkpt><trkpt lat="42.65366596083389" lon="9.04492338532956"><ele>20.0</ele><time>2026-04-04T13:26:05Z</time></trkpt><trkpt lat="42.6535901855108" lon="9.044763510216095"><ele>20.0</ele><time>2026-04-04T13:26:06Z</time></trkpt><trkpt lat="42.65352255610522" lon="9.044622313636987"><ele>21.25</ele><time>2026-04-04T13:26:07Z</time></trkpt><trkpt lat="42.65345568610341" lon="9.044484286148244"><ele>22.5</ele><time>2026-04-04T13:26:08Z</time></trkpt><trkpt lat="42.653387711219466" lon="9.044345891208428"><ele>23.75</ele><time>2026-04-04T13:26:09Z</time></trkpt><trkpt lat="42.65332353927558" lon="9.044201830394437"><ele>25.0</ele><time>2026-04-04T13:26:10Z</time></trkpt><trkpt lat="42.65326351641386" lon="9.044052407535165"><ele>25.0</ele><time>2026-04-04T13:26:11Z</time></trkpt><trkpt lat="42.65321080189006" lon="9.043895812746346"><ele>25.0</ele><time>2026-04-04T13:26:12Z</time></trkpt><trkpt lat="42.65316776716239" lon="9.043739121327802"><ele>25.0</ele><time>2026-04-04T13:26:13Z</time></trkpt><trkpt lat="42.65312749100191" lon="9.043588151568406"><ele>25.0</ele><time>2026-04-04T13:26:14Z</time></trkpt><trkpt lat="42.653084064278765" lon="9.04343867902167"><ele>23.5</ele><time>2026-04-04T13:26:15Z</time></trkpt><trkpt lat="42.65303783187613" lon="9.043293429203132"><ele>22.0</ele><time>2026-04-04T13:26:16Z</time></trkpt><trkpt lat="42.65298875006468" lon="9.043152414202968"><ele>20.5</ele><time>2026-04-04T13:26:17Z</time></trkpt><trkpt lat="42.6529359748506" lon="9.043011341628851"><ele>19.0</ele><time>2026-04-04T13:26:18Z</time></trkpt><trkpt lat="42.652884690208396" lon="9.04286793252451"><ele>19.0</ele><time>2026-04-04T13:26:19Z</time></trkpt><trkpt lat="42.65283689567172" lon="9.042724129911457"><ele>19.0</ele><time>2026-04-04T13:26:20Z</time></trkpt><trkpt lat="42.65279232703595" lon="9.042600463303764"><ele>19.0</ele><time>2026-04-04T13:26:21Z</time></trkpt><trkpt lat="42.65274666297745" lon="9.042485774492512"><ele>19.0</ele><time>2026-04-04T13:26:22Z</time></trkpt><trkpt lat="42.65269693556227" lon="9.04234419271357"><ele>19.0</ele><time>2026-04-04T13:26:23Z</time></trkpt><trkpt lat="42.652641974852216" lon="9.042184974760465"><ele>23.75</ele><time>2026-04-04T13:26:24Z</time></trkpt><trkpt lat="42.65258525999163" lon="9.042019047426916"><ele>28.5</ele><time>2026-04-04T13:26:25Z</time></trkpt><trkpt lat="42.652528652845824" lon="9.041845696785078"><ele>33.25</ele><time>2026-04-04T13:26:26Z</time></trkpt><trkpt lat="42.65247427461552" lon="9.041667273530445"><ele>38.0</ele><time>2026-04-04T13:26:27Z</time></trkpt><trkpt lat="42.65242836699572" lon="9.04148551738771"><ele>38.0</ele><time>2026-04-04T13:26:28Z</time></trkpt><trkpt lat="42.65239936832289" lon="9.041292578311138"><ele>38.0</ele><time>2026-04-04T13:26:29Z</time></trkpt><trkpt lat="42.65238038341469" lon="9.04111110428797"><ele>38.0</ele><time>2026-04-04T13:26:30Z</time></trkpt><trkpt lat="42.65236875137242" lon="9.040951599080255"><ele>38.0</ele><time>2026-04-04T13:26:31Z</time></trkpt><trkpt lat="42.65235267817527" lon="9.040801855358662"><ele>36.6</ele><time>2026-04-04T13:26:32Z</time></trkpt><trkpt lat="42.65233202743277" lon="9.04065320841805"><ele>35.199999999999996</ele><time>2026-04-04T13:26:33Z</time></trkpt><trkpt lat="42.65230846473294" lon="9.040503568845152"><ele>33.8</ele><time>2026-04-04T13:26:34Z</time></trkpt><trkpt lat="42.65228535076281" lon="9.040353704319466"><ele>32.4</ele><time>2026-04-04T13:26:35Z</time></trkpt><trkpt lat="42.652266588826244" lon="9.040210096011855"><ele>31.0</ele><time>2026-04-04T13:26:36Z</time></trkpt><trkpt lat="42.652246714914135" lon="9.040050912022247"><ele>33.4</ele><time>2026-04-04T13:26:37Z</time></trkpt><trkpt lat="42.65222813736435" lon="9.039913379410185"><ele>35.8</ele><time>2026-04-04T13:26:38Z</time></trkpt><trkpt lat="42.65221116949241" lon="9.039784086242882"><ele>38.199999999999996</ele><time>2026-04-04T13:26:39Z</time></trkpt><trkpt lat="42.65220000291563" lon="9.03964413094842"><ele>40.6</ele><time>2026-04-04T13:26:40Z</time></trkpt><trkpt lat="42.65219939739268" lon="9.039508697120443"><ele>43.0</ele><time>2026-04-04T13:26:41Z</time></trkpt><trkpt lat="42.65220642118679" lon="9.039378178051221"><ele>43.0</ele><time>2026-04-04T13:26:42Z</time></trkpt><trkpt lat="42.65222687989443" lon="9.039243281720598"><ele>43.0</ele><time>2026-04-04T13:26:43Z</time></trkpt><trkpt lat="42.652267665629346" lon="9.039091998529988"><ele>43.0</ele><time>2026-04-04T13:26:44Z</time></trkpt><trkpt lat="42.65231173109084" lon="9.03895765743579"><ele>43.0</ele><time>2026-04-04T13:26:45Z</time></trkpt><trkpt lat="42.65235908074378" lon="9.038827618515556"><ele>43.0</ele><time>2026-04-04T13:26:46Z</time></trkpt><trkpt lat="42.65241481274206" lon="9.038690198673462"><ele>45.4</ele><time>2026-04-04T13:26:47Z</time></trkpt><trkpt lat="42.652474874650906" lon="9.038545346088604"><ele>47.8</ele><time>2026-04-04T13:26:48Z</time></trkpt><trkpt lat="42.652531823952785" lon="9.03841218434874"><ele>50.2</ele><time>2026-04-04T13:26:49Z</time></trkpt><trkpt lat="42.65258156806032" lon="9.038287050570364"><ele>52.6</ele><time>2026-04-04T13:26:50Z</time></trkpt><trkpt lat="42.652630424686365" lon="9.038164206796354"><ele>55.0</ele><time>2026-04-04T13:26:51Z</time></trkpt><trkpt lat="42.652684479084016" lon="9.038026057449658"><ele>56.25</ele><time>2026-04-04T13:26:52Z</time></trkpt><trkpt lat="42.65274159698064" lon="9.03786879178173"><ele>57.5</ele><time>2026-04-04T13:26:53Z</time></trkpt><trkpt lat="42.65280030889559" lon="9.037701503662165"><ele>58.75</ele><time>2026-04-04T13:26:54Z</time></trkpt><trkpt lat="42.652854150585384" lon="9.037534221142115"><ele>60.0</ele><time>2026-04-04T13:26:55Z</time></trkpt><trkpt lat="42.652905737633745" lon="9.037371079807885"><ele>54.25</ele><time>2026-04-04T13:26:56Z</time></trkpt><trkpt lat="42.65295471785903" lon="9.037212383837009"><ele>48.5</ele><time>2026-04-04T13:26:57Z</time></trkpt><trkpt lat="42.65300197804328" lon="9.03706054880154"><ele>42.75</ele><time>2026-04-04T13:26:58Z</time></trkpt><trkpt lat="42.653044296098344" lon="9.036909110099645"><ele>37.0</ele><time>2026-04-04T13:26:59Z</time></trkpt><trkpt lat="42.653087556936825" lon="9.036750072307512"><ele>40.75</ele><time>2026-04-04T13:27:00Z</time></trkpt><trkpt lat="42.653130203306915" lon="9.036593237903144"><ele>44.5</ele><time>2026-04-04T13:27:01Z</time></trkpt><trkpt lat="42.653179013617994" lon="9.03642324444221"><ele>48.25</ele><time>2026-04-04T13:27:02Z</time></trkpt><trkpt lat="42.653230391519585" lon="9.036236520860507"><ele>52.0</ele><time>2026-04-04T13:27:03Z</time></trkpt><trkpt lat="42.65327735716418" lon="9.036032009552212"><ele>52.0</ele><time>2026-04-04T13:27:04Z</time></trkpt><trkpt lat="42.65331443751024" lon="9.03583879278318"><ele>52.0</ele><time>2026-04-04T13:27:05Z</time></trkpt><trkpt lat="42.65333965731102" lon="9.035658343384599"><ele>52.0</ele><time>2026-04-04T13:27:06Z</time></trkpt><trkpt lat="42.653350910733906" lon="9.03548712283476"><ele>52.0</ele><time>2026-04-04T13:27:07Z</time></trkpt><trkpt lat="42.653347689150685" lon="9.035326414730587"><ele>52.5</ele><time>2026-04-04T13:27:08Z</time></trkpt><trkpt lat="42.65333254128353" lon="9.035157836953546"><ele>53.0</ele><time>2026-04-04T13:27:09Z</time></trkpt><trkpt lat="42.65330363616823" lon="9.034987189100596"><ele>53.5</ele><time>2026-04-04T13:27:10Z</time></trkpt><trkpt lat="42.65325938765844" lon="9.03481794142395"><ele>54.0</ele><time>2026-04-04T13:27:11Z</time></trkpt><trkpt lat="42.653202841636954" lon="9.03464856560262"><ele>49.75</ele><time>2026-04-04T13:27:12Z</time></trkpt><trkpt lat="42.653134723470316" lon="9.03448060141444"><ele>45.5</ele><time>2026-04-04T13:27:13Z</time></trkpt><trkpt lat="42.653053757585006" lon="9.034318811426312"><ele>41.25</ele><time>2026-04-04T13:27:14Z</time></trkpt><trkpt lat="42.65297330420655" lon="9.034169774283109"><ele>37.0</ele><time>2026-04-04T13:27:15Z</time></trkpt><trkpt lat="42.652892869335176" lon="9.034021784012868"><ele>33.5</ele><time>2026-04-04T13:27:16Z</time></trkpt><trkpt lat="42.65281372033655" lon="9.03387695155975"><ele>30.0</ele><time>2026-04-04T13:27:17Z</time></trkpt><trkpt lat="42.652735028748424" lon="9.033731699286397"><ele>26.5</ele><time>2026-04-04T13:27:18Z</time></trkpt><trkpt lat="42.65266100522364" lon="9.033581679164275"><ele>23.0</ele><time>2026-04-04T13:27:19Z</time></trkpt><trkpt lat="42.65258882688681" lon="9.033422845645692"><ele>29.25</ele><time>2026-04-04T13:27:20Z</time></trkpt><trkpt lat="42.65252469306596" lon="9.033270894480546"><ele>35.5</ele><time>2026-04-04T13:27:21Z</time></trkpt><trkpt lat="42.65246954499048" lon="9.033123083619431"><ele>41.75</ele><time>2026-04-04T13:27:22Z</time></trkpt><trkpt lat="42.65241748275212" lon="9.032972554051637"><ele>48.0</ele><time>2026-04-04T13:27:23Z</time></trkpt><trkpt lat="42.652375742023544" lon="9.032825294813014"><ele>48.0</ele><time>2026-04-04T13:27:24Z</time></trkpt><trkpt lat="42.65233870667395" lon="9.032661927877482"><ele>48.0</ele><time>2026-04-04T13:27:25Z</time></trkpt><trkpt lat="42.652308314758926" lon="9.032490064989759"><ele>48.0</ele><time>2026-04-04T13:27:26Z</time></trkpt><trkpt lat="42.65228364497506" lon="9.032323765803495"><ele>48.0</ele><time>2026-04-04T13:27:27Z</time></trkpt><trkpt lat="42.65226946740261" lon="9.03215020150866"><ele>46.25</ele><time>2026-04-04T13:27:28Z</time></trkpt><trkpt lat="42.65227954710023" lon="9.031965595986057"><ele>44.5</ele><time>2026-04-04T13:27:29Z</time></trkpt><trkpt lat="42.65229772741081" lon="9.031770446171745"><ele>42.75</ele><time>2026-04-04T13:27:30Z</time></trkpt><trkpt lat="42.652317526803394" lon="9.031564697158354"><ele>41.0</ele><time>2026-04-04T13:27:31.001Z</time></trkpt><trkpt lat="42.65233426983259" lon="9.031358029531903"><ele>41.0</ele><time>2026-04-04T13:27:32.001Z</time></trkpt><trkpt lat="42.6523508291797" lon="9.031165450863147"><ele>41.0</ele><time>2026-04-04T13:27:33.001Z</time></trkpt><trkpt lat="42.65236644725135" lon="9.030972820672174"><ele>41.0</ele><time>2026-04-04T13:27:34.001Z</time></trkpt><trkpt lat="42.65237904755815" lon="9.03078573907117"><ele>41.0</ele><time>2026-04-04T13:27:35.001Z</time></trkpt><trkpt lat="42.65238388344807" lon="9.03060240015123"><ele>39.75</ele><time>2026-04-04T13:27:36.001Z</time></trkpt><trkpt lat="42.65238078973041" lon="9.03041631892467"><ele>38.5</ele><time>2026-04-04T13:27:37.001Z</time></trkpt><trkpt lat="42.65236800857594" lon="9.030231738050713"><ele>37.25</ele><time>2026-04-04T13:27:38.001Z</time></trkpt><trkpt lat="42.65234278130374" lon="9.030047711536382"><ele>36.0</ele><time>2026-04-04T13:27:39.001Z</time></trkpt><trkpt lat="42.65231179066082" lon="9.029875247907343"><ele>32.5</ele><time>2026-04-04T13:27:40.001Z</time></trkpt><trkpt lat="42.65227545216798" lon="9.029698813148164"><ele>29.0</ele><time>2026-04-04T13:27:41.001Z</time></trkpt><trkpt lat="42.65222602273972" lon="9.02951931808949"><ele>25.5</ele><time>2026-04-04T13:27:42.001Z</time></trkpt><trkpt lat="42.652166241898975" lon="9.029348297936066"><ele>22.0</ele><time>2026-04-04T13:27:43.001Z</time></trkpt><trkpt lat="42.65210339039702" lon="9.029190543393241"><ele>18.5</ele><time>2026-04-04T13:27:44.001Z</time></trkpt><trkpt lat="42.652035611544605" lon="9.029038052435086"><ele>15.0</ele><time>2026-04-04T13:27:45.001Z</time></trkpt><trkpt lat="42.651958488800204" lon="9.028896853899571"><ele>11.5</ele><time>2026-04-04T13:27:46.001Z</time></trkpt><trkpt lat="42.651875431215856" lon="9.028761761803473"><ele>8.0</ele><time>2026-04-04T13:27:47.001Z</time></trkpt><trkpt lat="42.651786895668415" lon="9.028631460434685"><ele>7.75</ele><time>2026-04-04T13:27:48.001Z</time></trkpt><trkpt lat="42.65168799268515" lon="9.028507547034348"><ele>7.5</ele><time>2026-04-04T13:27:49.001Z</time></trkpt><trkpt lat="42.651580922711055" lon="9.02839000672142"><ele>7.25</ele><time>2026-04-04T13:27:50.001Z</time></trkpt><trkpt lat="42.65147113634608" lon="9.028280433876212"><ele>7.0</ele><time>2026-04-04T13:27:51.001Z</time></trkpt><trkpt lat="42.65135594752783" lon="9.028184959203159"><ele>7.0</ele><time>2026-04-04T13:27:52.001Z</time></trkpt><trkpt lat="42.65123764042841" lon="9.02810175028318"><ele>7.0</ele><time>2026-04-04T13:27:53.001Z</time></trkpt><trkpt lat="42.65111804547279" lon="9.02802054065671"><ele>7.0</ele><time>2026-04-04T13:27:54.001Z</time></trkpt><trkpt lat="42.65099779447524" lon="9.027941256354323"><ele>7.0</ele><time>2026-04-04T13:27:55.001Z</time></trkpt><trkpt lat="42.65088580858574" lon="9.02786600513004"><ele>14.0</ele><time>2026-04-04T13:27:56.001Z</time></trkpt><trkpt lat="42.650773198511" lon="9.027784931714386"><ele>21.0</ele><time>2026-04-04T13:27:57Z</time></trkpt><trkpt lat="42.65066167305088" lon="9.027694132180557"><ele>28.0</ele><time>2026-04-04T13:27:58Z</time></trkpt><trkpt lat="42.650551052676086" lon="9.02759214349707"><ele>35.0</ele><time>2026-04-04T13:27:59Z</time></trkpt><trkpt lat="42.65044166814821" lon="9.02749069079821"><ele>35.5</ele><time>2026-04-04T13:28:00Z</time></trkpt><trkpt lat="42.65033077712586" lon="9.027392235448563"><ele>36.0</ele><time>2026-04-04T13:28:01Z</time></trkpt><trkpt lat="42.650220879940065" lon="9.027302304131302"><ele>36.5</ele><time>2026-04-04T13:28:02Z</time></trkpt><trkpt lat="42.65010532581824" lon="9.02722539850467"><ele>37.0</ele><time>2026-04-04T13:28:03Z</time></trkpt><trkpt lat="42.64998635070289" lon="9.02715535090923"><ele>37.0</ele><time>2026-04-04T13:28:04Z</time></trkpt><trkpt lat="42.649865291271624" lon="9.027094313084639"><ele>37.0</ele><time>2026-04-04T13:28:05Z</time></trkpt><trkpt lat="42.64974562300955" lon="9.027038915285454"><ele>37.0</ele><time>2026-04-04T13:28:06Z</time></trkpt><trkpt lat="42.649633823833504" lon="9.026984483387363"><ele>37.0</ele><time>2026-04-04T13:28:07Z</time></trkpt><trkpt lat="42.649529502634095" lon="9.026932581587422"><ele>44.25</ele><time>2026-04-04T13:28:08Z</time></trkpt><trkpt lat="42.64942058399295" lon="9.026882000858242"><ele>51.5</ele><time>2026-04-04T13:28:09Z</time></trkpt><trkpt lat="42.64930409226334" lon="9.026827390689853"><ele>58.75</ele><time>2026-04-04T13:28:10Z</time></trkpt><trkpt lat="42.6491887701165" lon="9.026767772036107"><ele>66.0</ele><time>2026-04-04T13:28:11Z</time></trkpt><trkpt lat="42.649078128452885" lon="9.026711640319245"><ele>66.0</ele><time>2026-04-04T13:28:12Z</time></trkpt><trkpt lat="42.64897539986928" lon="9.02665721360676"><ele>66.0</ele><time>2026-04-04T13:28:13Z</time></trkpt><trkpt lat="42.64886724514922" lon="9.026599757668144"><ele>66.0</ele><time>2026-04-04T13:28:14Z</time></trkpt><trkpt lat="42.648754767580705" lon="9.026532864635476"><ele>66.0</ele><time>2026-04-04T13:28:15Z</time></trkpt><trkpt lat="42.64863810563872" lon="9.026457919660034"><ele>63.75</ele><time>2026-04-04T13:28:16Z</time></trkpt><trkpt lat="42.6485150359148" lon="9.026365586768145"><ele>61.5</ele><time>2026-04-04T13:28:17Z</time></trkpt><trkpt lat="42.64840591910788" lon="9.026253308711345"><ele>59.25</ele><time>2026-04-04T13:28:18Z</time></trkpt><trkpt lat="42.64830828118566" lon="9.026136637647209"><ele>57.0</ele><time>2026-04-04T13:28:19Z</time></trkpt><trkpt lat="42.648210561536324" lon="9.026026863460354"><ele>57.0</ele><time>2026-04-04T13:28:20Z</time></trkpt><trkpt lat="42.64811042423501" lon="9.025918260550066"><ele>57.0</ele><time>2026-04-04T13:28:21Z</time></trkpt><trkpt lat="42.64801544411382" lon="9.025815273835368"><ele>57.0</ele><time>2026-04-04T13:28:22Z</time></trkpt><trkpt lat="42.64792362510795" lon="9.025709284816479"><ele>57.0</ele><time>2026-04-04T13:28:23Z</time></trkpt><trkpt lat="42.6478362050643" lon="9.025609865182204"><ele>55.8</ele><time>2026-04-04T13:28:24Z</time></trkpt><trkpt lat="42.64775297318908" lon="9.02552183399373"><ele>54.6</ele><time>2026-04-04T13:28:25Z</time></trkpt><trkpt lat="42.6476811680149" lon="9.025447899504274"><ele>53.4</ele><time>2026-04-04T13:28:26Z</time></trkpt><trkpt lat="42.647615083083046" lon="9.025383884846281"><ele>52.199999999999996</ele><time>2026-04-04T13:28:27Z</time></trkpt><trkpt lat="42.647541772768" lon="9.02531158237304"><ele>51.0</ele><time>2026-04-04T13:28:28Z</time></trkpt><trkpt lat="42.647469707625476" lon="9.025232905203014"><ele>51.0</ele><time>2026-04-04T13:28:29Z</time></trkpt><trkpt lat="42.64740311651044" lon="9.02515083051634"><ele>51.0</ele><time>2026-04-04T13:28:30Z</time></trkpt><trkpt lat="42.647329905721364" lon="9.025077029256511"><ele>51.0</ele><time>2026-04-04T13:28:31Z</time></trkpt><trkpt lat="42.64723884495462" lon="9.024985872480567"><ele>51.0</ele><time>2026-04-04T13:28:32Z</time></trkpt><trkpt lat="42.647141203474" lon="9.024879435147142"><ele>51.0</ele><time>2026-04-04T13:28:33Z</time></trkpt><trkpt lat="42.64704791803461" lon="9.024782266579741"><ele>49.5</ele><time>2026-04-04T13:28:34Z</time></trkpt><trkpt lat="42.64694986720864" lon="9.024682081312955"><ele>48.0</ele><time>2026-04-04T13:28:35Z</time></trkpt><trkpt lat="42.6468536135407" lon="9.02459008343582"><ele>46.5</ele><time>2026-04-04T13:28:36Z</time></trkpt><trkpt lat="42.646756399483" lon="9.024504696634938"><ele>45.0</ele><time>2026-04-04T13:28:37Z</time></trkpt><trkpt lat="42.646657134708505" lon="9.024424854878076"><ele>45.0</ele><time>2026-04-04T13:28:38Z</time></trkpt><trkpt lat="42.64655437959485" lon="9.02435250670325"><ele>45.0</ele><time>2026-04-04T13:28:39Z</time></trkpt><trkpt lat="42.64644635751238" lon="9.024284841968267"><ele>45.0</ele><time>2026-04-04T13:28:40Z</time></trkpt><trkpt lat="42.64632303576479" lon="9.02422338891268"><ele>45.0</ele><time>2026-04-04T13:28:41Z</time></trkpt><trkpt lat="42.64619495303484" lon="9.024161898680852"><ele>41.0</ele><time>2026-04-04T13:28:42Z</time></trkpt><trkpt lat="42.64606731276247" lon="9.024102486330088"><ele>37.0</ele><time>2026-04-04T13:28:43Z</time></trkpt><trkpt lat="42.645947024983336" lon="9.024046357394877"><ele>33.0</ele><time>2026-04-04T13:28:44Z</time></trkpt><trkpt lat="42.645827676141465" lon="9.023995619455667"><ele>29.0</ele><time>2026-04-04T13:28:45Z</time></trkpt><trkpt lat="42.6457132756738" lon="9.023940846944422"><ele>29.0</ele><time>2026-04-04T13:28:46Z</time></trkpt><trkpt lat="42.64560108617726" lon="9.023884812957036"><ele>29.0</ele><time>2026-04-04T13:28:47Z</time></trkpt><trkpt lat="42.64549175806066" lon="9.023823942755666"><ele>29.0</ele><time>2026-04-04T13:28:48Z</time></trkpt><trkpt lat="42.64537986405825" lon="9.02375698576197"><ele>29.0</ele><time>2026-04-04T13:28:49Z</time></trkpt><trkpt lat="42.645271240636" lon="9.023689035582446"><ele>32.0</ele><time>2026-04-04T13:28:50Z</time></trkpt><trkpt lat="42.64516327582427" lon="9.02362176143117"><ele>35.0</ele><time>2026-04-04T13:28:51Z</time></trkpt><trkpt lat="42.64505572463846" lon="9.023554182816655"><ele>38.0</ele><time>2026-04-04T13:28:52Z</time></trkpt><trkpt lat="42.64494749866227" lon="9.023487748238493"><ele>41.0</ele><time>2026-04-04T13:28:53Z</time></trkpt><trkpt lat="42.64484298980006" lon="9.023422094677198"><ele>41.0</ele><time>2026-04-04T13:28:54Z</time></trkpt><trkpt lat="42.644740260938526" lon="9.023354745142662"><ele>41.0</ele><time>2026-04-04T13:28:55Z</time></trkpt><trkpt lat="42.644635392026245" lon="9.023285261421162"><ele>41.0</ele><time>2026-04-04T13:28:56Z</time></trkpt><trkpt lat="42.644529151591044" lon="9.023221430286535"><ele>41.0</ele><time>2026-04-04T13:28:57Z</time></trkpt><trkpt lat="42.64441874721248" lon="9.023156935841493"><ele>35.5</ele><time>2026-04-04T13:28:58Z</time></trkpt><trkpt lat="42.6443057165708" lon="9.023081977108118"><ele>30.0</ele><time>2026-04-04T13:28:59Z</time></trkpt><trkpt lat="42.64419241476793" lon="9.023008620167994"><ele>24.5</ele><time>2026-04-04T13:29:00Z</time></trkpt><trkpt lat="42.644079935099874" lon="9.022937272044082"><ele>19.0</ele><time>2026-04-04T13:29:01Z</time></trkpt><trkpt lat="42.64396037430849" lon="9.02286375557932"><ele>19.0</ele><time>2026-04-04T13:29:02Z</time></trkpt><trkpt lat="42.643834335327064" lon="9.022786699372093"><ele>19.0</ele><time>2026-04-04T13:29:03Z</time></trkpt><trkpt lat="42.6437155870856" lon="9.0227140343193"><ele>19.0</ele><time>2026-04-04T13:29:04Z</time></trkpt><trkpt lat="42.64360128585113" lon="9.022645853937336"><ele>19.0</ele><time>2026-04-04T13:29:05Z</time></trkpt><trkpt lat="42.643488671975376" lon="9.022583976883917"><ele>17.25</ele><time>2026-04-04T13:29:06Z</time></trkpt><trkpt lat="42.643368744356955" lon="9.022523943525105"><ele>15.5</ele><time>2026-04-04T13:29:07Z</time></trkpt><trkpt lat="42.64324942630668" lon="9.022479426901755"><ele>13.75</ele><time>2026-04-04T13:29:08Z</time></trkpt><trkpt lat="42.6431279673867" lon="9.022448335334303"><ele>12.0</ele><time>2026-04-04T13:29:09Z</time></trkpt><trkpt lat="42.643003517524825" lon="9.022434535038126"><ele>12.0</ele><time>2026-04-04T13:29:10Z</time></trkpt><trkpt lat="42.6428761790241" lon="9.022432020979375"><ele>12.0</ele><time>2026-04-04T13:29:11Z</time></trkpt><trkpt lat="42.642746805864626" lon="9.022450344042376"><ele>12.0</ele><time>2026-04-04T13:29:12Z</time></trkpt><trkpt lat="42.64261153996862" lon="9.022484782225577"><ele>12.0</ele><time>2026-04-04T13:29:13Z</time></trkpt><trkpt lat="42.64247780436143" lon="9.022540499861774"><ele>14.0</ele><time>2026-04-04T13:29:14Z</time></trkpt><trkpt lat="42.64235083945484" lon="9.022621043622658"><ele>16.0</ele><time>2026-04-04T13:29:15Z</time></trkpt><trkpt lat="42.642221212992915" lon="9.022711780734753"><ele>18.0</ele><time>2026-04-04T13:29:16Z</time></trkpt><trkpt lat="42.642093338492536" lon="9.02280899510349"><ele>20.0</ele><time>2026-04-04T13:29:17Z</time></trkpt><trkpt lat="42.641963193450906" lon="9.022907795663725"><ele>20.0</ele><time>2026-04-04T13:29:18Z</time></trkpt><trkpt lat="42.64184017043411" lon="9.023009748875316"><ele>20.0</ele><time>2026-04-04T13:29:19Z</time></trkpt><trkpt lat="42.641721104068296" lon="9.023112356537274"><ele>20.0</ele><time>2026-04-04T13:29:20Z</time></trkpt><trkpt lat="42.64160899548655" lon="9.023214253491153"><ele>20.0</ele><time>2026-04-04T13:29:21Z</time></trkpt><trkpt lat="42.64150171586684" lon="9.023306420881667"><ele>21.0</ele><time>2026-04-04T13:29:22Z</time></trkpt><trkpt lat="42.641395261216985" lon="9.023393581146971"><ele>22.0</ele><time>2026-04-04T13:29:23Z</time></trkpt><trkpt lat="42.641276782242656" lon="9.023473963995393"><ele>23.0</ele><time>2026-04-04T13:29:24Z</time></trkpt><trkpt lat="42.641151544319754" lon="9.023539831784387"><ele>24.0</ele><time>2026-04-04T13:29:25Z</time></trkpt><trkpt lat="42.64102634501325" lon="9.023584006590319"><ele>24.0</ele><time>2026-04-04T13:29:26Z</time></trkpt><trkpt lat="42.640890134544726" lon="9.023607321699503"><ele>24.0</ele><time>2026-04-04T13:29:27Z</time></trkpt><trkpt lat="42.64075044942583" lon="9.023603668687983"><ele>24.0</ele><time>2026-04-04T13:29:28Z</time></trkpt><trkpt lat="42.64061062217149" lon="9.023579911337734"><ele>24.0</ele><time>2026-04-04T13:29:29Z</time></trkpt><trkpt lat="42.640481187082415" lon="9.023535782853996"><ele>24.0</ele><time>2026-04-04T13:29:30Z</time></trkpt><trkpt lat="42.64035633166812" lon="9.02347171634447"><ele>24.0</ele><time>2026-04-04T13:29:31Z</time></trkpt><trkpt lat="42.64022955058108" lon="9.023386553208766"><ele>24.0</ele><time>2026-04-04T13:29:32Z</time></trkpt><trkpt lat="42.640120856896104" lon="9.023278888988964"><ele>24.0</ele><time>2026-04-04T13:29:33Z</time></trkpt><trkpt lat="42.6400233345159" lon="9.023156439715756"><ele>23.0</ele><time>2026-04-04T13:29:34Z</time></trkpt><trkpt lat="42.63993962124174" lon="9.023025386148731"><ele>22.0</ele><time>2026-04-04T13:29:35Z</time></trkpt><trkpt lat="42.639861933297" lon="9.022886734441032"><ele>21.0</ele><time>2026-04-04T13:29:36Z</time></trkpt><trkpt lat="42.639785293360355" lon="9.022739592517476"><ele>20.0</ele><time>2026-04-04T13:29:37Z</time></trkpt><trkpt lat="42.63970625161192" lon="9.022580809360203"><ele>20.0</ele><time>2026-04-04T13:29:38Z</time></trkpt><trkpt lat="42.639633716635224" lon="9.022437933160443"><ele>20.0</ele><time>2026-04-04T13:29:39Z</time></trkpt><trkpt lat="42.63956567240152" lon="9.022306810318785"><ele>20.0</ele><time>2026-04-04T13:29:40Z</time></trkpt><trkpt lat="42.639501820536516" lon="9.022187808962626"><ele>20.0</ele><time>2026-04-04T13:29:41Z</time></trkpt><trkpt lat="42.6394426348161" lon="9.02208186180355"><ele>20.0</ele><time>2026-04-04T13:29:42Z</time></trkpt><trkpt lat="42.639388036037424" lon="9.021991978673709"><ele>20.0</ele><time>2026-04-04T13:29:43Z</time></trkpt><trkpt lat="42.63933026550683" lon="9.021911972586919"><ele>20.0</ele><time>2026-04-04T13:29:44Z</time></trkpt><trkpt lat="42.63927733645759" lon="9.021844492930361"><ele>20.0</ele><time>2026-04-04T13:29:45Z</time></trkpt><trkpt lat="42.63921503279227" lon="9.021729488244635"><ele>20.0</ele><time>2026-04-04T13:29:47Z</time></trkpt><trkpt lat="42.63918259324062" lon="9.021641969030327"><ele>20.0</ele><time>2026-04-04T13:29:51Z</time></trkpt><trkpt lat="42.639082938355216" lon="9.0216280560015"><ele>20.0</ele><time>2026-04-04T13:29:54Z</time></trkpt><trkpt lat="42.63897958483477" lon="9.021689273259073"><ele>20.0</ele><time>2026-04-04T13:29:56Z</time></trkpt><trkpt lat="42.63891638694495" lon="9.021684402023139"><ele>20.0</ele><time>2026-04-04T13:29:57Z</time></trkpt><trkpt lat="42.63883455767232" lon="9.021629806798103"><ele>20.0</ele><time>2026-04-04T13:29:59Z</time></trkpt><trkpt lat="42.6387871336784" lon="9.021553746787815"><ele>20.0</ele><time>2026-04-04T13:30:00Z</time></trkpt><trkpt lat="42.638704888696" lon="9.021485558360213"><ele>20.0</ele><time>2026-04-04T13:30:02Z</time></trkpt><trkpt lat="42.63865135804554" lon="9.021568349431655"><ele>19.0</ele><time>2026-04-04T13:30:05Z</time></trkpt><trkpt lat="42.63860535825762" lon="9.021485012063998"><ele>18.0</ele><time>2026-04-04T13:30:10Z</time></trkpt></trkseg></trk></gpx>